[[{"header":{"parameterUnit":"m.s-1","parameterCategory":1,"la1":30.6,"la2":29.2853,"lo1":-89.7004,"lo2":-87.6739,"dy":0.0162,"dx":0.0183,"nx":112,"ny":82,"refTime":"2026-05-16T00:00:00:Z","depth":0,"parameterNumber":2,"parameterNumberName":"U-component_of_WINDS"},"data":[0.0,0.0,0.0,0.0,0.0,0.0,0.0,0.0,0.0,0.0,0.0,0.0,0.0,0.0,0.0,0.0,0.0,0.0,0.0,0.0,0.0,0.0,0.0,0.0,0.0,0.0,0.0,0.0,0.0,0.0,0.0,0.0,0.0,0.0,0.0,0.0,0.0,0.0,0.0,0.0,0.0,0.0,0.0,0.0,0.0,0.0,0.0,0.0,0.0,0.0,0.0,0.0,0.0,0.0,0.0,0.0,0.0,0.0,0.0,0.0,0.0,0.0,0.0,0.0,0.0,0.0,0.0,0.0,0.0,0.0,0.0,0.0,0.0,0.0,0.0,0.0,0.0,0.0,0.0,0.0,0.0,0.0,0.0,0.0,0.0,0.0,0.0,0.0,0.0,0.0,0.0,-0.8422,-1.0763,-1.163,-1.0219,-0.9573,-0.8254,-0.5916,0.0,0.0,0.0,0.0,0.0,0.0,0.0,0.0,0.0,0.0,0.0,0.0,0.0,0.0,0.0,0.0,0.0,0.0,0.0,0.0,0.0,0.0,0.0,0.0,0.0,0.0,0.0,0.0,0.0,0.0,0.0,0.0,0.0,0.0,0.0,0.0,0.0,0.0,0.0,0.0,0.0,0.0,0.0,0.0,0.0,0.0,0.0,0.0,0.0,0.0,0.0,0.0,0.0,0.0,0.0,0.0,0.0,0.0,0.0,0.0,0.0,0.0,0.0,0.0,0.0,0.0,0.0,0.0,0.0,0.0,0.0,0.0,0.0,0.0,0.0,0.0,0.0,0.0,0.0,0.0,0.0,0.0,0.0,0.0,0.0,0.0,0.0,0.0,0.0,0.0,0.0,0.0,0.0,0.0,0.0,0.0,0.0,0.0,0.0,0.0,0.0,0.0,0.0,0.0,-0.6664,-0.9679,-1.1311,-1.163,-1.0219,-1.0019,-0.8591,-0.542,0.0,0.0,0.0,0.0,0.0,0.0,0.0,0.0,0.0,0.0,0.0,0.0,0.0,0.0,0.0,0.0,0.0,0.0,0.0,0.0,0.0,0.0,0.0,0.0,0.0,0.0,0.0,0.0,0.0,0.0,0.0,0.0,0.0,0.0,0.0,0.0,0.0,0.0,0.0,0.0,0.0,0.0,0.0,0.0,0.0,0.0,0.0,0.0,0.0,0.0,0.0,0.0,0.0,0.0,0.0,0.0,0.0,0.0,0.0,0.0,0.0,0.0,0.0,0.0,0.0,0.0,0.0,0.0,0.0,0.0,0.0,0.0,0.0,0.0,0.0,0.0,0.0,0.0,0.0,0.0,0.0,0.0,0.0,0.0,0.0,0.0,0.0,0.0,0.0,0.0,0.0,0.0,0.0,0.0,0.0,0.0,0.0,0.0,0.0,0.0,0.0,0.0,0.0,-0.6855,-0.8171,-1.0043,-1.1416,-1.163,-1.0219,-0.9773,-0.8229,-0.5128,-0.441,0.0,0.0,0.0,0.0,0.0,0.0,0.0,0.0,0.0,0.0,0.0,0.0,0.0,0.0,0.0,0.0,0.0,0.0,0.0,0.0,0.0,0.0,0.0,0.0,0.0,0.0,0.0,0.0,0.0,0.0,0.0,0.0,0.0,0.0,0.0,0.0,0.0,0.0,0.0,0.0,0.0,0.0,0.0,0.0,0.0,0.0,0.0,0.0,0.0,0.0,0.0,0.0,0.0,0.0,0.0,0.0,0.0,0.0,0.0,0.0,0.0,0.0,0.0,0.0,0.0,0.0,0.0,0.0,0.0,0.0,0.0,0.0,0.0,0.0,0.0,0.0,0.0,0.0,0.0,0.0,0.0,0.0,0.0,0.0,0.0,0.0,0.0,0.0,0.0,0.0,0.0,0.0,0.0,0.0,0.0,0.0,0.0,0.0,0.0,0.0,0.0,0.0,-0.8053,-0.9613,-1.0117,-1.1358,-1.159,-1.02,-0.9464,-0.7805,-0.48,-0.428,0.0,0.0,0.0,0.0,0.0,0.0,0.0,0.0,0.0,0.0,0.0,0.0,0.0,0.0,0.0,0.0,0.0,0.0,0.0,0.0,0.0,0.0,0.0,0.0,0.0,0.0,0.0,0.0,0.0,0.0,0.0,0.0,0.0,0.0,0.0,0.0,0.0,0.0,0.0,0.0,0.0,0.0,0.0,0.0,0.0,0.0,0.0,0.0,0.0,0.0,0.0,0.0,0.0,0.0,0.0,0.0,0.0,0.0,0.0,0.0,0.0,0.0,0.0,0.0,0.0,0.0,0.0,0.0,0.0,0.0,0.0,0.0,0.0,0.0,0.0,0.0,0.0,0.0,0.0,0.0,0.0,0.0,0.0,0.0,0.0,0.0,0.0,0.0,0.0,0.0,0.0,0.0,0.0,0.0,0.0,0.0,0.0,0.0,0.0,0.0,0.0,0.0,-0.844,-1.0053,-1.0099,-1.1251,-1.148,-1.0118,-0.9389,-0.7598,-0.4267,-0.4023,0.0,0.0,0.0,0.0,0.0,0.0,0.0,0.0,0.0,0.0,0.0,0.0,0.0,0.0,0.0,0.0,0.0,0.0,0.0,0.0,0.0,0.0,0.0,0.0,0.0,0.0,0.0,0.0,0.0,0.0,0.0,0.0,0.0,0.0,0.0,0.0,0.0,0.0,0.0,0.0,0.0,0.0,0.0,0.0,0.0,0.0,0.0,0.0,0.0,0.0,0.0,0.0,0.0,0.0,0.0,0.0,0.0,0.0,0.0,0.0,0.0,0.0,0.0,0.0,0.0,0.0,0.0,0.0,0.0,0.0,0.0,0.0,0.0,0.0,0.0,0.0,0.0,0.0,0.0,0.0,0.0,0.0,0.0,0.0,0.0,0.0,0.0,0.0,0.0,0.0,0.0,0.0,0.0,0.0,0.0,0.0,0.0,0.0,0.0,0.0,0.0,0.0,-0.8487,-1.0073,0.0,-1.1206,-1.147,-1.0109,-0.8993,-0.7114,-0.4126,0.0,0.0,0.0,0.0,0.0,0.0,0.0,0.0,0.0,0.0,0.0,0.0,0.0,0.0,0.0,0.0,0.0,0.0,0.0,0.0,0.0,0.0,0.0,0.0,0.0,0.0,0.0,0.0,0.0,0.0,0.0,0.0,0.0,0.0,0.0,0.0,0.0,0.0,0.0,0.0,0.0,0.0,0.0,0.0,0.0,0.0,0.0,0.0,0.0,0.0,0.0,0.0,0.0,0.0,0.0,0.0,0.0,0.0,0.0,0.0,0.0,0.0,0.0,0.0,0.0,0.0,0.0,0.0,0.0,0.0,0.0,0.0,0.0,0.0,0.0,0.0,0.0,0.0,0.0,0.0,0.0,0.0,0.0,0.0,0.0,0.0,0.0,0.0,0.0,0.0,0.0,0.0,0.0,0.0,0.0,0.0,0.0,0.0,0.0,0.0,0.0,0.0,-0.651,-0.8559,-1.0096,0.0,-1.1283,-1.1394,-1.0079,-0.9134,-0.725,-0.4099,0.0,0.0,0.0,0.0,0.0,0.0,0.0,0.0,0.0,0.0,0.0,0.0,0.0,0.0,0.0,0.0,0.0,0.0,0.0,0.0,0.0,0.0,0.0,0.0,0.0,0.0,0.0,0.0,0.0,0.0,0.0,0.0,0.0,0.0,0.0,0.0,0.0,0.0,0.0,0.0,0.0,0.0,0.0,0.0,0.0,0.0,0.0,0.0,0.0,0.0,0.0,0.0,0.0,0.0,0.0,0.0,0.0,0.0,0.0,0.0,0.0,0.0,0.0,0.0,0.0,0.0,0.0,0.0,0.0,0.0,0.0,0.0,0.0,0.0,0.0,0.0,0.0,0.0,0.0,0.0,0.0,0.0,0.0,0.0,0.0,0.0,0.0,0.0,0.0,0.0,0.0,0.0,0.0,0.0,0.0,0.0,0.0,0.0,0.0,0.0,0.0,0.0,-0.7017,-0.8743,-1.0154,-1.0811,-1.1447,-1.1281,-1.0009,-0.989,-0.8179,0.0,0.0,0.0,0.0,0.0,0.0,0.0,0.0,0.0,0.0,0.0,0.0,0.0,0.0,0.0,0.0,0.0,0.0,0.0,0.0,0.0,0.0,0.0,0.0,0.0,0.0,0.0,0.0,0.0,0.0,0.0,0.0,0.0,0.0,0.0,0.0,0.0,0.0,0.0,0.0,0.0,0.0,0.0,0.0,0.0,0.0,0.0,0.0,0.0,0.0,0.0,0.0,0.0,0.0,0.0,0.0,0.0,0.0,0.0,0.0,0.0,0.0,0.0,0.0,0.0,0.0,0.0,0.0,0.0,0.0,0.0,0.0,0.0,0.0,0.0,0.0,0.0,0.0,0.0,0.0,0.0,0.0,0.0,0.0,0.0,0.0,0.0,0.0,0.0,0.0,0.0,0.0,0.0,0.0,0.0,0.0,0.0,0.0,0.0,0.0,0.0,0.0,0.0,-0.6309,-0.8409,-0.998,-1.0172,-1.1157,-1.1281,-1.0009,-0.9473,-0.7844,-0.4664,0.0,0.0,0.0,0.0,0.0,0.0,0.0,0.0,0.0,0.0,0.0,0.0,0.0,0.0,0.0,0.0,0.0,0.0,0.0,0.0,0.0,0.0,0.0,0.0,0.0,0.0,0.0,0.0,0.0,0.0,0.0,0.0,0.0,0.0,0.0,0.0,0.0,0.0,0.0,0.0,0.0,0.0,0.0,0.0,0.0,0.0,0.0,0.0,0.0,0.0,0.0,0.0,0.0,0.0,0.0,0.0,0.0,0.0,0.0,0.0,0.0,0.0,0.0,0.0,0.0,0.0,0.0,0.0,0.0,0.0,0.0,0.0,0.0,0.0,0.0,0.0,0.0,0.0,0.0,0.0,0.0,0.0,0.0,0.0,0.0,0.0,0.0,0.0,0.0,0.0,0.0,0.0,0.0,0.0,0.0,0.0,0.0,0.0,0.0,0.0,0.0,0.0,-0.6374,-0.8447,-0.9992,-1.0234,-1.1416,-1.1565,-1.0024,-0.9989,-0.8549,-0.5002,0.0,0.0,0.0,0.0,0.0,0.0,0.0,0.0,0.0,0.0,0.0,0.0,0.0,0.0,0.0,0.0,0.0,0.0,0.0,0.0,0.0,0.0,0.0,0.0,0.0,0.0,0.0,0.0,0.0,0.0,0.0,0.0,0.0,0.0,0.0,0.0,0.0,0.0,0.0,0.0,0.0,0.0,0.0,0.0,0.0,0.0,0.0,0.0,0.0,0.0,0.0,0.0,0.0,0.0,0.0,0.0,0.0,0.0,0.0,0.0,0.0,0.0,0.0,0.0,0.0,0.0,0.0,0.0,0.0,0.0,0.0,0.0,0.0,0.0,0.0,0.0,0.0,0.0,0.0,0.0,0.0,0.0,0.0,0.0,0.0,0.0,0.0,0.0,0.0,0.0,0.0,0.0,0.0,0.0,0.0,0.0,0.0,0.0,0.0,0.0,0.0,0.0,-0.701,-0.8778,-1.0219,-1.0837,-1.2089,-1.21,-1.0144,-1.1042,-0.9804,-0.5351,0.0,0.0,0.0,0.0,0.0,0.0,0.0,0.0,0.0,0.0,0.0,0.0,0.0,0.0,0.0,0.0,0.0,0.0,0.0,0.0,0.0,0.0,0.0,0.0,0.0,0.0,0.0,0.0,0.0,0.0,0.0,0.0,0.0,0.0,0.0,0.0,0.0,0.0,0.0,0.0,0.0,0.0,0.0,0.0,0.0,0.0,0.0,0.0,0.0,0.0,0.0,0.0,0.0,0.0,0.0,0.0,0.0,0.0,0.0,0.0,-1.3618,0.0,0.0,0.0,0.0,0.0,0.0,0.0,0.0,0.0,0.0,0.0,0.0,0.0,0.0,0.0,0.0,0.0,0.0,0.0,0.0,0.0,0.0,0.0,0.0,0.0,0.0,0.0,0.0,0.0,0.0,0.0,0.0,0.0,0.0,0.0,0.0,0.0,0.0,0.0,0.0,0.0,-0.7651,-0.9432,-1.0867,-1.1521,-1.2792,-1.2781,-1.0778,-1.0867,-0.9665,-0.6511,0.0,0.0,0.0,0.0,0.0,0.0,0.0,0.0,0.0,0.0,0.0,0.0,0.0,0.0,0.0,0.0,0.0,0.0,0.0,0.0,0.0,0.0,0.0,0.0,0.0,0.0,0.0,0.0,0.0,0.0,0.0,0.0,0.0,0.0,0.0,0.0,0.0,0.0,0.0,0.0,0.0,0.0,0.0,0.0,0.0,0.0,0.0,0.0,0.0,0.0,0.0,0.0,0.0,0.0,0.0,0.0,0.0,0.0,0.0,0.0,0.0,-1.5098,0.0,0.0,0.0,0.0,0.0,0.0,0.0,0.0,0.0,0.0,0.0,0.0,0.0,0.0,0.0,0.0,0.0,0.0,0.0,0.0,0.0,0.0,0.0,0.0,0.0,0.0,0.0,0.0,0.0,0.0,0.0,0.0,0.0,0.0,0.0,0.0,0.0,0.0,0.0,0.0,-0.788,-0.9914,-1.1405,-1.176,-1.3002,-1.299,-1.0962,-1.0798,-0.9651,-0.6964,-0.6648,0.0,0.0,0.0,0.0,0.0,0.0,0.0,0.0,0.0,0.0,0.0,0.0,0.0,0.0,0.0,0.0,0.0,0.0,0.0,0.0,0.0,0.0,0.0,0.0,0.0,0.0,0.0,0.0,0.0,0.0,0.0,0.0,0.0,0.0,0.0,0.0,0.0,0.0,0.0,0.0,0.0,0.0,0.0,0.0,0.0,0.0,0.0,0.0,0.0,0.0,0.0,0.0,0.0,0.0,0.0,-2.2586,-2.3254,-2.3409,-2.3062,-2.0799,-1.8594,-1.6584,0.0,0.0,0.0,0.0,0.0,0.0,0.0,0.0,0.0,0.0,0.0,0.0,0.0,0.0,0.0,0.0,0.0,0.0,0.0,0.0,0.0,0.0,0.0,0.0,0.0,-1.3684,-1.3531,0.0,0.0,0.0,0.0,0.0,0.0,0.0,0.0,0.0,0.0,0.0,0.0,-0.8568,-1.0615,-1.2059,-1.2299,-1.3316,-1.3199,-1.1316,-1.0932,-0.9791,-0.7391,-0.7548,-0.672,0.0,0.0,0.0,0.0,0.0,0.0,0.0,0.0,0.0,0.0,0.0,0.0,0.0,0.0,0.0,0.0,0.0,0.0,0.0,0.0,0.0,0.0,0.0,0.0,0.0,0.0,0.0,0.0,0.0,0.0,0.0,0.0,-0.9946,-1.0877,0.0,0.0,0.0,0.0,0.0,0.0,0.0,0.0,0.0,0.0,0.0,0.0,0.0,0.0,-2.1186,-2.2435,-2.3428,-2.4115,-2.4502,-2.4865,-2.5206,-2.5319,-2.5242,-2.5017,-2.4545,0.0,-2.0494,-1.985,0.0,0.0,0.0,0.0,0.0,0.0,0.0,0.0,0.0,0.0,0.0,0.0,0.0,0.0,0.0,0.0,0.0,0.0,0.0,0.0,0.0,0.0,-1.7624,-1.6458,-1.6637,-1.7026,0.0,-1.5182,-1.3332,-1.205,0.0,0.0,0.0,0.0,0.0,0.0,0.0,0.0,-1.1161,-1.2177,-1.3104,-1.4287,-1.4571,-1.4092,-1.2654,-1.1476,-1.018,-0.8732,-0.7623,-0.6851,-0.6433,-0.5214,0.0,0.0,0.0,0.0,0.0,0.0,0.0,0.0,0.0,0.0,0.0,0.0,0.0,0.0,0.0,0.0,0.0,0.0,0.0,0.0,0.0,0.0,0.0,0.0,0.0,0.0,0.0,0.0,0.0,-1.1069,-1.3315,-1.447,-1.5149,-1.5422,0.0,0.0,0.0,0.0,0.0,0.0,0.0,0.0,0.0,-2.1149,-2.224,-2.3305,-2.4359,-2.565,-2.6602,-2.7221,-2.7423,-2.758,-2.758,-2.707,-2.677,-2.6667,-2.6276,-2.5228,-2.371,-2.198,-1.9773,-1.751,0.0,0.0,0.0,0.0,0.0,-1.5589,-1.6,0.0,0.0,0.0,0.0,0.0,0.0,0.0,0.0,0.0,0.0,0.0,0.0,0.0,0.0,-1.7968,-1.7773,-1.7713,-1.7713,-1.6863,-1.576,0.0,-1.349,-1.241,-1.1147,0.0,0.0,0.0,0.0,0.0,-1.1702,-1.2776,-1.372,-1.4706,-1.4453,-1.384,-1.2891,-1.158,-1.0264,-0.898,-0.8342,-0.7661,-0.6831,-0.6091,-0.5012,0.0,0.0,0.0,0.0,0.0,0.0,0.0,0.0,0.0,0.0,0.0,0.0,0.0,0.0,0.0,0.0,0.0,0.0,0.0,0.0,0.0,0.0,0.0,0.0,0.0,0.0,0.0,0.0,-1.395,-1.6177,-1.7649,-1.8119,-1.82,0.0,0.0,0.0,0.0,0.0,0.0,-2.1944,-2.1972,-2.2633,-2.4168,-2.4902,-2.5881,-2.7118,-2.8401,-2.9178,-2.9424,-2.9588,-2.9465,-2.9123,-2.8311,-2.7969,-2.7913,-2.7476,-2.7009,-2.637,-2.4019,-2.1873,-2.0103,-2.0322,-1.9589,0.0,-1.9682,-1.9459,-1.8676,-1.8866,-1.8841,-1.8768,-1.8987,0.0,-1.7441,-1.788,0.0,0.0,0.0,0.0,-1.8529,-1.9039,0.0,-1.9211,-1.9211,-1.8685,-1.8207,-1.8207,-1.8072,-1.7536,0.0,-1.5123,-1.4083,-1.2802,0.0,0.0,0.0,0.0,-1.095,-1.2253,-1.3232,-1.4064,-1.4736,-1.4199,-1.36,-1.3104,-1.1536,-1.0174,-0.9212,-0.8837,-0.8162,-0.7095,-0.673,-0.577,-0.4098,0.0,0.0,0.0,0.0,0.0,0.0,0.0,0.0,0.0,0.0,0.0,0.0,0.0,0.0,0.0,0.0,0.0,0.0,0.0,0.0,0.0,0.0,0.0,0.0,0.0,0.0,0.0,0.0,0.0,-1.9603,-2.0942,0.0,0.0,0.0,0.0,-2.1836,-2.3133,-2.418,-2.4862,-2.5291,-2.5911,-2.67,-2.7682,-2.8657,-2.9607,-3.0398,-3.0637,-3.032,-2.997,-2.9612,-2.9287,-2.8846,-2.8665,-2.8665,-2.8622,-2.8593,-2.8404,-2.6442,-2.4471,-2.2757,-2.3412,-2.2875,-2.1844,-2.2475,-2.2671,-2.2461,-2.1264,-2.162,-2.2432,-2.1249,-2.0482,-1.9895,-1.9297,-1.8713,0.0,0.0,-1.9793,-2.0368,-2.0398,-2.0508,-2.0598,-2.0598,-2.0094,-1.9603,-1.9603,-1.9091,-1.809,0.0,-1.5808,-1.5396,-1.4113,0.0,0.0,-1.3715,-1.2656,-1.2283,-1.3642,-1.379,-1.4064,-1.4736,-1.4199,-1.3782,-1.3752,-1.1416,-0.992,-0.9854,-0.8656,-0.7885,-0.7753,-0.7072,-0.6249,-0.5325,-0.404,0.0,0.0,0.0,0.0,0.0,0.0,0.0,0.0,0.0,0.0,0.0,0.0,0.0,0.0,0.0,0.0,0.0,0.0,0.0,0.0,0.0,0.0,0.0,0.0,0.0,0.0,0.0,0.0,-2.2713,-2.3133,0.0,0.0,-2.478,-2.5269,-2.567,-2.6693,-2.7535,-2.8178,-2.8437,-2.8894,-2.9588,-2.9988,-3.0642,-3.1535,-3.2059,-3.2285,-3.2264,-3.1728,-3.1222,-3.0677,-2.9723,-2.929,-2.9261,-2.8855,-2.8709,-2.8651,-2.7953,-2.6765,-2.54,-2.5183,-2.4573,-2.3824,-2.4041,-2.4143,-2.4123,-2.3606,-2.3737,-2.3902,-2.2649,-2.2149,-2.187,-2.0805,-2.0387,-2.0318,-2.0553,-2.0868,-2.1144,-2.1144,-2.1238,-2.1231,-2.0793,-2.0509,-2.0228,-1.9798,-1.9513,-1.9019,-1.7881,-1.6998,-1.6263,-1.5827,-1.4878,-1.4272,-1.4472,-1.3725,-1.3445,-1.4358,-1.4451,-1.4706,-1.5365,-1.4453,-1.3797,-1.3797,-1.1764,-1.0479,-1.0479,-0.9263,-0.8513,-0.8451,-0.7694,-0.6948,-0.6253,-0.5215,-0.4211,0.0,0.0,0.0,0.0,0.0,0.0,0.0,0.0,0.0,0.0,0.0,0.0,0.0,0.0,0.0,0.0,0.0,0.0,0.0,0.0,0.0,0.0,0.0,0.0,0.0,0.0,-2.3408,-2.541,-2.578,-2.6234,-2.7212,-2.7592,-2.792,-2.828,-2.91,-2.9767,-3.0172,-3.0328,-3.0707,-3.1382,-3.1347,-3.1779,-3.2695,-3.3022,-3.3119,-3.3065,-3.2508,-3.1936,-3.1393,-3.0397,-2.9943,-2.9929,-2.9493,-2.9348,-2.9348,-2.9348,-2.8723,-2.7679,-2.7038,-2.6504,-2.6086,-2.5868,-2.581,-2.5778,-2.5288,-2.4984,-2.4655,-2.3815,-2.3464,-2.3198,-2.2374,-2.1973,-2.184,-2.184,-2.1987,-2.2111,-2.2111,-2.2072,-2.1939,-2.1485,-2.1036,-2.0569,-2.0124,-1.9872,-1.9573,-1.9121,-1.8132,-1.7234,-1.6771,-1.6009,-1.5366,-1.517,-1.4571,-1.4303,-1.4751,-1.4811,-1.4975,-1.5424,-1.4468,-1.3797,-1.3797,-1.1958,-1.0798,-1.0798,-0.9608,-0.8857,-0.8776,-0.825,-0.7554,-0.6655,-0.5641,-0.4635,-0.3631,0.0,0.0,0.0,0.0,0.0,0.0,0.0,0.0,0.0,0.0,0.0,0.0,0.0,0.0,0.0,0.0,0.0,0.0,0.0,0.0,0.0,0.0,0.0,-2.1825,-2.4527,-2.6791,-2.7466,-2.8807,-2.939,-2.864,-2.9288,-2.9716,-2.9599,-3.0297,-3.0797,-3.0853,-3.1005,-3.1353,-3.1987,-3.1768,-3.2084,-3.3069,-3.3203,-3.3038,-3.2559,-3.2104,-3.1695,-3.1278,-3.0807,-3.0598,-3.0598,-3.0598,-3.0598,-3.0598,-3.0598,-3.0205,-2.9566,-2.8956,-2.8723,-2.8636,-2.7942,-2.7695,-2.7492,-2.6257,-2.5415,-2.4868,-2.4853,-2.4457,-2.3972,-2.3958,-2.3447,-2.2917,-2.2917,-2.3105,-2.3297,-2.3297,-2.3027,-2.2718,-2.2703,-2.171,-2.0748,-2.0703,-2.0183,-1.9738,-1.9708,-1.9166,-1.8311,-1.6995,-1.6726,-1.6502,-1.5919,-1.526,0.0,-1.4826,-1.4826,-1.4826,-1.4826,-1.4214,-1.3797,-1.3797,-1.1958,-1.0812,-1.0827,-0.9638,-0.8878,-0.8777,-0.8735,-0.8025,-0.6553,-0.5308,-0.4498,-0.413,0.0,0.0,0.0,0.0,0.0,0.0,0.0,0.0,0.0,0.0,0.0,0.0,0.0,0.0,0.0,0.0,0.0,0.0,0.0,0.0,0.0,0.0,-2.523,-2.4497,-2.5892,-2.7387,-2.8458,-2.911,-2.9709,-3.0269,-3.0641,-3.099,-3.1296,-3.1709,-3.1936,-3.1952,-3.2358,-3.2594,-3.2587,-3.2323,-3.2307,-3.2605,-3.2633,-3.2453,-3.2104,-3.1766,-3.1422,-3.1058,-3.0747,-3.0598,-3.0598,-3.0598,-3.0598,-3.0598,-3.0598,-3.0496,-3.0248,-2.961,-2.9087,-2.8636,-2.7942,-2.7405,-2.6997,-2.6634,-2.6387,-2.617,-2.5676,-2.54,-2.5207,-2.4747,-2.4152,-2.363,-2.363,-2.3463,-2.3297,-2.3297,-2.3339,-2.3236,-2.2808,-2.2418,-2.1874,-2.0897,-2.0572,-2.0288,-1.9798,-1.9558,-1.9151,-1.8296,-1.7339,-1.6652,-1.6473,0.0,0.0,-1.5529,-1.5529,-1.5529,-1.5529,-1.4483,-1.3797,-1.3797,-1.1958,-1.1017,0.0,-1.0333,-0.9788,-1.0135,-0.9597,-0.8539,-0.6968,-0.6589,-0.5913,0.0,0.0,0.0,0.0,0.0,0.0,0.0,0.0,0.0,0.0,0.0,0.0,0.0,0.0,0.0,0.0,0.0,0.0,0.0,0.0,0.0,0.0,-2.6021,-2.7897,-2.7969,-2.8528,-2.9154,-2.9761,-3.0197,-3.0681,-3.1371,-3.1583,-3.1763,-3.1994,-3.2206,-3.2287,-3.2247,-3.2877,-3.3127,-3.2838,-3.2835,-3.2815,-3.2815,-3.2815,-3.2562,-3.2015,-3.1811,-3.1442,-3.0925,-3.0687,-3.0598,0.0,-3.0598,-3.0598,-3.0598,-3.0598,-3.0598,0.0,0.0,0.0,0.0,0.0,-2.7563,-2.6806,-2.6806,-2.6806,-2.6747,-2.6355,-2.6036,-2.5745,-2.5371,-2.4805,-2.4225,-2.3963,-2.3777,-2.3561,-2.3297,-2.3385,-2.3455,-2.3118,-2.2862,-2.2493,-2.1695,-2.1111,-2.0583,-2.0198,0.0,0.0,-1.9181,-1.8237,-1.7428,-1.716,-1.6577,-1.6189,0.0,-1.5964,-1.5799,-1.5799,-1.4856,-1.4109,-1.3812,-1.2467,0.0,0.0,0.0,-1.0386,-1.0657,-0.9826,0.0,0.0,0.0,0.0,0.0,0.0,0.0,0.0,-0.5527,-0.594,0.0,0.0,0.0,0.0,0.0,0.0,0.0,0.0,0.0,0.0,0.0,0.0,0.0,0.0,0.0,0.0,-2.8383,-3.0029,-3.1436,-3.1524,-3.1343,-3.1101,-3.1546,-3.1894,-3.1925,-3.2107,-3.2193,-3.2131,-3.2257,-3.2287,-3.2209,0.0,0.0,0.0,0.0,-3.33,-3.33,-3.3225,-3.2837,-3.2122,-3.1928,-3.1469,-3.0762,-3.0642,-3.0598,-3.0598,-3.0598,-3.0598,-3.0598,-3.0598,-3.0598,-3.0598,-3.0598,-3.0554,-3.0351,-2.9145,-2.7953,0.0,0.0,0.0,0.0,-2.6806,-2.6413,-2.5919,-2.5919,-2.5444,-2.4795,-2.4254,-2.4101,-2.3961,-2.3368,-2.3364,-2.3509,-2.3509,-2.3127,-2.2778,-2.2703,-2.1695,-2.0778,-2.0703,-2.0154,-1.9708,-1.9708,-1.9136,-1.8508,-1.7908,-1.7234,0.0,-1.6711,-1.6234,-1.5888,-1.5814,0.0,0.0,-1.3961,-1.3298,-1.2654,-1.2059,-1.139,-1.0921,-1.0697,-0.9875,-0.9577,-0.9889,-0.9252,-0.8548,-0.78,-0.7874,-0.7379,-0.6414,-0.7414,-0.7205,0.0,0.0,0.0,0.0,0.0,0.0,0.0,0.0,0.0,0.0,0.0,0.0,0.0,0.0,0.0,-2.7922,-3.0096,-3.1583,-3.1732,-3.2021,-3.2032,-3.16,-3.1563,-3.1566,-3.161,-3.2064,-3.2504,-3.2784,-3.297,-3.3156,-3.3366,-3.3367,0.0,-3.2983,-3.2788,-3.2672,-3.2672,-3.2132,-3.1797,-3.1635,0.0,0.0,-3.0642,-3.0598,-3.0598,-3.0598,-3.0598,-3.0598,-3.0598,-3.0598,-3.0598,-3.0598,-3.0598,-3.0263,-2.9711,-2.8956,-2.8202,-2.7449,-2.6968,-2.6806,-2.6806,-2.6806,-2.6718,-2.6617,-2.6617,-2.6152,0.0,-2.5483,-2.4786,-2.4063,-2.3931,-2.3688,-2.3509,-2.3509,-2.3455,-2.3281,-2.2808,-2.2054,-2.135,-2.0793,-2.0154,-1.9708,-1.9708,-1.9136,-1.8657,-1.8538,-1.7938,-1.7309,-1.6771,-1.6607,-1.6338,-1.5858,-1.52,-1.4751,-1.4631,-1.3989,-1.3555,-1.3423,-1.273,-1.2003,-1.1289,-1.1026,-1.0559,-0.9837,-0.9679,-0.9212,-0.8435,-0.8913,-0.9042,-0.8804,-0.7638,-0.6712,0.0,0.0,0.0,0.0,0.0,0.0,0.0,0.0,0.0,0.0,0.0,-2.3046,-2.4715,0.0,-2.8128,-2.9778,-3.1221,-3.2149,-3.2193,-3.2319,-3.2231,-3.1768,-3.1437,-3.1321,-3.148,-3.2184,-3.2676,-3.2836,-3.3241,-3.3486,-3.344,-3.3597,-3.3556,-3.3348,-3.3427,-3.347,-3.347,-3.3137,-3.2643,-3.1988,-3.17,-3.1206,-3.0598,-3.0598,-3.0598,-3.0598,-3.0598,-3.0598,-3.0598,-3.0598,-3.0598,-3.0598,-3.0598,-3.019,-2.9552,-2.9261,-2.8522,-2.7666,-2.736,-2.7041,-2.6806,-2.6806,-2.6806,-2.6806,-2.6806,-2.6573,-2.6239,-2.5905,-2.5159,-2.4407,-2.4087,-2.3655,-2.3305,-2.3305,-2.3385,-2.3383,-2.3071,-2.2254,-2.1446,-2.1119,-2.028,-1.965,-1.965,-1.9403,-1.9196,-1.9196,-1.8627,-1.7968,-1.7294,-1.6905,-1.6458,-1.5858,-1.5499,-1.5155,-1.4826,-1.4199,-1.366,-1.3316,-1.2909,-1.2352,-1.153,-1.1407,-1.1036,-1.0359,-1.028,-0.9983,-0.9452,-0.9486,-0.9498,-0.9472,-0.8296,-0.775,0.0,0.0,0.0,0.0,0.0,0.0,0.0,0.0,-2.1431,-2.3687,-2.5134,-2.6428,-2.796,-2.8905,-2.9909,-3.1235,-3.1925,-3.2337,-3.2497,-3.2382,-3.2148,-3.1682,-3.1204,-3.1029,-3.135,-3.2091,-3.2615,-3.2781,-3.3322,-3.3605,-3.3532,-3.3827,-3.3958,-3.3846,-3.4205,-3.4414,-3.4414,-3.4283,-3.3645,-3.2481,-3.235,-3.1714,-3.0598,-3.0598,-3.0598,-3.0598,-3.0598,-3.0598,-3.0598,-3.0598,-3.0598,-3.0598,-3.0598,-3.0263,-2.9798,-2.9639,-2.887,-2.7869,-2.7753,-2.7316,-2.6806,-2.6806,-2.6806,-2.6806,-2.6806,-2.6806,-2.6704,-2.6152,-2.5444,-2.4762,-2.421,-2.3583,-2.3105,-2.3105,-2.3201,-2.3297,-2.3297,-2.2309,-2.1403,-2.1403,-2.0438,-1.9593,-1.9593,-1.965,-1.9708,-1.9708,-1.9226,-1.8612,-1.7803,-1.7234,-1.6622,-1.5888,-1.5799,-1.5574,-1.5035,-1.4498,-1.384,-1.3044,-1.2936,-1.252,-1.1667,-1.1508,-1.127,-1.0944,-1.0801,-1.0597,-1.0299,-0.9985,-0.9825,-0.9825,-0.9437,-0.9281,-1.466,-1.654,-1.9156,-2.0504,-2.1219,-2.1873,0.0,0.0,-2.4246,-2.5211,-2.6988,-2.847,-2.8671,-2.9701,-3.0688,-3.1167,-3.1971,-3.2482,-3.2259,-3.2092,-3.1794,-3.1394,-3.0925,-3.0702,-3.0851,-3.1337,-3.2079,-3.3167,-3.3363,-3.3807,-3.464,-3.4489,-3.4346,-3.4298,-3.437,-3.4414,-3.4414,-3.3862,-3.3224,-3.2481,-3.1886,-3.1264,-3.0598,-3.0598,-3.0598,-3.0598,-3.0598,-3.0598,-3.0598,-3.0598,-3.0598,-3.0598,-3.0598,-3.0554,-3.0423,-2.9813,-2.9174,-2.8492,-2.7898,-2.7316,-2.6806,-2.6806,-2.6806,-2.6806,-2.6806,-2.6806,-2.6765,-2.6718,-2.5792,-2.4795,-2.4723,-2.3917,-2.3105,-2.3105,-2.3201,-2.3297,-2.3297,-2.2309,-2.1403,-2.1403,-2.0438,-1.9593,-1.9593,-1.965,-1.9708,-1.9708,-1.9648,-1.9121,-1.7863,-1.7623,-1.713,-1.5933,-1.5799,-1.5769,-1.5694,-1.5619,-1.5035,-1.378,-1.3677,-1.3109,-1.1828,-1.1648,-1.1415,-1.1085,-1.0944,-1.0681,-1.0299,-1.0769,-1.1004,-1.1017,-1.1435,-1.0573,-1.9457,-2.0627,-2.2259,-2.3948,-2.4832,-2.5462,-2.6193,-2.6599,-2.7101,-2.8133,-2.9077,-2.9831,-3.018,-3.0745,-3.1204,0.0,-3.2005,-3.2342,-3.1966,-3.1781,-3.1537,-3.1175,-3.0807,-3.0642,-3.0791,-3.1427,-3.205,-3.2507,-3.3278,-3.3881,-3.42,-3.433,-3.4414,-3.4414,-3.4414,-3.4414,-3.4414,-3.4153,-3.3514,-3.2481,-3.2237,-3.1555,-3.0598,-3.0598,-3.0598,-3.0598,-3.0598,-3.0598,-3.0598,-3.0598,-3.0598,-3.0598,-3.0598,-3.0598,-3.0569,-3.0277,-2.9537,-2.8665,-2.8376,-2.7621,-2.6806,-2.6806,-2.6806,-2.6806,-2.6806,-2.6806,-2.6806,-2.6806,-2.5836,-2.481,-2.481,-2.3891,-2.2992,-2.2992,-2.3023,-2.3068,-2.3068,-2.2082,-2.1176,-2.1176,-2.0235,-1.9431,-1.9431,-1.9487,-1.9541,-1.9541,-1.9617,-1.9211,-1.7878,-1.7713,-1.7205,-1.5948,-1.5799,-1.5799,-1.5799,-1.5799,-1.5395,-1.4438,-1.4378,-1.3959,-1.3002,-1.2838,-1.2567,-1.2153,-1.2011,-1.1736,-1.129,-1.1538,-1.1669,-1.1669,-1.1903,-1.1499,-2.2681,-2.3725,-2.4957,-2.651,-2.757,-2.8306,-2.8753,-2.8954,-2.9316,-3.0188,-3.0367,-3.0575,-3.1217,-3.1245,-3.1256,-3.1465,-3.1894,-3.2064,-3.1653,-3.1466,-3.1263,-3.097,-3.0747,-3.0642,-3.0732,-3.1306,-3.1748,-3.1865,-3.2761,-3.3314,-3.3375,-3.3696,-3.3891,-3.3891,-3.3891,-3.3891,-3.3891,-3.3891,-3.334,-3.2205,-3.2205,-3.1656,-3.0598,-3.0598,-3.0598,-3.0598,-3.0598,-3.0598,-3.0598,-3.0598,-3.0598,-3.0598,-3.0598,-3.0598,-3.0598,-3.0598,-2.9915,-2.8913,-2.8767,-2.7955,-2.7012,-2.6837,-2.6806,-2.6806,-2.6806,-2.6806,-2.6806,-2.6806,-2.5966,-2.5027,-2.4853,-2.3998,-2.3128,-2.2931,-2.2888,-2.2888,-2.2888,-2.204,-2.122,-2.1032,-2.0216,-1.9489,-1.9332,-1.9358,-1.9395,-1.9395,-1.9508,-1.9155,-1.7812,-1.7352,-1.6771,-1.5889,-1.5799,-1.5799,-1.5799,-1.5799,-1.5514,-1.4841,-1.4811,-1.4498,-1.3827,-1.3668,-1.3381,-1.2912,-1.2775,-1.2468,-1.2007,-1.2164,-1.2164,-1.2007,-1.2164,-1.2242,-2.2157,-2.4567,-2.7,-2.7762,-2.8956,-2.9928,-2.9943,-3.0259,-3.0535,-3.0507,-3.0382,-3.0549,-3.1347,-3.0858,-3.0578,-3.1362,-3.1625,-3.1625,-3.1336,-3.1161,-3.097,-3.0821,-3.0687,-3.0598,0.0,-3.0627,-3.0888,-3.1467,-3.1555,-3.1859,-3.2513,-3.2571,-3.2539,-3.2539,-3.2539,-3.2539,-3.2539,-3.2539,-3.2191,-3.1524,-3.1524,-3.1206,-3.0598,-3.0598,-3.0598,-3.0598,-3.0598,-3.0598,-3.0598,-3.0598,-3.0598,-3.0598,-3.0598,-3.0598,-3.0598,-3.0598,-3.0161,-2.9479,-2.8884,-2.8245,-2.7579,-2.6982,-2.6806,-2.6806,-2.6806,-2.6806,-2.6806,-2.6806,-2.6312,-2.5618,-2.4969,-2.4331,-2.3702,-2.3055,-2.2888,-2.2888,-2.2888,-2.2403,-2.1772,-2.1119,-2.0546,-1.9996,-1.9405,-1.9358,-1.9395,-1.9395,-1.9413,-1.8956,-1.7676,-1.6439,-1.5698,-1.5784,-1.5799,-1.5799,-1.5799,-1.5799,-1.5514,-1.4841,-1.4811,-1.4498,-1.3827,-1.3668,-1.3381,-1.2912,-1.2775,-1.2468,-1.2007,-1.2598,-1.2572,-1.202,-1.2598,-1.2875,-2.5099,-2.7043,-2.882,-2.9971,-3.0871,-3.1529,-3.1796,-3.182,-3.1607,-3.0903,-3.0273,-2.9884,-3.0012,-2.9918,-3.0033,-3.062,-3.1197,-3.1466,-3.1146,-3.0896,-3.0717,-3.0657,-3.0642,0.0,0.0,0.0,0.0,-3.0872,-3.1279,-3.1582,-3.1814,-3.2249,-3.2481,-3.2481,-3.2481,-3.2481,-3.2481,-3.2481,-3.2147,-3.1495,-3.109,-3.0816,-3.0598,-3.0598,-3.0598,-3.0598,-3.0598,-3.0598,-3.0598,-3.0598,-3.0598,-3.0598,-3.0598,-3.0598,-3.0598,-3.0598,-3.0467,-3.0103,-2.9072,-2.826,-2.7594,-2.6997,-2.6806,-2.6806,-2.6806,-2.6806,-2.6806,-2.6806,-2.6326,-2.5734,-2.5517,-2.4689,-2.3833,-2.3615,-2.3229,-2.2888,-2.2888,-2.2432,-2.1801,-2.1133,-2.0529,-1.9943,-1.9274,-1.9176,-1.9063,-1.8655,-1.8338,-1.8,-1.7626,-1.6425,-1.5653,-1.5784,-1.5799,-1.5799,-1.5799,-1.5799,-1.5709,-1.5484,-1.5369,-1.5208,-1.4944,-1.476,-1.4442,-1.3969,-1.383,-1.3581,-1.32,-1.3399,-1.3203,-1.2598,-1.2823,-1.269,-2.702,-2.8779,-3.0422,-3.1388,-3.2149,-3.2655,-3.261,-3.2364,-3.1759,-3.0273,-2.9433,-2.8835,-2.8416,-2.855,-2.8982,-2.9752,-3.049,-3.0995,-3.0955,-3.0747,-3.0598,-3.0598,-3.0598,-3.0598,0.0,0.0,0.0,-3.0598,-3.0945,-3.1177,-3.1177,-3.1598,-3.183,-3.183,-3.183,-3.183,-3.183,-3.183,-3.1598,-3.1177,-3.0801,-3.0598,-3.0598,-3.0598,-3.0598,-3.0598,-3.0598,-3.0598,-3.0598,-3.0598,-3.0598,-3.0598,-3.0598,-3.0598,-3.0598,-3.0598,-3.0598,-3.0423,-2.9145,-2.8405,-2.7926,-2.707,-2.6806,-2.6806,-2.6806,-2.6806,-2.6806,-2.6806,-2.65,-2.6108,-2.585,-2.5048,-2.4196,-2.3972,-2.3374,-2.2888,-2.2888,-2.2606,-2.2062,-2.1162,-2.0683,-2.0132,-1.9261,-1.9101,-1.897,-1.8579,-1.8089,-1.7607,-1.722,-1.6422,-1.5847,-1.5741,-1.5741,-1.5741,-1.5741,-1.5741,-1.5726,-1.5682,-1.558,-1.5448,-1.5329,-1.5148,-1.4841,-1.4358,-1.4273,-1.4092,-1.3804,-1.3804,-1.349,-1.2902,-1.2902,-1.269,-2.7951,-2.9843,-3.1753,-3.2102,-3.2855,-3.3312,-3.2453,-3.2007,-3.1155,-2.8793,-2.796,-2.7438,-2.6632,0.0,-2.7502,-2.8832,-2.9628,-3.0249,-3.0733,-3.0672,-3.0612,0.0,0.0,0.0,0.0,0.0,0.0,-3.0699,0.0,-3.067,-3.0699,-3.067,-3.0656,-3.0656,-3.0627,-3.0598,-3.0598,-3.0598,-3.0598,-3.0598,-3.0598,-3.0598,-3.0598,-3.0598,-3.0598,-3.0598,-3.0598,-3.0598,-3.0598,-3.0598,-3.0598,-3.0598,-3.0598,-3.0598,-3.0598,-3.0598,-3.0598,-3.0423,-2.9188,-2.8738,-2.8505,-2.7244,-2.6849,-2.6806,-2.6806,-2.6806,-2.6806,-2.6806,-2.6806,-2.6634,-2.6021,-2.5371,-2.4733,-2.4094,-2.3403,-2.2888,-2.2888,-2.2888,-2.2533,-2.1249,-2.0944,-2.0524,-1.9304,-1.9101,-1.9101,-1.9101,-1.8622,-1.783,-1.6645,-1.6442,-1.6212,-1.5699,-1.561,-1.5595,-1.5595,-1.5595,-1.5566,-1.5477,-1.5358,-1.5193,-1.4968,-1.4842,-1.4545,-1.4098,-1.4098,-1.3997,-1.3804,-1.3804,-1.349,-1.2902,-1.2902,-1.2888,-3.0176,-3.1701,-3.284,-3.3087,-3.354,-3.3772,-3.3054,-3.2401,-3.1254,-2.8744,-2.7036,-2.5824,-2.5235,-2.528,0.0,-2.7761,-2.9012,0.0,-3.057,-3.0612,0.0,-3.1221,0.0,-3.1482,-3.1975,-3.2019,0.0,0.0,-3.1555,-3.1496,-3.2004,-3.154,-3.1279,-3.1279,-3.0814,-3.0598,-3.0598,-3.0598,-3.0598,-3.0598,-3.0598,-3.0598,-3.0598,-3.0598,-3.0598,-3.0598,-3.0598,-3.0598,-3.0598,-3.0598,-3.0598,-3.0598,-3.0598,-3.0598,-3.0598,-3.0598,-3.0598,-3.0481,-2.9668,-2.9073,-2.855,-2.7752,-2.7171,-2.6806,-2.6806,-2.6806,-2.6806,-2.6806,-2.6806,-2.6762,-2.6602,-2.5745,-2.4834,-2.4621,-2.3722,-2.2888,-2.2888,-2.2888,-2.2533,-2.1249,-2.0233,-1.9478,-1.9159,-1.9101,-1.9101,-1.9101,-1.897,-1.863,-1.7902,-1.6983,-1.6388,-1.6351,-1.5847,-1.5551,-1.5595,-1.5507,-1.5418,-1.5358,-1.5118,-1.489,-1.4643,-1.439,-1.4176,-1.3957,-1.3894,-1.3858,-1.3804,-1.3804,-1.349,-1.2902,-1.2902,-1.2664,-3.1524,-3.2588,-3.3403,-3.3617,-3.3673,-3.3388,-3.2336,-3.1239,-2.9669,-2.6809,-2.5015,-2.3733,-2.2951,-2.3208,0.0,0.0,0.0,0.0,-3.0031,-3.064,-3.1119,0.0,-3.1741,0.0,-3.2452,-3.2481,-3.2629,0.0,-3.2324,-3.2089,-3.2466,-3.1857,-3.1495,-3.1495,-3.0901,-3.0598,-3.0598,-3.0598,-3.0598,-3.0598,-3.0598,-3.0598,-3.0598,-3.0598,-3.0598,-3.0598,0.0,-3.0598,-3.0598,-3.0598,-3.0598,-3.0598,-3.0598,-3.0598,-3.0598,-3.0598,-3.0598,-3.0554,-3.0161,-2.9624,-2.8942,-2.8,-2.7463,-2.7157,-2.6866,-2.6806,-2.6806,-2.6806,-2.6806,-2.6806,-2.6806,-2.5836,-2.4878,-2.4824,-2.3815,-2.2888,-2.2888,-2.2888,-2.2533,-2.1249,-2.0204,-1.9449,-1.9159,-1.9101,-1.9101,-1.9101,-1.9101,-1.8989,-1.8695,-1.7792,-1.7011,-1.6568,-1.6139,-1.5786,-1.5536,-1.5388,-1.5239,-1.5086,-1.4796,-1.4483,-1.4165,-1.3983,-1.3815,-1.3691,-1.3695,-1.3711,-1.3711,-1.3758,-1.3634,-1.3294,-1.3294,-1.3079,-3.2431,-3.3051,-3.3633,-3.3873,-3.3524,-3.2668,-3.1015,-2.938,-2.728,-2.4069,0.0,-2.1368,-2.0395,-2.1055,-2.2367,-2.4244,0.0,-2.8029,-2.9291,-3.0639,-3.1524,-3.1611,-3.2237,-3.264,-3.2727,-3.2742,-3.2991,-3.359,-3.3006,-3.2687,-3.2759,-3.2135,-3.1669,-3.1526,-3.0988,-3.0685,-3.0598,-3.0598,-3.0598,-3.0598,-3.0598,-3.0598,-3.0598,-3.0598,-3.0598,-3.0598,0.0,0.0,-3.0598,-3.0598,-3.0598,-3.0598,-3.0598,-3.0598,-3.0598,-3.0598,-3.0598,-3.0598,-3.0598,-3.0219,-2.9523,-2.8333,-2.784,-2.7594,-2.7084,-2.6852,-2.6806,-2.6806,-2.6806,-2.6806,-2.6806,-2.5836,-2.4878,-2.4824,-2.3815,-2.2888,-2.2888,-2.283,-2.2432,-2.1235,-2.0509,-1.9885,-1.9217,-1.9101,-1.9101,-1.9101,-1.9101,-1.9101,-1.9101,-1.8579,-1.7801,-1.6748,-1.647,-1.6149,-1.5579,-1.5312,-1.504,-1.4779,-1.4447,-1.4092,-1.3698,-1.3615,-1.3552,-1.3522,-1.3552,-1.362,-1.3714,-1.3764,-1.3788,-1.3804,-1.3804,-1.3741,-3.3636,-3.3903,-3.4,-3.405,-3.3582,-3.2522,-3.0302,-2.8153,0.0,0.0,-2.0487,-1.9256,-1.8836,-1.967,-2.1025,-2.2917,-2.5342,-2.7389,-2.8666,-3.0393,-3.1698,0.0,0.0,0.0,0.0,0.0,0.0,0.0,0.0,0.0,-3.4051,-3.3485,-3.2643,-3.1524,-3.1409,-3.1105,-3.0598,-3.0598,-3.0598,-3.0598,-3.0598,-3.0598,-3.0598,-3.0598,-3.0598,-3.0598,0.0,0.0,-3.0598,-3.0598,-3.0598,-3.0598,-3.0598,-3.0598,-3.0598,-3.0598,-3.0598,-3.0598,-3.0598,-3.0525,-3.0292,-2.9508,-2.8565,-2.7681,-2.7579,-2.72,-2.6806,-2.6806,-2.6806,-2.6806,-2.6806,-2.5836,-2.4878,-2.4824,-2.3815,-2.2888,-2.2888,-2.2504,-2.1931,-2.1148,-2.0509,-1.9885,-1.9217,-1.9101,-1.9101,-1.9101,-1.9101,-1.9101,-1.9101,-1.8579,-1.815,-1.799,-1.6932,-1.6231,-1.6237,-1.5449,-1.4841,-1.4578,-1.4243,-1.3898,-1.3547,-1.3476,-1.3624,-1.4047,-1.3637,-1.3723,-1.4335,-1.3861,-1.3695,-1.3804,-1.3804,-1.3788,-3.3944,-3.3949,-3.3818,-3.3448,-3.2546,-3.1148,-2.8818,0.0,0.0,0.0,-1.9061,-1.7662,-1.7848,-1.8279,0.0,-2.1127,-2.3615,-2.5861,-2.7488,-2.9624,0.0,0.0,0.0,0.0,0.0,0.0,0.0,0.0,0.0,0.0,-3.4385,-3.3819,-3.2908,-3.1524,-3.1495,-3.1221,-3.0612,-3.0598,-3.0598,-3.0598,-3.0598,-3.0598,-3.0598,-3.0598,-3.0598,-3.0598,0.0,0.0,-3.0598,-3.0598,-3.0598,-3.0598,-3.0598,-3.0598,-3.0598,-3.0598,-3.0598,-3.0598,-3.0598,-3.0598,-3.0554,-3.0219,-2.9261,-2.8158,-2.7797,-2.7287,-2.6806,-2.6806,-2.6806,-2.6806,-2.6806,-2.6094,-2.527,-2.4897,-2.3815,-2.2888,-2.2888,-2.2678,-2.2272,-2.1641,-2.1003,-2.0364,-1.9725,-1.9333,-1.9101,-1.9101,-1.9101,-1.9101,-1.9101,-1.8813,-1.8528,-1.8269,-1.7638,-1.6984,-1.6348,-1.5684,-1.5053,-1.4431,-1.4078,-1.3728,-1.3357,-1.3601,-1.3879,-1.4127,-1.4207,-1.4414,-1.4756,-1.4554,-1.448,-1.4534,-1.4552,-1.4552,-3.3866,-3.3745,-3.3441,-3.2739,-3.1469,-2.9757,-2.7326,-2.4536,0.0,-1.9991,-1.7819,-1.6389,-1.6853,-1.6976,-1.7592,-1.9406,-2.183,-2.4152,-2.6097,-2.8681,-3.08,0.0,0.0,0.0,0.0,0.0,0.0,0.0,0.0,0.0,0.0,-3.3935,-3.3079,-3.1741,-3.1698,-3.1366,-3.0612,-3.0598,-3.0598,-3.0598,-3.0598,-3.0598,-3.0598,-3.0598,-3.0598,-3.0598,0.0,0.0,0.0,-3.0598,-3.0598,-3.0598,-3.0598,-3.0598,-3.0598,-3.0598,-3.0598,-3.0598,-3.0598,-3.0598,-3.0598,-3.0598,-2.974,-2.8607,-2.8086,-2.7389,-2.6806,-2.6806,-2.6806,-2.6806,-2.6806,-2.6312,-2.5589,-2.4795,-2.3838,-2.3084,-2.2917,-2.2888,-2.2722,-2.212,-2.1569,-2.0973,-2.0233,-1.9667,-1.9275,-1.9116,-1.9101,-1.9101,-1.9101,-1.9021,-1.8773,-1.8321,-1.8166,-1.7661,-1.6574,-1.6078,-1.5463,-1.4644,-1.4311,-1.3951,-1.3584,-1.4016,-1.4343,-1.4437,-1.4809,-1.5043,-1.5177,-1.5152,-1.5159,-1.521,-1.5248,-1.5254,-3.3636,-3.3481,-3.3066,-3.2341,-3.1085,-2.9289,-2.6414,0.0,-2.0938,-1.8514,-1.6615,-1.543,-1.5472,-1.5937,-1.675,-1.8158,-2.0509,-2.2831,-2.4723,-2.7695,-2.9972,0.0,0.0,0.0,0.0,0.0,0.0,0.0,0.0,0.0,0.0,-3.4356,-3.3746,-3.2469,-3.2394,-3.183,-3.0612,-3.0598,-3.0598,-3.0598,-3.0598,-3.0598,-3.0598,-3.0598,-3.0598,-3.0598,0.0,0.0,0.0,-3.0598,-3.0598,-3.0598,-3.0598,-3.0598,-3.0598,-3.0598,-3.0598,-3.0598,-3.0598,-3.0598,-3.0598,-3.0598,-2.974,-2.8694,-2.8636,-2.7764,-2.6806,-2.6806,-2.6806,-2.6806,-2.6806,-2.6312,-2.5473,-2.4268,-2.3891,-2.3644,-2.3018,-2.2888,-2.2722,-2.212,-2.1946,-2.1511,-2.0306,-2.0045,-1.9798,-1.9188,-1.9101,-1.9101,-1.9101,-1.895,-1.8731,-1.8487,-1.8049,-1.7648,-1.7412,-1.6641,-1.5978,-1.5603,-1.5309,-1.5042,-1.4765,-1.4796,-1.5047,-1.553,-1.5142,-1.5174,-1.5739,-1.5253,-1.5069,-1.521,-1.521,-1.5248,-3.2455,-3.264,-3.2458,-3.1358,-2.9987,-2.8193,-2.5392,-2.2628,-2.0091,-1.8093,-1.6404,-1.5298,-1.5298,-1.5502,-1.595,-1.6849,-1.884,-2.0915,-2.2823,-2.5546,-2.7984,0.0,0.0,0.0,0.0,0.0,0.0,0.0,0.0,0.0,0.0,-3.3848,-3.3253,-3.1961,-3.1886,-3.1482,-3.0612,-3.0598,-3.0598,-3.0598,-3.0598,-3.0598,-3.0598,-3.0598,-3.0598,-3.0598,0.0,0.0,0.0,-3.0598,-3.0598,-3.0598,-3.0598,-3.0598,-3.0598,-3.0598,-3.0598,-3.0598,-3.0598,-3.0598,-3.0598,-3.0598,-2.974,-2.8709,-2.8709,-2.7823,-2.6806,-2.6806,-2.6806,-2.6806,-2.6806,-2.6312,-2.556,-2.465,-2.4095,-2.3585,-2.2859,-2.2729,-2.2657,-2.2398,-2.2097,-2.1744,-2.1315,-2.0541,-1.9888,-1.9584,-1.9132,-1.8831,-1.8755,-1.8562,-1.8352,-1.8088,-1.8032,-1.776,-1.7196,-1.671,-1.6182,-1.5554,-1.5297,-1.5101,-1.4916,-1.5211,-1.5467,-1.5693,-1.5806,-1.599,-1.6225,-1.6011,-1.5931,-1.5972,-1.6079,-1.612,-3.0835,-3.1274,-3.1243,-2.9846,-2.8438,-2.6701,-2.4013,-2.1481,-1.9243,-1.7604,-1.6225,-1.5298,-1.5298,-1.5298,-1.5501,-1.6111,-1.7679,-1.9508,-2.1423,-2.3731,0.0,0.0,0.0,0.0,0.0,0.0,0.0,0.0,0.0,0.0,0.0,-3.289,-3.2469,-3.1524,-3.1495,-3.1221,-3.0612,-3.0598,-3.0598,-3.0598,-3.0598,-3.0598,-3.0598,-3.0598,-3.0598,0.0,0.0,0.0,0.0,-3.0598,-3.0598,-3.0598,-3.0598,-3.0598,-3.0598,-3.0598,-3.0598,-3.0598,-3.0598,-3.0598,-3.0598,-3.0598,-2.974,-2.8709,-2.8709,-2.7823,-2.6806,-2.6806,-2.6806,-2.6806,-2.6806,-2.6457,-2.5879,-2.5013,-2.4356,-2.3665,-2.2694,-2.2486,-2.2486,-2.2486,-2.2257,-2.2032,-2.1997,-2.1095,-2.0251,-1.9737,-1.9205,-1.8675,-1.8355,-1.8129,-1.7895,-1.7659,-1.7733,-1.7592,-1.7042,-1.6824,-1.6474,-1.588,-1.5671,-1.5513,-1.5387,-1.5731,-1.5856,-1.5693,-1.607,-1.6195,-1.6032,-1.6032,-1.6032,-1.6032,-1.6128,-1.6271,-2.8853,-2.9372,-2.9289,-2.7801,-2.646,-2.4828,-2.215,-2.0124,-1.838,-1.6824,-1.5871,-1.5298,-1.5298,-1.5298,-1.5501,-1.6111,-1.7345,-1.8869,-2.0741,-2.2686,0.0,0.0,0.0,0.0,0.0,0.0,0.0,0.0,0.0,0.0,0.0,0.0,-3.1495,-3.1495,-3.1495,-3.1221,-3.0612,-3.0598,-3.0598,-3.0598,-3.0598,-3.0598,-3.0598,-3.0598,0.0,0.0,0.0,0.0,0.0,-3.0598,-3.0598,-3.0598,-3.0598,-3.0598,-3.0598,-3.0598,-3.0598,-3.0598,-3.0598,-3.0598,-3.0598,-3.0598,-2.974,-2.8709,-2.8709,-2.7823,-2.6806,-2.6806,-2.6806,-2.6806,-2.6806,-2.6779,-2.6445,-2.5114,-2.4653,-2.4063,-2.2546,-2.2208,-2.2208,-2.2208,-2.2417,-2.2483,-2.2062,-2.178,-2.1097,-1.9612,-1.9218,-1.8783,-1.7909,-1.7639,-1.7434,-1.724,-1.7044,-1.6981,-1.7186,-1.7073,-1.6968,-1.6884,-1.6757,-1.6629,-1.6488,-1.6488,-1.6237,-1.5706,-1.5706,-1.5449,-1.4928,-1.4928,-1.4928,-1.4928,-1.4928,-1.527,-2.5755,-2.6942,-2.7535,-2.5734,-2.4932,-2.3837,-2.0823,-1.8978,-1.7627,-1.6639,-1.5461,-1.4761,-1.5211,-1.5298,-1.5356,-1.5544,-1.6661,-1.8027,-1.9493,0.0,0.0,0.0,0.0,0.0,0.0,0.0,0.0,0.0,0.0,0.0,0.0,0.0,-3.1322,-3.0887,-3.0872,-3.0801,-3.0598,-3.0598,-3.0598,-3.0598,-3.0598,-3.0598,-3.0598,-3.0598,0.0,0.0,0.0,0.0,0.0,-3.0598,-3.0598,-3.0598,-3.0598,-3.0598,-3.0598,-3.0598,-3.0598,-3.0598,-3.0598,-3.0598,-3.0598,-3.0598,-2.974,-2.8709,-2.8709,-2.7823,-2.6753,-2.6525,-2.6459,-2.6474,-2.6445,-2.6459,-2.6131,-2.4894,-2.4344,-2.3641,-2.2021,-2.1664,-2.1664,-2.1664,-2.1864,-2.2067,-2.2138,-2.1561,-2.0907,-2.0237,-1.9583,-1.9016,-1.8614,-1.8101,-1.7722,-1.7561,-1.7063,-1.6748,-1.6735,-1.6693,-1.665,-1.6629,-1.6586,-1.6543,-1.65,-1.65,-1.6412,-1.6237,-1.6258,-1.617,-1.5994,-1.5994,-1.5994,-1.5994,-1.5994,-1.617,-2.2425,-2.3827,-2.4532,-2.3069,-2.249,-2.1559,-1.8873,-1.7432,-1.6401,-1.5461,-1.4747,-1.4428,-1.4848,-1.5124,-1.5298,-1.5298,-1.6371,-1.7737,0.0,0.0,0.0,0.0,0.0,0.0,0.0,0.0,0.0,0.0,0.0,0.0,0.0,0.0,-3.0988,-3.0612,-3.0598,-3.0598,-3.0598,-3.0598,-3.0598,-3.0598,-3.0598,-3.0598,-3.0598,0.0,0.0,0.0,0.0,0.0,0.0,-3.0598,-3.0598,-3.0598,-3.0598,-3.0598,-3.0598,-3.0507,-3.0447,-3.0401,-3.0312,-3.0266,-3.0219,-3.0219,-2.9358,-2.8268,-2.8039,-2.7332,-2.6539,-2.6231,-2.615,-2.6138,-2.615,-2.615,-2.5852,-2.4628,-2.4002,-2.3197,-2.1471,-2.1093,-2.1093,-2.1093,-2.1299,-2.1589,-2.1851,-2.1368,-2.0772,-2.0298,-1.9694,-1.9113,-1.8699,-1.8259,-1.7907,-1.7613,-1.7216,-1.6838,-1.6534,-1.65,-1.65,-1.65,-1.65,-1.65,-1.65,-1.65,-1.64,-1.6187,-1.6208,-1.6208,-1.6208,-1.6208,-1.6095,-1.5906,-1.63,-1.6543,0.0,-2.0262,-2.0669,-2.0103,-1.9464,-1.8462,-1.6518,-1.5603,0.0,-1.3699,-1.3889,-1.4254,-1.4355,-1.4906,-1.5356,-1.5356,-1.6458,-1.7998,0.0,0.0,0.0,0.0,0.0,0.0,0.0,0.0,0.0,0.0,0.0,0.0,0.0,0.0,0.0,-3.0598,-3.0598,-3.0598,-3.0598,-3.0598,-3.0598,-3.0598,-3.0598,-3.0598,-3.0598,0.0,0.0,0.0,0.0,0.0,0.0,-3.0598,-3.0598,-3.0598,-3.0598,-3.0598,-3.0568,-3.0357,-3.0174,-3.0036,-2.9822,-2.9637,-2.9495,-2.9453,-2.8654,-2.7576,-2.6918,-2.6495,-2.6176,-2.5907,-2.5839,-2.5839,-2.5839,-2.5839,-2.553,-2.4362,-2.3658,-2.2772,-2.1025,-2.0586,-2.056,-2.056,-2.0771,-2.1042,-2.1296,-2.114,-2.0684,-1.9939,-1.9608,-1.9175,-1.8404,-1.8292,-1.8066,-1.7574,-1.7486,-1.7225,-1.6663,-1.6538,-1.65,-1.65,-1.6538,-1.655,-1.655,-1.66,-1.6396,-1.5881,-1.5869,-1.5869,-1.5869,-1.5869,-1.5625,-1.5148,-1.6158,-1.6613,-1.5821,0.0,-1.8825,-1.868,-1.8143,-1.7142,0.0,-1.4282,-1.3889,-1.405,-1.3831,-1.3904,-1.4892,-1.5559,-1.5995,-1.5995,-1.749,-1.9159,0.0,0.0,0.0,0.0,0.0,0.0,0.0,0.0,0.0,0.0,0.0,0.0,0.0,0.0,0.0,-3.0598,-3.0598,-3.0598,-3.0598,-3.0598,-3.0598,-3.0598,-3.0598,-3.0598,-3.0598,0.0,0.0,0.0,0.0,0.0,0.0,-3.0598,-3.0598,-3.0598,-3.0598,-3.0598,-3.0568,-3.0249,-2.996,-2.9668,-2.9369,-2.9026,-2.8662,-2.8238,-2.7865,-2.7428,-2.6349,-2.5825,-2.555,-2.53,-2.5202,-2.5202,-2.5202,-2.5202,-2.5025,-2.4285,-2.342,-2.2432,-2.1224,-2.0617,-2.0296,-2.0296,-2.0422,-2.0585,-2.0746,-2.066,-2.0446,-2.0141,-1.9965,-1.9763,-1.9472,-1.9083,-1.8757,-1.8632,-1.8267,-1.7953,-1.7815,-1.6989,-1.65,-1.65,-1.6936,-1.7197,-1.7197,-1.7589,-1.7752,-1.7614,-1.7614,-1.7614,-1.7614,-1.7614,-1.7551,-1.7426,-1.7689,-1.7802,-1.4703,-1.6269,-1.7359,-1.7647,-1.7243,-1.6314,-1.466,-1.3831,-1.3409,-1.3413,-1.3629,-1.4108,-1.5109,-1.6037,-1.6764,-1.7069,-1.8724,0.0,0.0,0.0,0.0,0.0,0.0,0.0,0.0,0.0,0.0,0.0,0.0,0.0,0.0,0.0,0.0,0.0,-3.0598,-3.0598,-3.0598,-3.0598,-3.0598,-3.0598,-3.0598,-3.0598,-3.0598,0.0,0.0,0.0,0.0,0.0,-3.0598,-3.0507,-3.0431,-3.0371,-3.0266,-3.0205,-3.0097,-2.9758,-2.9432,-2.9071,-2.872,-2.8352,-2.7992,-2.7666,-2.7373,-2.7027,-2.6374,-2.5678,-2.5001,-2.4689,-2.4593,-2.4593,-2.4593,-2.4593,-2.4433,-2.3819,-2.3184,-2.2367,-2.1176,-2.0664,-2.0346,-2.0067,-2.0093,-2.0144,-2.0232,-2.0156,-2.0105,-2.0016,-1.9939,-1.9888,-1.9811,-1.956,-1.9271,-1.9033,-1.8744,-1.848,-1.8229,-1.7639,-1.7265,-1.7265,-1.7589,-1.7765,-1.7765,-1.8053,-1.8204,-1.8204,-1.8455,-1.8455,-1.8204,-1.8455,-1.8455,-1.8216,-1.8444,-1.8556,-1.4761,-1.5966,-1.6663,-1.733,-1.6835,-1.5936,-1.4964,-1.4108,-1.3425,-1.305,-1.3833,-1.4819,-1.5602,-1.6777,-1.7867,-1.8521,0.0,0.0,0.0,0.0,0.0,0.0,0.0,0.0,0.0,0.0,0.0,0.0,0.0,0.0,0.0,0.0,0.0,0.0,-3.0598,-3.0598,-3.0598,-3.0598,-3.0598,-3.0598,-3.0598,-3.0598,-3.0598,-3.0598,0.0,0.0,0.0,0.0,-3.0568,-3.0357,-3.0174,-3.0005,-2.9792,-2.9574,-2.9338,-2.9022,-2.867,-2.8314,-2.7888,-2.7556,-2.7289,-2.7289,-2.6952,-2.6524,-2.6434,-2.5587,-2.4584,-2.4136,-2.4021,-2.4015,-2.4015,-2.4015,-2.3884,-2.3376,-2.3021,-2.2441,-2.1211,-2.0817,-2.0541,-2.0024,-1.9861,-1.9798,-1.9798,-1.9798,-1.9798,-1.9798,-1.9798,-1.9798,-1.9798,-1.9798,-1.9635,-1.9171,-1.9121,-1.8933,-1.8493,-1.8442,-1.8442,-1.8442,-1.838,-1.8367,-1.8442,-1.8442,-1.8442,-1.8442,-1.8882,-1.8895,-1.8455,-1.8895,-1.8882,-1.8455,-1.8907,-1.9121,-1.537,-1.6955,-1.8048,-1.8651,-1.749,-1.63,-1.6677,-1.5414,-1.4442,-1.5414,-1.5762,-1.63,-1.7534,-1.8796,-1.9856,0.0,0.0,0.0,0.0,0.0,0.0,0.0,0.0,0.0,0.0,0.0,0.0,0.0,0.0,0.0,0.0,0.0,0.0,0.0,0.0,-3.0598,-3.0598,-3.0598,-3.0598,-3.0598,-3.0598,-3.0598,-3.0598,-3.0598,-3.0598,0.0,0.0,0.0,-3.0582,-3.0249,-2.9943,-2.9668,-2.9338,-2.8867,-2.8376,-2.8032,-2.7683,-2.733,-2.6692,-2.643,-2.6408,-2.6408,-2.6346,-2.6183,-2.5661,-2.5086,-2.4453,-2.3797,-2.3624,-2.3675,-2.3675,-2.3675,-2.3662,-2.3559,-2.307,-2.2515,-2.2124,-2.1358,-2.0666,-2.0578,-2.0137,-1.9798,-1.9798,-1.9798,-1.9798,-1.9798,-1.9798,-1.9798,-1.9798,-1.9798,-1.9773,-1.9698,-1.9685,-1.9648,-1.956,-1.956,-1.956,-1.956,-1.9121,-1.907,-1.9547,-1.956,-1.956,-1.956,-1.9648,-1.9648,-1.956,-1.9648,-1.9635,-1.956,-1.9648,-1.9685,-1.5429,-1.6909,-1.8059,-1.9711,-1.9217,-1.8303,-1.8245,-1.7287,-1.6559,-1.7171,-1.7548,-1.8172,-1.9478,0.0,-2.1786,-2.3804,0.0,0.0,0.0,0.0,0.0,0.0,0.0,0.0,0.0,0.0,0.0,0.0,0.0,0.0,0.0,0.0,0.0,0.0,0.0,0.0,-3.0598,-3.0431,-3.0341,-3.0325,-3.0235,-3.0144,-3.0052,-3.0052,-3.0052,0.0,0.0,-3.0052,-3.0036,-2.9588,-2.9261,-2.9008,-2.8449,-2.8012,-2.7604,-2.7297,-2.696,-2.6633,-2.6292,-2.6131,-2.6062,-2.6166,-2.6213,-2.6164,-2.5856,-2.5232,-2.4524,-2.407,-2.3536,-2.3133,-2.321,-2.321,-2.3241,-2.3318,-2.3098,-2.2774,-2.2372,-2.192,-2.138,-2.0805,-2.0478,-2.0175,-1.9861,-1.9798,-1.9798,-1.9798,-1.9798,-1.9798,-1.9798,-1.9798,-1.9798,-1.9798,-1.9798,-1.9798,-1.9798,-1.9798,-1.9798,-1.9798,-1.9572,-1.9547,-1.9798,-1.9798,-1.9798,-1.9798,-1.9798,-1.9798,-1.9798,-1.9798,-1.9798,-1.9798,-1.9798,-1.9798,-1.5458,-1.6692,-1.7737,-1.9986,-2.0422,-2.0248,-2.0045,-1.9406,-1.8941,-1.9227,-1.9682,-2.0349,-2.1467,-2.2468,0.0,-2.6591,0.0,0.0,0.0,0.0,0.0,0.0,0.0,0.0,0.0,0.0,0.0,0.0,0.0,0.0,0.0,0.0,0.0,0.0,0.0,0.0,-3.0371,-3.0005,-2.982,-2.9913,-2.9668,-2.9435,-2.9243,-2.9243,-2.9243,-2.9243,-2.9243,-2.9243,-2.9198,-2.8707,-2.8384,-2.8137,-2.7484,-2.7082,-2.679,-2.6543,-2.6267,-2.606,-2.605,-2.5945,-2.5863,-2.6062,-2.6131,-2.6131,-2.6131,-2.5462,-2.4637,-2.4271,-2.3516,-2.2776,-2.2885,-2.2909,-2.2939,-2.3078,-2.3108,-2.2995,-2.2569,-2.2397,-2.2071,-2.1245,-2.0968,-2.0742,-2.0275,-2.02,-2.02,-2.02,-2.02,-2.02,-2.02,-2.02,-2.02,-2.02,-2.0087,-1.9949,-1.9811,-1.9798,-1.9798,-1.9798,-1.9798,-1.9798,-1.9798,-1.9798,-1.9798,-1.9798,-1.9798,-1.9798,-1.9798,-1.9798,-1.9798,-1.9798,-1.9798,-1.9874,-1.5821,-1.6692,-1.7534,-1.8898,-2.0088,-2.1235,-2.2374,-2.1678,-2.1133,-2.233,-2.2584,-2.2852,-2.3557,-2.5222,-2.6707,0.0,0.0,0.0,0.0,0.0,0.0,0.0,0.0,0.0,0.0,0.0,0.0,0.0,0.0,0.0,0.0,0.0,0.0,0.0,0.0,0.0,-2.9665,-2.9166,-2.9058,-2.9341,-2.9012,-2.8629,-2.813,-2.813,-2.813,-2.813,-2.813,-2.813,-2.8097,-2.7736,-2.7371,-2.7002,-2.6607,-2.6186,-2.5711,-2.5676,-2.5676,-2.5641,-2.5641,-2.5641,-2.5641,-2.5875,-2.591,-2.591,-2.591,-2.5505,-2.4872,-2.4071,-2.3429,-2.297,-2.2923,-2.2909,-2.2939,-2.3078,-2.3108,-2.3095,-2.3058,-2.2644,-2.2284,-2.2209,-2.1782,-2.1446,-2.1408,-2.1368,-2.1368,-2.1368,-2.1368,-2.1368,-2.1368,-2.1368,-2.1368,-2.1368,-2.093,-2.0415,-1.9849,-1.9798,-1.9798,-1.9798,-1.9798,-1.9798,-1.9798,-1.9798,-1.9798,-1.9798,-1.9798,-1.9798,-1.9798,-1.9798,-1.9798,-1.9798,-1.9798,-2.0087,-1.6356,-1.7011,-1.7708,-1.9769,-2.1228,-2.2316,-2.2786,-2.3171,-2.3659,-2.453,-2.5038,-2.54,-2.5647,0.0,-2.807,0.0,0.0,0.0,0.0,0.0,0.0,0.0,0.0,0.0,0.0,0.0,0.0,0.0,0.0,0.0,0.0,0.0,0.0,0.0,0.0,0.0,0.0,-2.8519,-2.8149,-2.7822,-2.7934,-2.7782,-2.7384,-2.7384,-2.7384,-2.7384,-2.7384,-2.7384,-2.7351,-2.6981,-2.6722,-2.6539,-2.6082,-2.5699,-2.5418,-2.5535,-2.5535,-2.5418,-2.5571,-2.5535,-2.5465,-2.5793,-2.584,-2.5723,-2.5875,-2.546,-2.4813,-2.4357,-2.3628,-2.2954,-2.2647,-2.2604,-2.2665,-2.2909,-2.3,-2.2987,-2.3078,-2.2945,-2.2694,-2.2343,-2.2146,-2.1895,-2.1543,-2.1493,-2.1493,-2.1493,-2.1493,-2.1493,-2.1493,-2.1493,-2.1493,-2.1493,-2.1333,-2.1119,-2.0878,-2.0853,-2.0853,-2.0853,-2.0188,-1.9798,-1.9798,-1.9798,-1.9798,-1.9798,-2.0189,-2.0365,-2.0365,-2.0677,-2.0853,-2.0853,-2.0853,-2.0966,-1.6835,-1.7342,-1.8042,-2.0175,-2.1808,-2.3047,-2.3679,-2.4689,-2.5745,-2.6559,-2.7096,-2.7416,-2.7416,-2.826,0.0,0.0,0.0,0.0,0.0,0.0,0.0,0.0,0.0,0.0,0.0,0.0,0.0,0.0,0.0,0.0,0.0,0.0,0.0,0.0,0.0,0.0,0.0,-2.7802,-2.7304,-2.6731,-2.6845,-2.6744,-2.6449,-2.6449,-2.6449,-2.6449,-2.6449,-2.6449,-2.6449,-2.6173,-2.6035,-2.6013,-2.5629,-2.5418,-2.5312,-2.5453,-2.5418,-2.5312,-2.5453,-2.5418,-2.5347,-2.5688,-2.5723,-2.5641,-2.5758,-2.5467,-2.4988,-2.4601,-2.4013,-2.3336,-2.2732,-2.2492,-2.2482,-2.2818,-2.2909,-2.2939,-2.3078,-2.3108,-2.2995,-2.2606,-2.2543,-2.2447,-2.2071,-2.2008,-2.2008,-2.2008,-2.2008,-2.2008,-2.2008,-2.2008,-2.1945,-2.1769,-2.1694,-2.1568,-2.133,-2.1531,-2.1669,-2.1669,-2.0828,-2.0338,-2.0338,-2.0162,-2.0162,-2.0326,-2.0578,-2.0779,-2.0955,-2.1333,-2.1493,-2.1493,-2.1493,-2.1581,-1.7229,-1.7722,-1.8535,-1.9812,-2.1533,-2.3432,-2.5371,-2.6341,-2.7183,-2.8462,-2.8723,-2.8723,-2.8723,-2.9203,0.0,0.0,0.0,0.0,0.0,0.0,0.0,0.0,0.0,0.0,0.0,0.0,0.0,0.0,0.0,0.0,0.0,0.0,0.0,0.0,0.0,0.0,0.0,-2.6952,-2.6611,-2.638,-2.5838,-2.5488,-2.5312,-2.5312,-2.5312,-2.5312,-2.5312,-2.5312,-2.5312,-2.5312,-2.5312,-2.5312,-2.5312,-2.5312,-2.5312,-2.5312,-2.5312,-2.5312,-2.5312,-2.5312,-2.5347,-2.5535,-2.5606,-2.5606,-2.5606,-2.5606,-2.5461,-2.4709,-2.4484,-2.4278,-2.3256,-2.272,-2.2494,-2.2818,-2.2909,-2.2939,-2.3078,-2.3108,-2.3108,-2.3108,-2.3108,-2.3108,-2.3108,-2.3108,-2.3108,-2.3108,-2.3108,-2.3108,-2.3108,-2.3108,-2.2895,-2.2343,-2.213,-2.17,-2.0974,-2.1575,-2.2017,-2.2017,-2.1707,-2.1493,-2.1493,-2.0993,-2.0955,-2.1481,-2.0981,-2.0981,-2.1493,-2.1506,-2.1506,-2.1506,-2.1506,-2.1794,-1.8419,-1.9029,-1.9943,-2.1649,-2.3186,-2.4805,-2.6695,-2.765,-2.8505,-2.9784,-2.9653,-2.9334,-2.9334,-2.9465,0.0,0.0,0.0,0.0,0.0,0.0,0.0,0.0,0.0,0.0,0.0,0.0,0.0,0.0,0.0,0.0,0.0,0.0,0.0,0.0,0.0,0.0,0.0,0.0,-2.6188,-2.5838,-2.5676,-2.5488,-2.5312,-2.5312,-2.5312,-2.5312,-2.5312,-2.5312,-2.5312,-2.5312,-2.5312,-2.5312,-2.5312,-2.5312,-2.5312,-2.5312,-2.5312,-2.5312,-2.5312,-2.5312,-2.5347,-2.5535,-2.5488,-2.5418,-2.5571,-2.55,-2.5346,-2.5119,-2.4807,-2.4412,-2.4145,-2.371,-2.324,-2.2695,-2.2543,-2.2635,-2.2909,-2.2969,-2.2987,-2.3078,-2.3108,-2.3108,-2.3108,-2.3108,-2.3108,-2.3108,-2.3108,-2.3108,-2.3108,-2.3108,-2.3045,-2.2882,-2.2807,-2.2694,-2.2481,-2.2656,-2.2782,-2.2782,-2.2681,-2.2297,-2.1518,-2.1358,-2.1358,-2.1493,-2.1707,-2.1895,-2.2071,-2.2431,-2.2619,-2.2619,-2.2619,-2.2647,-1.8941,-2.0126,-2.1605,-2.3258,-2.4839,-2.6649,-2.9058,-2.9726,-3.0031,-3.08,-3.064,-3.0349,-3.0349,0.0,0.0,0.0,0.0,0.0,0.0,0.0,0.0,0.0,0.0,0.0,0.0,0.0,0.0,0.0,0.0,0.0,0.0,0.0,0.0,0.0,0.0,0.0,0.0,0.0,0.0,-2.5606,-2.5535,-2.5418,-2.5312,-2.5312,-2.5312,-2.5312,-2.5312,-2.5312,-2.5312,-2.5312,-2.5312,-2.5312,-2.5312,-2.5312,-2.5312,-2.5312,-2.5312,-2.5312,-2.5312,-2.5312,-2.5312,-2.543,-2.5382,-2.5312,-2.5453,-2.5382,-2.5312,-2.5312,-2.5083,-2.4748,-2.4578,-2.429,-2.389,-2.3195,-2.3052,-2.3116,-2.3461,-2.3524,-2.3586,-2.3741,-2.3772,-2.3772,-2.3772,-2.3597,-2.3446,-2.3446,-2.3246,-2.3108,-2.3108,-2.3108,-2.3108,-2.3108,-2.3108,-2.3108,-2.3108,-2.3108,-2.3108,-2.3108,-2.3108,-2.2807,-2.2171,-2.1933,-2.192,-2.2133,-2.2246,-2.2393,-2.2606,-2.2945,-2.3108,-2.3108,-2.3108,-2.3017,-1.8999,-2.1011,-2.3221,-2.4563,-2.6434,-2.8739,-3.1712,-3.2048,-3.164,-3.1582,0.0,-3.1567,-3.1495,0.0,0.0,0.0,0.0,0.0,0.0,0.0,0.0,0.0,0.0,0.0,0.0,0.0,0.0,0.0,0.0,0.0,0.0,0.0,0.0,0.0,0.0,0.0,0.0,0.0,0.0,0.0,-2.5382,-2.5312,-2.5312,-2.5312,-2.5312,-2.5312,-2.5312,-2.5312,-2.5312,-2.5312,-2.5312,-2.5312,-2.5312,-2.5312,-2.5312,-2.5312,-2.5312,-2.5312,-2.5312,-2.5312,-2.5312,-2.5312,-2.5312,-2.5312,-2.5312,-2.5312,-2.5312,-2.5312,-2.5312,-2.5204,-2.4723,-2.4556,-2.4516,-2.4202,-2.4053,-2.4079,-2.4373,-2.4439,-2.4516,-2.4723,-2.4755,-2.4755,-2.4755,-2.4349,-2.396,-2.3929,-2.3446,-2.3108,-2.3108,-2.3108,-2.3108,-2.3108,-2.3108,-2.3108,-2.3108,-2.3108,-2.3108,-2.3108,-2.3108,-2.3108,-2.3108,-2.2619,-2.2594,-2.3095,-2.2606,-2.2606,-2.3108,-2.3108,-2.3108,-2.3108,-2.3108,-2.3017,-1.9435,-2.1359,-2.3345,-2.5139,-2.7795,-3.0277,-3.1467,-3.2425,-3.2904,-3.2396,-3.2278,-3.2104,0.0,0.0,0.0,0.0,0.0,0.0,0.0,0.0,0.0,0.0,0.0,0.0,0.0,0.0,0.0,0.0,0.0,0.0,0.0,0.0,0.0,0.0,0.0,0.0,-2.598,-2.591,-2.5723,0.0,-2.5312,-2.5312,-2.5312,-2.5312,-2.5312,-2.5312,-2.5312,-2.5312,-2.5312,-2.5312,-2.5312,-2.5312,-2.5312,-2.5312,-2.5312,-2.5312,-2.5312,-2.5312,-2.5312,-2.5312,-2.5312,-2.5312,-2.5312,-2.5312,-2.5312,-2.5312,-2.5312,-2.5312,-2.5312,-2.5288,-2.5168,-2.5131,-2.5107,-2.5034,-2.4418,-2.3893,-2.4079,-2.4112,-2.4144,-2.4296,-2.4329,-2.4361,-2.4549,-2.4213,-2.3785,-2.3353,-2.3183,-2.3108,-2.3108,-2.3108,-2.3108,-2.3108,-2.3108,-2.3108,-2.3108,-2.3108,-2.3108,-2.3108,-2.3108,-2.3108,-2.3108,-2.2995,-2.2982,-2.3108,-2.2995,-2.2982,-2.3108,-2.3108,-2.3108,-2.3108,-2.3108,-2.2969,-1.9101,-2.1467,-2.4056,-2.691,-2.9334,-3.1192,-3.1845,-3.2527,-3.2919,-3.2553,-3.2481,0.0,0.0,0.0,0.0,0.0,0.0,0.0,0.0,0.0,0.0,0.0,0.0,0.0,0.0,0.0,0.0,0.0,0.0,0.0,0.0,0.0,0.0,0.0,0.0,0.0,-2.591,-2.591,-2.5688,-2.5312,-2.5312,-2.5312,-2.5312,-2.5312,-2.5312,-2.5312,-2.5312,-2.5312,-2.5312,-2.5312,-2.5312,-2.5312,-2.5312,-2.5312,-2.5312,-2.5312,-2.5312,-2.5312,-2.5312,-2.5312,-2.5312,-2.5312,-2.5312,-2.5312,-2.5312,-2.5312,-2.5312,-2.5312,-2.5312,-2.5312,-2.5312,-2.5312,-2.5312,-2.5312,-2.4903,-2.4575,-2.4745,-2.4779,-2.4813,-2.4982,-2.5084,-2.5139,-2.5252,-2.5203,-2.4691,-2.3321,-2.3108,-2.3484,-2.4594,-2.4732,-2.4318,-2.3221,-2.3108,-2.3108,-2.3108,-2.3108,-2.3108,-2.3108,-2.3108,-2.3108,-2.3108,-2.3622,-2.3659,-2.3108,-2.3108,-2.3108,-2.3108,-2.3108,-2.3108,-2.3108,-2.3108,-2.2969,-1.839,-2.1525,-2.5067,-2.8579,-3.0408,-3.1526,-3.2162,-3.2408,-3.2481,-3.2481,0.0,0.0,0.0,0.0,0.0,0.0,0.0,0.0,0.0,0.0,0.0,0.0,0.0,0.0,0.0,0.0,0.0,0.0,0.0,0.0,0.0,0.0,0.0,0.0,0.0,-2.6327,-2.591,-2.591,-2.5688,-2.5312,-2.5312,-2.5312,-2.5312,-2.5312,-2.5312,-2.5312,-2.5312,-2.5312,-2.5312,-2.5312,-2.5312,-2.5312,-2.5312,-2.5312,-2.5312,-2.5312,-2.5312,-2.5312,-2.5312,-2.5312,-2.5312,-2.5312,-2.5312,-2.5312,-2.5312,-2.5312,-2.5312,-2.5312,-2.5312,-2.5312,-2.5312,-2.5312,-2.5312,-2.5312,-2.5312,-2.5347,-2.55,-2.5535,-2.5606,-2.5758,-2.5921,-2.6025,-2.5955,-2.6245,-2.5871,-2.396,-2.3672,-2.4368,-2.626,-2.6499,-2.5783,-2.3904,-2.3672,-2.3672,-2.3672,-2.3672,-2.3672,-2.3672,-2.3672,-2.3672,-2.3672,-2.4575,-2.4637,-2.3697,-2.3434,-2.3233,-2.3108,-2.3108,-2.3065,-2.3035,-2.3078,-2.2939,-1.7641,-2.1851,-2.6054,-2.826,-2.9798,-3.0872,-3.1496,-3.206,-3.2481,0.0,0.0,0.0,0.0,0.0,0.0,0.0,0.0,0.0,0.0,0.0,0.0,0.0,0.0,0.0,0.0,0.0,0.0,0.0,0.0,0.0,0.0,0.0,-2.6499,-2.6499,-2.6499,0.0,-2.591,-2.591,-2.5688,-2.5312,-2.5312,-2.5312,-2.5312,-2.5312,-2.5312,-2.5312,-2.5312,-2.5312,-2.5312,-2.5312,-2.5312,-2.5312,-2.5312,-2.5312,-2.5312,-2.5312,-2.5312,-2.5312,-2.5312,-2.5312,-2.5312,-2.5312,-2.5312,-2.5312,-2.5312,-2.5312,-2.5312,-2.5312,-2.5312,-2.5312,-2.5312,-2.5312,-2.5312,-2.5312,-2.5312,-2.5312,-2.5347,-2.5347,-2.5347,-2.5382,-2.5594,-2.5676,-2.5453,-2.6025,-2.6399,-2.6097,-2.6047,-2.616,-2.6461,-2.6499,-2.6386,-2.6084,-2.6047,-2.6047,-2.6047,-2.6047,-2.6047,-2.6047,-2.6047,-2.6047,-2.6047,-2.6197,-2.6197,-2.6047,-2.4745,-2.3735,-2.3108,-2.3108,-2.3005,-2.2841,-2.2896,-2.2787,-1.8684,-2.2439,-2.5807,-2.8128,-2.9363,-3.0205,-3.0843,-3.1221,-3.1424,0.0,0.0,0.0,0.0,0.0,0.0,0.0,0.0,0.0,0.0,0.0,0.0,0.0,0.0,0.0,0.0,0.0,0.0,0.0,0.0,0.0,0.0,-2.6499,-2.6499,-2.6499,-2.6396,0.0,-2.591,-2.5793,-2.5571,-2.5312,-2.5312,-2.5312,-2.5312,-2.5312,-2.5312,-2.5312,-2.5312,-2.5312,-2.5312,-2.5312,-2.5312,-2.5312,-2.5312,-2.5312,-2.5312,-2.5312,-2.5312,-2.5312,-2.5312,-2.5312,-2.5312,-2.5312,-2.5312,-2.5312,-2.5312,-2.5312,-2.5312,-2.5312,-2.5312,-2.5312,-2.5312,-2.5312,-2.5312,-2.5312,-2.5312,-2.5312,-2.5312,-2.5312,-2.5312,-2.5312,-2.5382,-2.5453,-2.5312,-2.5594,-2.5851,-2.5851,-2.5851,-2.5851,-2.5851,-2.5851,-2.5851,-2.5851,-2.5851,-2.6025,-2.6452,-2.6499,-2.6499,-2.6499,-2.6499,-2.6499,-2.6499,-2.6499,-2.6499,-2.6499,-2.4996,-2.4148,-2.4048,-2.3409,-2.3035,-2.2944,-2.2384,-2.2273,-1.9116,-2.2142,-2.4665,-2.7099,-2.8303,-2.9116,-2.9944,0.0,0.0,0.0,0.0,0.0,0.0,0.0,0.0,0.0,0.0,0.0,0.0,0.0,0.0,0.0,0.0,0.0,0.0,0.0,0.0,0.0,0.0,0.0,-2.6499,-2.6499,-2.6499,-2.643,-2.627,-2.6097,-2.584,-2.5606,-2.5453,-2.5312,-2.5312,-2.5312,-2.5312,-2.5312,-2.5312,-2.5312,-2.5312,-2.5312,-2.5312,-2.5312,-2.5312,-2.5312,-2.5312,-2.5312,-2.5312,-2.5312,-2.5312,-2.5312,-2.5312,-2.5312,-2.5312,-2.5312,-2.5312,-2.5312,-2.5312,-2.5312,-2.5312,-2.5312,-2.5312,-2.5312,-2.5312,-2.5312,-2.5312,-2.5312,-2.5312,-2.5312,-2.5312,-2.5312,-2.5312,-2.5312,-2.5312,-2.5312,-2.5312,-2.5312,-2.5312,-2.5312,-2.5312,-2.5312,-2.5312,-2.5312,-2.5312,-2.5312,-2.5312,-2.5641,-2.6418,-2.6499,-2.6499,-2.6499,-2.6499,-2.6499,-2.6499,-2.6499,-2.6499,-2.6499,-2.536,-2.4946,-2.5234,-2.4393,-2.3659,-2.3078,-2.2199,-2.2099,-1.7763,-2.0204,-2.2614,-2.452,-2.5995,-2.7258,0.0,0.0,0.0,0.0,0.0,0.0,0.0,0.0,0.0,0.0,0.0,0.0,0.0,0.0,0.0,0.0,0.0,0.0,0.0,0.0,0.0,0.0,0.0,0.0,-2.6499,-2.6499,-2.6396,-2.6201,-2.6213,-2.6027,-2.5606,-2.5418,-2.5312,-2.5312,-2.5312,-2.5312,-2.5312,-2.5312,-2.5312,-2.5312,-2.5312,-2.5312,-2.5312,-2.5312,-2.5312,-2.5312,-2.5312,-2.5312,-2.5312,-2.5312,-2.5312,-2.5312,-2.5312,-2.5312,-2.5312,-2.5312,-2.5312,-2.5312,-2.5312,-2.5312,-2.5312,-2.5312,-2.5312,-2.5312,-2.5312,-2.5312,-2.5312,-2.5312,-2.5312,-2.5312,-2.5312,-2.5312,-2.5312,-2.5312,-2.5312,-2.5312,-2.5312,-2.5312,-2.5312,-2.5312,-2.5312,-2.5312,-2.5312,-2.5312,-2.5312,-2.5312,-2.5312,-2.5641,-2.6418,-2.6499,-2.6499,-2.6499,-2.6499,-2.6499,-2.6499,-2.6499,-2.6499,-2.6499,-2.6411,-2.6386,-2.6411,-2.6348,-2.5197,-2.3078,-2.2787,-2.2494,-1.5937,-1.7925,-2.0117,-2.2439,-2.3978,-2.5396,-2.7096,0.0,0.0,0.0,0.0,0.0,0.0,0.0,0.0,0.0,0.0,0.0,0.0,0.0,0.0,0.0,0.0,0.0,0.0,0.0,0.0,0.0,0.0,0.0,-2.6499,-2.6499,-2.6396,-2.6213,-2.6062,-2.5793,-2.5418,-2.5347,-2.5312,-2.5312,-2.5312,-2.5312,-2.5312,-2.5312,-2.5312,-2.5312,-2.5312,-2.5312,-2.5312,-2.5312,-2.5312,-2.5312,-2.5312,-2.5312,-2.5312,-2.5312,-2.5312,-2.5312,-2.5312,-2.5312,-2.5312,-2.5312,-2.5312,-2.5312,-2.5312,-2.5312,-2.5312,-2.5312,-2.5312,-2.5312,-2.5312,-2.5312,-2.5312,-2.5312,-2.5312,-2.5312,-2.5312,-2.5312,-2.5312,-2.5312,-2.5312,-2.5312,-2.5312,-2.5312,-2.5312,-2.5312,-2.5312,-2.5312,-2.5312,-2.5312,-2.5312,-2.5312,-2.5312,-2.5418,-2.5711,-2.5746,-2.5746,-2.5746,-2.5746,-2.5955,-2.6499,-2.6499,-2.6499,-2.6499,-2.6499,-2.6499,-2.6499,-2.599,-2.5308,-2.4484,-2.3386,-2.2564,-1.4486,-1.6097,-1.7913,-2.003,-2.1657,-2.3184,-2.4897,0.0,0.0,0.0,0.0,0.0,0.0,0.0,0.0,0.0,0.0,0.0,0.0,0.0,0.0,0.0,0.0,0.0,0.0,0.0,0.0,0.0,0.0,0.0,-2.6499,-2.6499,-2.6396,-2.6097,-2.5828,-2.5571,-2.5312,-2.5312,-2.5312,-2.5312,-2.5312,-2.5312,-2.5312,-2.5312,-2.5312,-2.5312,-2.5312,-2.5312,-2.5312,-2.5312,-2.5312,-2.5312,-2.5312,-2.5312,-2.5312,-2.5312,-2.5312,-2.5312,-2.5312,-2.5312,-2.5312,-2.5312,-2.5312,-2.5312,-2.5312,-2.5312,-2.5312,-2.5312,-2.5312,-2.5312,-2.5312,-2.5312,-2.5312,-2.5312,-2.5312,-2.5312,-2.5312,-2.5312,-2.5312,-2.5312,-2.5312,-2.5312,-2.5312,-2.5312,-2.5312,-2.5312,-2.5312,-2.5312,-2.5312,-2.5312,-2.5312,-2.5312,-2.5312,-2.5312,-2.5312,-2.5312,-2.5312,-2.5312,-2.5312,-2.5664,-2.6452,-2.6499,-2.6499,-2.6499,-2.6499,-2.6499,-2.6499,-2.5699,-2.4909,-2.4107,-2.3065,-2.2327,0.0,0.0,0.0,-1.7255,0.0,0.0,0.0,0.0,0.0,0.0,0.0,0.0,0.0,0.0,0.0,0.0,0.0,0.0,0.0,0.0,0.0,0.0,0.0,0.0,0.0,0.0,0.0,0.0,0.0,-2.6499,-2.6499,-2.6499,-2.6292,-2.591,-2.55,-2.5312,-2.5312,-2.5312,-2.5312,-2.5312,-2.5312,-2.5312,-2.5312,-2.5312,-2.5312,-2.5312,-2.5312,-2.5312,-2.5312,-2.5312,-2.5312,-2.5312,-2.5312,-2.5312,-2.5312,-2.5312,-2.5312,-2.5312,-2.5312,-2.5312,-2.5312,-2.5312,-2.5312,-2.5312,-2.5312,-2.5312,-2.5312,-2.5312,-2.5312,-2.5312,-2.5312,-2.5312,-2.5312,-2.5312,-2.5312,-2.5312,-2.5312,-2.5312,-2.5312,-2.5312,-2.5312,-2.5312,-2.5312,-2.5312,-2.5312,-2.5312,-2.5312,-2.5312,-2.5312,-2.5312,-2.5312,-2.5312,-2.5312,-2.5312,-2.5312,-2.5312,-2.5312,-2.5312,-2.5312,-2.5629,-2.6418,-2.6452,-2.6499,-2.6499,-2.6499,-2.6499,-2.6499,-2.5699,-2.4107,-2.1883,-2.1807,-2.1807,-1.2647,0.0,0.0,0.0,0.0,0.0,0.0,0.0,0.0,0.0,0.0,0.0,0.0,0.0,0.0,0.0,0.0,0.0,0.0,0.0,0.0,0.0,0.0,0.0,0.0,0.0,0.0,0.0,0.0,-2.6499,-2.6499,-2.6211,-2.5933,-2.5688,-2.5418,-2.5312,-2.5312,-2.5312,-2.5312,-2.5312,-2.5312,-2.5312,-2.5312,-2.5312,-2.5312,-2.5312,-2.5312,-2.5312,-2.5312,-2.5312,-2.5312,-2.5312,-2.5312,-2.5312,-2.5312,-2.5312,-2.5312,-2.5312,-2.5312,-2.5312,-2.5312,-2.5312,-2.5312,-2.5312,-2.5312,-2.5312,-2.5312,-2.5312,-2.5312,-2.5312,-2.5312,-2.5312,-2.5312,-2.5312,-2.5312,-2.5312,-2.5312,-2.5312,-2.5312,-2.5312,-2.5312,-2.5312,-2.5312,-2.5312,-2.5312,-2.5312,-2.5312,-2.5312,-2.5312,-2.5312,-2.5312,-2.5312,-2.5312,-2.5312,-2.5312,-2.5312,-2.5312,-2.5312,-2.5312,-2.5382,-2.5629,-2.5629,-2.5921,-2.6499,-2.6499,-2.6499,-2.6499,-2.5699,-2.4695,-2.3519,-2.2327,-2.1807,-1.3145,-1.3337,-1.3531,0.0,0.0,0.0,0.0,0.0,0.0,0.0,0.0,0.0,0.0,0.0,0.0,0.0,0.0,0.0,0.0,0.0,0.0,0.0,0.0,0.0,0.0,0.0,0.0,0.0,-2.6499,-2.6465,-2.6361,-2.598,-2.5723,-2.5606,-2.5382,-2.5312,-2.5312,-2.5312,-2.5312,-2.5312,-2.5312,-2.5312,-2.5312,-2.5312,-2.5312,-2.5312,-2.5312,-2.5312,-2.5312,-2.5312,-2.5312,-2.5312,-2.5312,-2.5312,-2.5312,-2.5312,-2.5312,-2.5312,-2.5312,-2.5312,-2.5312,-2.5312,-2.5312,-2.5312,-2.5312,-2.5312,-2.5312,-2.5312,-2.5312,-2.5312,-2.5312,-2.5312,-2.5312,-2.5312,-2.5312,-2.5312,-2.5312,-2.5312,-2.5312,-2.5312,-2.5312,-2.5312,-2.5312,-2.6045,-2.6647,-2.6647,-2.6647,-2.6322,-2.5432,-2.5312,-2.5312,-2.5312,-2.5312,-2.5312,-2.5312,-2.5312,-2.5312,-2.5312,-2.5312,-2.5312,-2.5312,-2.5312,-2.5676,-2.6487,-2.6499,-2.6349,-2.599,-2.5886,-2.5418,-2.4611,-2.2692,-2.1807,-1.4593,-1.4327,-1.4025,-1.4444,0.0,0.0,-1.5142,-1.6458,0.0,0.0,0.0,0.0,0.0,0.0,0.0,0.0,0.0,0.0,0.0,0.0,0.0,0.0,0.0,0.0,0.0,0.0,0.0,-2.6499,-2.6499,-2.6361,-2.6131,-2.5793,-2.5571,-2.5571,-2.5382,-2.5312,-2.5312,-2.5312,-2.5312,-2.5312,-2.5312,-2.5312,-2.5312,-2.5312,-2.5312,-2.5312,-2.5312,-2.5312,-2.5312,-2.5312,-2.5312,-2.5312,-2.5312,-2.5312,-2.5312,-2.5312,-2.5312,-2.5312,-2.5312,-2.5312,-2.5312,-2.5312,-2.5312,-2.5312,-2.5312,-2.5312,-2.5312,-2.5312,-2.5312,-2.5312,-2.5312,-2.5312,-2.5312,-2.5312,-2.5312,-2.5372,-2.5612,-2.5673,-2.5673,-2.5673,-2.5673,-2.5673,-2.5673,-2.7248,-2.851,-2.851,-2.851,-2.7729,-2.5588,-2.5312,-2.5312,-2.5312,-2.5312,-2.5312,-2.5312,-2.5312,-2.5312,-2.5312,-2.5312,-2.5312,-2.5312,-2.5312,-2.5629,-2.6349,-2.6383,-2.5955,-2.517,-2.599,-2.5921,-2.4981,-2.2793,-2.1807,-1.6077,-1.5711,-1.5132,-1.4379,0.0,0.0,0.0,-1.46,0.0,0.0,0.0,0.0,0.0,0.0,0.0,0.0,0.0,0.0,0.0,0.0,0.0,0.0,0.0,0.0,0.0,0.0,-2.6499,-2.6499,-2.6339,-2.6084,-2.5723,-2.5641,-2.5535,-2.5347,-2.5312,-2.5312,-2.5312,-2.5312,-2.5312,-2.5312,-2.5312,-2.5312,-2.5312,-2.5312,-2.5312,-2.5312,-2.5312,-2.5312,-2.5312,-2.5312,-2.5312,-2.5312,-2.5312,-2.5312,-2.5312,-2.5312,-2.5312,-2.5312,-2.5312,-2.5312,-2.5312,-2.5312,-2.5312,-2.5312,-2.5312,-2.5312,-2.5312,-2.5312,-2.5312,-2.5312,-2.5312,-2.5312,-2.5312,-2.5312,-2.5312,-2.5781,-2.7512,-2.7885,-2.7885,-2.7885,-2.7885,-2.7885,-2.7885,-2.8234,-2.851,-2.851,-2.851,-2.7729,-2.5588,-2.5312,-2.5312,-2.5312,-2.5312,-2.5312,-2.5312,-2.5312,-2.5312,-2.5312,-2.5312,-2.5312,-2.5312,-2.5312,-2.5382,-2.5523,-2.5523,-2.517,-2.4406,-2.517,-2.4802,-2.3434,-2.2327,-2.1807,-1.8055,-1.7564,-1.6748,-1.594,0.0,0.0,0.0,0.0,0.0,0.0,0.0,0.0,0.0,0.0,0.0,0.0,0.0,0.0,0.0,0.0,0.0,0.0,0.0,0.0,0.0,0.0,-2.6117,-2.6349,-2.6084,-2.5793,-2.5606,-2.5488,-2.5382,-2.5312,-2.5312,-2.5312,-2.5312,-2.5312,-2.5312,-2.5312,-2.5312,-2.5312,-2.5312,-2.5312,-2.5312,-2.5312,-2.5312,-2.5312,-2.5312,-2.5312,-2.5312,-2.5312,-2.5312,-2.5312,-2.5312,-2.5312,-2.5312,-2.5312,-2.5312,-2.5312,-2.5312,-2.5312,-2.5312,-2.5312,-2.5312,-2.5312,-2.5312,-2.5312,-2.5312,-2.5312,-2.5312,-2.5312,-2.5312,-2.5312,-2.6129,-2.72,-2.8282,-2.851,-2.851,-2.851,-2.851,-2.851,-2.851,-2.851,-2.851,-2.851,-2.851,-2.8126,-2.7043,-2.6899,-2.6502,-2.542,-2.5312,-2.5312,-2.5312,-2.5312,-2.5312,-2.5312,-2.5312,-2.5312,-2.5312,-2.5312,-2.5135,-2.4754,-2.4347,-2.3754,-2.3001,-2.3386,-2.3165,-2.2402,-2.1987,-2.1807,0.0,0.0,0.0,0.0,0.0,-1.5035,0.0,0.0,0.0,-1.5374,0.0,0.0,0.0,0.0,0.0,0.0,0.0,0.0,0.0,0.0,0.0,0.0,0.0,0.0,0.0,0.0,-2.539,-2.5738,-2.5389,-2.5206,-2.5366,-2.5226,-2.5204,-2.5312,-2.5312,-2.5312,-2.5312,-2.5312,-2.5312,-2.5312,-2.5312,-2.5312,-2.5312,-2.5312,-2.5312,-2.5312,-2.5312,-2.5276,-2.5276,-2.5206,-2.517,-2.5182,-2.5276,-2.5312,-2.5312,-2.5312,-2.5312,-2.5312,-2.5312,-2.5312,-2.5312,-2.5312,-2.5312,-2.5312,-2.5312,-2.5312,-2.5312,-2.5312,-2.5312,-2.5312,-2.5312,-2.5312,-2.5408,-2.5829,-2.7248,-2.851,-2.851,-2.851,-2.851,-2.851,-2.851,-2.851,-2.851,-2.851,-2.851,-2.851,-2.851,-2.851,-2.851,-2.851,-2.7693,-2.554,-2.5312,-2.5312,-2.5312,-2.5312,-2.5312,-2.5312,-2.5312,-2.5312,-2.5312,-2.5312,-2.4886,-2.397,-2.3038,-2.2203,-2.1568,-2.1568,-2.1655,-2.1807,-2.1807,-2.1807,0.0,0.0,0.0,0.0,-1.7212,0.0,0.0,0.0,-1.4833,-1.4979,0.0,0.0,0.0,0.0,0.0,0.0,0.0,0.0,0.0,0.0,0.0,0.0,0.0,0.0,0.0,0.0,0.0,-2.4225,-2.3758,-2.3793,-2.4589,-2.4614,-2.4831,-2.5288,-2.5312,-2.5312,-2.5312,-2.5312,-2.5312,-2.5312,-2.5312,-2.5312,-2.5312,-2.5312,-2.5312,-2.5312,-2.5312,-2.5241,-2.5111,-2.4921,-2.4742,-2.4634,-2.5099,-2.5312,-2.5312,-2.5312,-2.5312,-2.5312,-2.5312,-2.5312,-2.5312,-2.5312,-2.5312,-2.5312,-2.5312,-2.5312,-2.5312,-2.5312,-2.5312,-2.5312,-2.5312,-2.5312,-2.5781,-2.7693,-2.833,-2.851,-2.851,-2.851,-2.851,-2.851,-2.851,-2.851,-2.851,-2.851,-2.851,-2.851,-2.851,-2.851,-2.851,-2.851,-2.7693,-2.554,-2.5312,-2.5312,-2.5312,-2.5312,-2.5312,-2.5312,-2.5312,-2.5312,-2.5312,-2.5312,-2.4623,-2.315,-2.1672,-2.0838,-2.0722,-2.0722,-2.1108,-2.1807,-2.1807,-2.1807,0.0,0.0,0.0,0.0,0.0,0.0,0.0,0.0,-1.5072,0.0,0.0,0.0,0.0,0.0,0.0,0.0,0.0,0.0,0.0,0.0,0.0,0.0,0.0,0.0,0.0,0.0,0.0,0.0,0.0,-2.2585,-2.3568,-2.4194,-2.4592,-2.4843,-2.5155,-2.5312,-2.5312,-2.5312,-2.5312,-2.5312,-2.5312,-2.5312,-2.5312,-2.5312,-2.5312,-2.5312,-2.5312,-2.5147,-2.4885,-2.4527,-2.4238,-2.397,-2.3961,-2.4251,-2.4647,-2.4647,-2.4647,-2.4647,-2.4647,-2.4647,-2.4647,-2.4647,-2.4647,-2.4647,-2.4647,-2.4647,-2.4683,-2.4802,-2.4909,-2.5147,-2.5769,-2.6093,-2.6597,-2.815,-2.851,-2.851,-2.851,-2.851,-2.851,-2.851,-2.851,-2.851,-2.851,-2.851,-2.851,-2.851,-2.851,-2.851,-2.851,-2.807,-2.6783,-2.4226,-2.3973,-2.3973,-2.3973,-2.3973,-2.3973,-2.3973,-2.3973,-2.3973,-2.3973,-2.3973,-2.3423,-2.2327,-2.1185,-2.0605,-2.0605,-2.0605,-2.076,-2.1108,-2.1108,-2.1108,-2.3891,0.0,0.0,0.0,0.0,0.0,0.0,0.0,0.0,0.0,0.0,0.0,0.0,0.0,0.0,0.0,0.0,0.0,0.0,0.0,0.0,0.0,0.0,0.0,0.0,0.0,0.0,0.0,0.0,0.0,-2.2734,-2.3749,-2.4374,-2.4518,-2.5035,-2.5276,-2.5241,-2.5182,-2.5147,-2.5076,-2.5028,-2.4993,-2.4993,-2.4993,-2.4993,-2.4993,-2.4993,-2.4802,-2.4454,-2.3973,-2.3596,-2.3224,-2.283,-2.3016,-2.3556,-2.3776,-2.3886,-2.3886,-2.3886,-2.3886,-2.3886,-2.3886,-2.3886,-2.3886,-2.3886,-2.3886,-2.3922,-2.4189,-2.4406,-2.4894,-2.6067,-2.6731,-2.727,-2.8282,-2.851,-2.851,-2.851,-2.851,-2.851,-2.851,-2.851,-2.851,-2.851,-2.851,-2.851,-2.851,-2.851,-2.851,-2.851,-2.7545,-2.5679,-2.267,-2.2354,-2.2354,-2.2354,-2.2354,-2.2354,-2.2354,-2.2354,-2.2354,-2.2354,-2.2354,-2.2052,-2.1492,-2.0915,-2.0605,-2.0605,-2.0605,-2.0605,-2.0605,-2.0605,-2.0605,0.0,0.0,0.0,-2.0075,0.0,0.0,0.0,0.0,-1.7099,0.0,0.0,0.0,0.0,0.0,-1.662,-1.5435,0.0,0.0,0.0,0.0,0.0,0.0,0.0,0.0,0.0,0.0,0.0,0.0,0.0,0.0,-2.2125,-2.3252,-2.4013,-2.4506,-2.5035,-2.5241,-2.5111,-2.4921,-2.4718,-2.4526,-2.4345,-2.4236,-2.4236,-2.4236,-2.4236,-2.4236,-2.4236,-2.4007,-2.3593,-2.3187,-2.2815,-2.2402,-2.1997,-2.1835,-2.1949,-2.2745,-2.3032,-2.3032,-2.3032,-2.3032,-2.3032,-2.3032,-2.3032,-2.3032,-2.3032,-2.3032,-2.3117,-2.3519,-2.3863,-2.4462,-2.6018,-2.6899,-2.7584,-2.833,-2.851,-2.851,-2.851,-2.851,-2.851,-2.851,-2.851,-2.851,-2.851,-2.851,-2.851,-2.851,-2.851,-2.851,-2.851,-2.7003,-2.457,-2.1055,-2.0683,-2.0683,-2.0683,-2.0683,-2.0683,-2.0683,-2.0683,-2.0683,-2.0683,-2.0683,-2.0644,-2.0644,-2.0605,-2.0605,-2.0605,-2.0605,-2.0605,-2.0605,-2.0605,-2.0605,0.0,0.0,-2.2368,-2.1644,0.0,0.0,0.0,0.0,0.0,0.0,0.0,0.0,0.0,0.0,-1.797,-1.6509,-1.5596,0.0,0.0,0.0,0.0,0.0,0.0,0.0,0.0,0.0,0.0,0.0,0.0,0.0,0.0,-2.2486,-2.3517,-2.4013,-2.4518,-2.4788,-2.4885,-2.4527,-2.419,-2.3897,-2.3582,-2.3412,-2.3412,-2.3412,-2.3412,-2.3412,-2.3412,-2.3165,-2.2777,-2.2381,-2.1977,-2.1578,-2.1146,-2.0992,-2.1108,-2.1901,-2.2203,-2.2203,-2.2203,-2.2203,-2.2203,-2.2203,-2.2203,-2.2203,-2.2203,-2.2376,-2.2696,-2.3139,-2.3727,-2.4514,-2.5682,-2.643,-2.7038,-2.7761,-2.7765,-2.7805,-2.8391,-2.851,-2.851,-2.851,-2.851,-2.851,-2.851,-2.851,-2.851,-2.851,-2.799,-2.7423,-2.6839,-2.5717,-2.4291,-2.246,-2.2266,-2.2266,-2.2266,-2.2266,-2.2266,-2.2266,-2.2266,-2.1758,-2.0654,-2.0605,-2.0605,-2.0605,-2.0605,-2.0605,-2.0605,-2.0605,-2.0605,-2.0605,-2.0605,-2.0605,-2.5598,-2.4544,0.0,0.0,-2.1338,0.0,-1.9141,0.0,0.0,0.0,0.0,0.0,0.0,0.0,-1.8962,-1.7521,-1.6003,-1.4569,0.0,0.0,0.0,0.0,0.0,0.0,0.0,0.0,-1.7159,-1.7869,0.0,0.0,0.0,0.0,-2.2943,-2.3394,-2.3988,-2.4365,-2.449,-2.3973,-2.3534,-2.315,-2.2756,-2.2558,-2.2558,-2.2558,-2.2558,-2.2558,-2.2558,-2.2381,-2.2063,-2.1711,-2.1377,-2.1061,-2.0731,-2.0605,-2.0644,-2.1185,-2.1377,-2.1377,-2.1377,-2.1377,-2.1377,-2.1377,-2.1377,-2.1377,-2.1377,-2.1653,-2.2086,-2.2519,-2.3237,-2.4103,-2.5073,-2.5681,-2.6189,-2.6821,-2.6835,-2.6876,-2.7418,-2.7539,-2.7458,-2.7133,-2.736,-2.7574,-2.7574,-2.7574,-2.7777,-2.8391,-2.7493,-2.6302,-2.5073,-2.4401,-2.3754,-2.3178,-2.3091,-2.3091,-2.3091,-2.3091,-2.3091,-2.3091,-2.3091,-2.2604,-2.1523,-2.0928,-2.0605,-2.0605,-2.0605,-2.0605,-2.0605,-2.0605,-2.0605,-2.0605,-2.0605,-2.0605]},{"header":{"parameterUnit":"m.s-1","parameterCategory":1,"la1":30.6,"la2":29.2853,"lo1":-89.7004,"lo2":-87.6739,"dy":0.0162,"dx":0.0183,"nx":112,"ny":82,"refTime":"2026-05-16T00:00:00:Z","depth":0,"parameterNumber":3,"parameterNumberName":"V-component_of_WINDS"},"data":[0.0,0.0,0.0,0.0,0.0,0.0,0.0,0.0,0.0,0.0,0.0,0.0,0.0,0.0,0.0,0.0,0.0,0.0,0.0,0.0,0.0,0.0,0.0,0.0,0.0,0.0,0.0,0.0,0.0,0.0,0.0,0.0,0.0,0.0,0.0,0.0,0.0,0.0,0.0,0.0,0.0,0.0,0.0,0.0,0.0,0.0,0.0,0.0,0.0,0.0,0.0,0.0,0.0,0.0,0.0,0.0,0.0,0.0,0.0,0.0,0.0,0.0,0.0,0.0,0.0,0.0,0.0,0.0,0.0,0.0,0.0,0.0,0.0,0.0,0.0,0.0,0.0,0.0,0.0,0.0,0.0,0.0,0.0,0.0,0.0,0.0,0.0,0.0,0.0,0.0,0.0,0.6218,0.824,0.9066,0.7984,0.7479,0.6566,0.5042,0.0,0.0,0.0,0.0,0.0,0.0,0.0,0.0,0.0,0.0,0.0,0.0,0.0,0.0,0.0,0.0,0.0,0.0,0.0,0.0,0.0,0.0,0.0,0.0,0.0,0.0,0.0,0.0,0.0,0.0,0.0,0.0,0.0,0.0,0.0,0.0,0.0,0.0,0.0,0.0,0.0,0.0,0.0,0.0,0.0,0.0,0.0,0.0,0.0,0.0,0.0,0.0,0.0,0.0,0.0,0.0,0.0,0.0,0.0,0.0,0.0,0.0,0.0,0.0,0.0,0.0,0.0,0.0,0.0,0.0,0.0,0.0,0.0,0.0,0.0,0.0,0.0,0.0,0.0,0.0,0.0,0.0,0.0,0.0,0.0,0.0,0.0,0.0,0.0,0.0,0.0,0.0,0.0,0.0,0.0,0.0,0.0,0.0,0.0,0.0,0.0,0.0,0.0,0.0,0.5518,0.7277,0.868,0.9066,0.7984,0.7828,0.7019,0.5268,0.0,0.0,0.0,0.0,0.0,0.0,0.0,0.0,0.0,0.0,0.0,0.0,0.0,0.0,0.0,0.0,0.0,0.0,0.0,0.0,0.0,0.0,0.0,0.0,0.0,0.0,0.0,0.0,0.0,0.0,0.0,0.0,0.0,0.0,0.0,0.0,0.0,0.0,0.0,0.0,0.0,0.0,0.0,0.0,0.0,0.0,0.0,0.0,0.0,0.0,0.0,0.0,0.0,0.0,0.0,0.0,0.0,0.0,0.0,0.0,0.0,0.0,0.0,0.0,0.0,0.0,0.0,0.0,0.0,0.0,0.0,0.0,0.0,0.0,0.0,0.0,0.0,0.0,0.0,0.0,0.0,0.0,0.0,0.0,0.0,0.0,0.0,0.0,0.0,0.0,0.0,0.0,0.0,0.0,0.0,0.0,0.0,0.0,0.0,0.0,0.0,0.0,0.0,0.5563,0.6514,0.7637,0.88,0.9066,0.7984,0.7636,0.6844,0.5392,0.4834,0.0,0.0,0.0,0.0,0.0,0.0,0.0,0.0,0.0,0.0,0.0,0.0,0.0,0.0,0.0,0.0,0.0,0.0,0.0,0.0,0.0,0.0,0.0,0.0,0.0,0.0,0.0,0.0,0.0,0.0,0.0,0.0,0.0,0.0,0.0,0.0,0.0,0.0,0.0,0.0,0.0,0.0,0.0,0.0,0.0,0.0,0.0,0.0,0.0,0.0,0.0,0.0,0.0,0.0,0.0,0.0,0.0,0.0,0.0,0.0,0.0,0.0,0.0,0.0,0.0,0.0,0.0,0.0,0.0,0.0,0.0,0.0,0.0,0.0,0.0,0.0,0.0,0.0,0.0,0.0,0.0,0.0,0.0,0.0,0.0,0.0,0.0,0.0,0.0,0.0,0.0,0.0,0.0,0.0,0.0,0.0,0.0,0.0,0.0,0.0,0.0,0.0,0.6221,0.746,0.7798,0.8874,0.9117,0.8041,0.7461,0.6681,0.5558,0.5628,0.0,0.0,0.0,0.0,0.0,0.0,0.0,0.0,0.0,0.0,0.0,0.0,0.0,0.0,0.0,0.0,0.0,0.0,0.0,0.0,0.0,0.0,0.0,0.0,0.0,0.0,0.0,0.0,0.0,0.0,0.0,0.0,0.0,0.0,0.0,0.0,0.0,0.0,0.0,0.0,0.0,0.0,0.0,0.0,0.0,0.0,0.0,0.0,0.0,0.0,0.0,0.0,0.0,0.0,0.0,0.0,0.0,0.0,0.0,0.0,0.0,0.0,0.0,0.0,0.0,0.0,0.0,0.0,0.0,0.0,0.0,0.0,0.0,0.0,0.0,0.0,0.0,0.0,0.0,0.0,0.0,0.0,0.0,0.0,0.0,0.0,0.0,0.0,0.0,0.0,0.0,0.0,0.0,0.0,0.0,0.0,0.0,0.0,0.0,0.0,0.0,0.0,0.655,0.7943,0.7979,0.901,0.9255,0.8175,0.7586,0.6856,0.5832,0.5719,0.0,0.0,0.0,0.0,0.0,0.0,0.0,0.0,0.0,0.0,0.0,0.0,0.0,0.0,0.0,0.0,0.0,0.0,0.0,0.0,0.0,0.0,0.0,0.0,0.0,0.0,0.0,0.0,0.0,0.0,0.0,0.0,0.0,0.0,0.0,0.0,0.0,0.0,0.0,0.0,0.0,0.0,0.0,0.0,0.0,0.0,0.0,0.0,0.0,0.0,0.0,0.0,0.0,0.0,0.0,0.0,0.0,0.0,0.0,0.0,0.0,0.0,0.0,0.0,0.0,0.0,0.0,0.0,0.0,0.0,0.0,0.0,0.0,0.0,0.0,0.0,0.0,0.0,0.0,0.0,0.0,0.0,0.0,0.0,0.0,0.0,0.0,0.0,0.0,0.0,0.0,0.0,0.0,0.0,0.0,0.0,0.0,0.0,0.0,0.0,0.0,0.0,0.6586,0.8012,0.0,0.9034,0.9267,0.8186,0.7299,0.6518,0.5838,0.0,0.0,0.0,0.0,0.0,0.0,0.0,0.0,0.0,0.0,0.0,0.0,0.0,0.0,0.0,0.0,0.0,0.0,0.0,0.0,0.0,0.0,0.0,0.0,0.0,0.0,0.0,0.0,0.0,0.0,0.0,0.0,0.0,0.0,0.0,0.0,0.0,0.0,0.0,0.0,0.0,0.0,0.0,0.0,0.0,0.0,0.0,0.0,0.0,0.0,0.0,0.0,0.0,0.0,0.0,0.0,0.0,0.0,0.0,0.0,0.0,0.0,0.0,0.0,0.0,0.0,0.0,0.0,0.0,0.0,0.0,0.0,0.0,0.0,0.0,0.0,0.0,0.0,0.0,0.0,0.0,0.0,0.0,0.0,0.0,0.0,0.0,0.0,0.0,0.0,0.0,0.0,0.0,0.0,0.0,0.0,0.0,0.0,0.0,0.0,0.0,0.0,0.4894,0.6747,0.8139,0.0,0.9219,0.933,0.8253,0.7496,0.6716,0.5881,0.0,0.0,0.0,0.0,0.0,0.0,0.0,0.0,0.0,0.0,0.0,0.0,0.0,0.0,0.0,0.0,0.0,0.0,0.0,0.0,0.0,0.0,0.0,0.0,0.0,0.0,0.0,0.0,0.0,0.0,0.0,0.0,0.0,0.0,0.0,0.0,0.0,0.0,0.0,0.0,0.0,0.0,0.0,0.0,0.0,0.0,0.0,0.0,0.0,0.0,0.0,0.0,0.0,0.0,0.0,0.0,0.0,0.0,0.0,0.0,0.0,0.0,0.0,0.0,0.0,0.0,0.0,0.0,0.0,0.0,0.0,0.0,0.0,0.0,0.0,0.0,0.0,0.0,0.0,0.0,0.0,0.0,0.0,0.0,0.0,0.0,0.0,0.0,0.0,0.0,0.0,0.0,0.0,0.0,0.0,0.0,0.0,0.0,0.0,0.0,0.0,0.0,0.5421,0.708,0.8408,0.8932,0.9542,0.9466,0.8399,0.8298,0.761,0.0,0.0,0.0,0.0,0.0,0.0,0.0,0.0,0.0,0.0,0.0,0.0,0.0,0.0,0.0,0.0,0.0,0.0,0.0,0.0,0.0,0.0,0.0,0.0,0.0,0.0,0.0,0.0,0.0,0.0,0.0,0.0,0.0,0.0,0.0,0.0,0.0,0.0,0.0,0.0,0.0,0.0,0.0,0.0,0.0,0.0,0.0,0.0,0.0,0.0,0.0,0.0,0.0,0.0,0.0,0.0,0.0,0.0,0.0,0.0,0.0,0.0,0.0,0.0,0.0,0.0,0.0,0.0,0.0,0.0,0.0,0.0,0.0,0.0,0.0,0.0,0.0,0.0,0.0,0.0,0.0,0.0,0.0,0.0,0.0,0.0,0.0,0.0,0.0,0.0,0.0,0.0,0.0,0.0,0.0,0.0,0.0,0.0,0.0,0.0,0.0,0.0,0.0,0.4963,0.6871,0.8282,0.8479,0.9341,0.9466,0.8399,0.7914,0.7109,0.5773,0.0,0.0,0.0,0.0,0.0,0.0,0.0,0.0,0.0,0.0,0.0,0.0,0.0,0.0,0.0,0.0,0.0,0.0,0.0,0.0,0.0,0.0,0.0,0.0,0.0,0.0,0.0,0.0,0.0,0.0,0.0,0.0,0.0,0.0,0.0,0.0,0.0,0.0,0.0,0.0,0.0,0.0,0.0,0.0,0.0,0.0,0.0,0.0,0.0,0.0,0.0,0.0,0.0,0.0,0.0,0.0,0.0,0.0,0.0,0.0,0.0,0.0,0.0,0.0,0.0,0.0,0.0,0.0,0.0,0.0,0.0,0.0,0.0,0.0,0.0,0.0,0.0,0.0,0.0,0.0,0.0,0.0,0.0,0.0,0.0,0.0,0.0,0.0,0.0,0.0,0.0,0.0,0.0,0.0,0.0,0.0,0.0,0.0,0.0,0.0,0.0,0.0,0.507,0.6948,0.8329,0.8587,0.9579,0.9705,0.8411,0.8363,0.758,0.5641,0.0,0.0,0.0,0.0,0.0,0.0,0.0,0.0,0.0,0.0,0.0,0.0,0.0,0.0,0.0,0.0,0.0,0.0,0.0,0.0,0.0,0.0,0.0,0.0,0.0,0.0,0.0,0.0,0.0,0.0,0.0,0.0,0.0,0.0,0.0,0.0,0.0,0.0,0.0,0.0,0.0,0.0,0.0,0.0,0.0,0.0,0.0,0.0,0.0,0.0,0.0,0.0,0.0,0.0,0.0,0.0,0.0,0.0,0.0,0.0,0.0,0.0,0.0,0.0,0.0,0.0,0.0,0.0,0.0,0.0,0.0,0.0,0.0,0.0,0.0,0.0,0.0,0.0,0.0,0.0,0.0,0.0,0.0,0.0,0.0,0.0,0.0,0.0,0.0,0.0,0.0,0.0,0.0,0.0,0.0,0.0,0.0,0.0,0.0,0.0,0.0,0.0,0.5588,0.7252,0.8575,0.9114,1.0144,1.0131,0.8512,0.9265,0.8579,0.5639,0.0,0.0,0.0,0.0,0.0,0.0,0.0,0.0,0.0,0.0,0.0,0.0,0.0,0.0,0.0,0.0,0.0,0.0,0.0,0.0,0.0,0.0,0.0,0.0,0.0,0.0,0.0,0.0,0.0,0.0,0.0,0.0,0.0,0.0,0.0,0.0,0.0,0.0,0.0,0.0,0.0,0.0,0.0,0.0,0.0,0.0,0.0,0.0,0.0,0.0,0.0,0.0,0.0,0.0,0.0,0.0,0.0,0.0,0.0,0.0,1.1053,0.0,0.0,0.0,0.0,0.0,0.0,0.0,0.0,0.0,0.0,0.0,0.0,0.0,0.0,0.0,0.0,0.0,0.0,0.0,0.0,0.0,0.0,0.0,0.0,0.0,0.0,0.0,0.0,0.0,0.0,0.0,0.0,0.0,0.0,0.0,0.0,0.0,0.0,0.0,0.0,0.0,0.61,0.781,0.9139,0.9667,1.0734,1.0748,0.9063,0.9139,0.8291,0.6019,0.0,0.0,0.0,0.0,0.0,0.0,0.0,0.0,0.0,0.0,0.0,0.0,0.0,0.0,0.0,0.0,0.0,0.0,0.0,0.0,0.0,0.0,0.0,0.0,0.0,0.0,0.0,0.0,0.0,0.0,0.0,0.0,0.0,0.0,0.0,0.0,0.0,0.0,0.0,0.0,0.0,0.0,0.0,0.0,0.0,0.0,0.0,0.0,0.0,0.0,0.0,0.0,0.0,0.0,0.0,0.0,0.0,0.0,0.0,0.0,0.0,1.2696,0.0,0.0,0.0,0.0,0.0,0.0,0.0,0.0,0.0,0.0,0.0,0.0,0.0,0.0,0.0,0.0,0.0,0.0,0.0,0.0,0.0,0.0,0.0,0.0,0.0,0.0,0.0,0.0,0.0,0.0,0.0,0.0,0.0,0.0,0.0,0.0,0.0,0.0,0.0,0.0,0.6282,0.8209,0.9591,0.9868,1.091,1.0924,0.9239,0.91,0.8188,0.604,0.5628,0.0,0.0,0.0,0.0,0.0,0.0,0.0,0.0,0.0,0.0,0.0,0.0,0.0,0.0,0.0,0.0,0.0,0.0,0.0,0.0,0.0,0.0,0.0,0.0,0.0,0.0,0.0,0.0,0.0,0.0,0.0,0.0,0.0,0.0,0.0,0.0,0.0,0.0,0.0,0.0,0.0,0.0,0.0,0.0,0.0,0.0,0.0,0.0,0.0,0.0,0.0,0.0,0.0,0.0,0.0,1.8413,1.8705,1.9041,1.9309,1.7569,1.5881,1.4384,0.0,0.0,0.0,0.0,0.0,0.0,0.0,0.0,0.0,0.0,0.0,0.0,0.0,0.0,0.0,0.0,0.0,0.0,0.0,0.0,0.0,0.0,0.0,0.0,0.0,1.128,1.1006,0.0,0.0,0.0,0.0,0.0,0.0,0.0,0.0,0.0,0.0,0.0,0.0,0.6861,0.877,1.0119,1.032,1.1173,1.11,0.9516,0.9214,0.8234,0.6202,0.6319,0.5664,0.0,0.0,0.0,0.0,0.0,0.0,0.0,0.0,0.0,0.0,0.0,0.0,0.0,0.0,0.0,0.0,0.0,0.0,0.0,0.0,0.0,0.0,0.0,0.0,0.0,0.0,0.0,0.0,0.0,0.0,0.0,0.0,0.7343,0.7957,0.0,0.0,0.0,0.0,0.0,0.0,0.0,0.0,0.0,0.0,0.0,0.0,0.0,0.0,1.7194,1.8659,1.9571,1.9967,2.0019,2.0316,2.0824,2.0871,2.1087,2.1413,2.1243,0.0,1.7894,1.7562,0.0,0.0,0.0,0.0,0.0,0.0,0.0,0.0,0.0,0.0,0.0,0.0,0.0,0.0,0.0,0.0,0.0,0.0,0.0,0.0,0.0,0.0,1.4821,1.3871,1.3991,1.4287,0.0,1.2349,1.044,0.9289,0.0,0.0,0.0,0.0,0.0,0.0,0.0,0.0,0.8998,1.0038,1.0971,1.1961,1.22,1.1798,1.0595,0.9629,0.8561,0.7278,0.6382,0.5812,0.558,0.4746,0.0,0.0,0.0,0.0,0.0,0.0,0.0,0.0,0.0,0.0,0.0,0.0,0.0,0.0,0.0,0.0,0.0,0.0,0.0,0.0,0.0,0.0,0.0,0.0,0.0,0.0,0.0,0.0,0.0,0.7823,0.928,1.0015,1.0509,1.0699,0.0,0.0,0.0,0.0,0.0,0.0,0.0,0.0,0.0,1.6265,1.7533,1.8579,1.9419,2.0494,2.1398,2.2093,2.2556,2.304,2.3555,2.3428,2.3476,2.3593,2.3298,2.2418,2.1069,1.9575,1.7648,1.5697,0.0,0.0,0.0,0.0,0.0,1.4006,1.425,0.0,0.0,0.0,0.0,0.0,0.0,0.0,0.0,0.0,0.0,0.0,0.0,0.0,0.0,1.511,1.4947,1.4896,1.4896,1.4025,1.2877,0.0,1.0682,0.9717,0.8573,0.0,0.0,0.0,0.0,0.0,0.954,1.0602,1.1512,1.2312,1.2128,1.1613,1.0769,0.9717,0.8612,0.7468,0.6953,0.6457,0.5925,0.5582,0.4904,0.0,0.0,0.0,0.0,0.0,0.0,0.0,0.0,0.0,0.0,0.0,0.0,0.0,0.0,0.0,0.0,0.0,0.0,0.0,0.0,0.0,0.0,0.0,0.0,0.0,0.0,0.0,0.0,0.9633,1.1118,1.2045,1.2395,1.245,0.0,0.0,0.0,0.0,0.0,0.0,1.5616,1.6111,1.7055,1.8586,1.9456,2.0266,2.1092,2.1892,2.2643,2.3405,2.4228,2.4834,2.5205,2.5213,2.5184,2.5188,2.4739,2.4266,2.3691,2.1485,1.9608,1.81,1.8178,1.7561,0.0,1.7721,1.756,1.6853,1.6876,1.6816,1.6751,1.6798,0.0,1.5363,1.5543,0.0,0.0,0.0,0.0,1.5686,1.6082,0.0,1.612,1.612,1.5713,1.5311,1.5311,1.5198,1.4682,0.0,1.2329,1.1379,1.0229,0.0,0.0,0.0,0.0,0.8947,1.01,1.103,1.1801,1.2337,1.1914,1.1412,1.0971,0.9679,0.8537,0.7678,0.7366,0.6864,0.6127,0.6127,0.5524,0.4188,0.0,0.0,0.0,0.0,0.0,0.0,0.0,0.0,0.0,0.0,0.0,0.0,0.0,0.0,0.0,0.0,0.0,0.0,0.0,0.0,0.0,0.0,0.0,0.0,0.0,0.0,0.0,0.0,0.0,1.3854,1.4801,0.0,0.0,0.0,0.0,1.5397,1.6235,1.7089,1.7816,1.8587,1.926,1.9802,2.1193,2.2039,2.221,2.2751,2.3244,2.3688,2.4161,2.4628,2.5014,2.5521,2.5754,2.5754,2.5715,2.5688,2.5519,2.3757,2.2034,2.0581,2.108,2.0597,1.9669,2.0281,2.0502,2.0268,1.9146,1.9509,2.0242,1.9133,1.8321,1.7718,1.7185,1.6519,0.0,0.0,1.7093,1.7473,1.7498,1.74,1.7322,1.7322,1.6861,1.6412,1.6412,1.6019,1.5146,0.0,1.3002,1.2551,1.1403,0.0,0.0,1.1057,1.0317,1.0125,1.127,1.152,1.1801,1.2337,1.1914,1.159,1.1565,0.9579,0.8324,0.825,0.7247,0.6646,0.6651,0.6243,0.5814,0.5419,0.4351,0.0,0.0,0.0,0.0,0.0,0.0,0.0,0.0,0.0,0.0,0.0,0.0,0.0,0.0,0.0,0.0,0.0,0.0,0.0,0.0,0.0,0.0,0.0,0.0,0.0,0.0,0.0,0.0,1.6654,1.6807,0.0,0.0,1.8128,1.8485,1.8995,1.9483,2.0051,2.0661,2.0803,2.1138,2.1744,2.219,2.2519,2.2754,2.2657,2.3082,2.4038,2.4677,2.5283,2.5912,2.6239,2.6373,2.6347,2.5981,2.5793,2.5741,2.5114,2.4099,2.2871,2.2675,2.2126,2.1498,2.1695,2.1786,2.1721,2.1302,2.142,2.1616,2.0438,1.9856,1.9435,1.8487,1.7958,1.774,1.7946,1.806,1.8098,1.8098,1.8019,1.7815,1.7486,1.7247,1.6974,1.6575,1.6337,1.5923,1.497,1.42,1.3586,1.3163,1.2319,1.1765,1.1983,1.1415,1.1232,1.1968,1.2099,1.2312,1.2864,1.2128,1.1603,1.1603,0.9893,0.8812,0.8812,0.7738,0.7143,0.7217,0.6807,0.6352,0.5895,0.5226,0.4565,0.0,0.0,0.0,0.0,0.0,0.0,0.0,0.0,0.0,0.0,0.0,0.0,0.0,0.0,0.0,0.0,0.0,0.0,0.0,0.0,0.0,0.0,0.0,0.0,0.0,0.0,1.7519,1.9148,1.9207,1.9545,2.0552,2.0698,2.0944,2.1504,2.1779,2.2127,2.2531,2.2288,2.2464,2.3063,2.3143,2.3248,2.3483,2.3122,2.346,2.4467,2.517,2.5861,2.6517,2.6834,2.6961,2.6948,2.6556,2.6367,2.6367,2.6367,2.5806,2.4922,2.4292,2.3864,2.3539,2.3343,2.3291,2.321,2.282,2.2545,2.2297,2.1537,2.1081,2.0705,1.9926,1.9525,1.9322,1.9322,1.9155,1.901,1.901,1.8726,1.8368,1.8028,1.7652,1.7297,1.6886,1.6638,1.6387,1.6045,1.5248,1.4525,1.4166,1.3463,1.2893,1.2701,1.22,1.2002,1.235,1.24,1.2538,1.2885,1.214,1.1603,1.1603,1.0057,0.91,0.91,0.8026,0.7432,0.7528,0.7299,0.6847,0.6152,0.5629,0.4971,0.4168,0.0,0.0,0.0,0.0,0.0,0.0,0.0,0.0,0.0,0.0,0.0,0.0,0.0,0.0,0.0,0.0,0.0,0.0,0.0,0.0,0.0,0.0,0.0,1.6113,1.8566,2.0558,2.1218,2.2005,2.24,2.2126,2.2372,2.2648,2.2866,2.3143,2.326,2.325,2.3047,2.32,2.3723,2.4048,2.4342,2.4526,2.4345,2.4503,2.504,2.5652,2.6186,2.6714,2.7255,2.749,2.749,2.749,2.749,2.749,2.749,2.7196,2.668,2.6073,2.5806,2.5728,2.5214,2.4992,2.4809,2.3642,2.2884,2.244,2.2427,2.2021,2.1538,2.1525,2.1158,2.0725,2.0725,2.0486,2.0207,2.0207,1.9623,1.902,1.9008,1.8216,1.7448,1.741,1.6936,1.6525,1.65,1.6082,1.5399,1.4324,1.4128,1.3909,1.3328,1.2776,0.0,1.2413,1.2413,1.2413,1.2413,1.1927,1.1603,1.1603,1.0057,0.9113,0.9126,0.8051,0.7499,0.7646,0.7694,0.7258,0.626,0.5545,0.5095,0.4922,0.0,0.0,0.0,0.0,0.0,0.0,0.0,0.0,0.0,0.0,0.0,0.0,0.0,0.0,0.0,0.0,0.0,0.0,0.0,0.0,0.0,0.0,1.8669,1.867,2.0093,2.1542,2.2738,2.2794,2.3107,2.4131,2.4102,2.4321,2.5005,2.4829,2.4728,2.474,2.4108,2.3954,2.4389,2.4802,2.5015,2.5076,2.504,2.5241,2.5652,2.607,2.6483,2.6939,2.7323,2.749,2.749,2.749,2.749,2.749,2.749,2.7398,2.7236,2.6661,2.619,2.5728,2.5214,2.473,2.4308,2.3981,2.3759,2.3563,2.3119,2.2871,2.2647,2.2283,2.1747,2.1276,2.1276,2.0759,2.0207,2.0207,1.9889,1.9497,1.9096,1.877,1.8355,1.7574,1.7262,1.7024,1.6575,1.6375,1.607,1.5387,1.4614,1.4035,1.3883,0.0,0.0,1.2973,1.2973,1.2973,1.2973,1.2153,1.1603,1.1603,1.0057,0.9265,0.0,0.8651,0.8268,0.8733,0.8547,0.7997,0.7091,0.6914,0.6397,0.0,0.0,0.0,0.0,0.0,0.0,0.0,0.0,0.0,0.0,0.0,0.0,0.0,0.0,0.0,0.0,0.0,0.0,0.0,0.0,0.0,0.0,1.921,2.0549,2.1461,2.2238,2.3086,2.4046,2.4128,2.446,2.5348,2.5178,2.5265,2.5851,2.5618,2.5453,2.5535,2.5171,2.5133,2.5541,2.6177,2.6514,2.6514,2.6514,2.6545,2.6627,2.687,2.7032,2.7121,2.739,2.749,0.0,2.749,2.749,2.749,2.749,2.749,0.0,0.0,0.0,0.0,0.0,2.4818,2.4083,2.4083,2.4083,2.4031,2.3678,2.3391,2.313,2.2844,2.2335,2.1812,2.1577,2.1082,2.0617,2.0386,2.0105,1.9812,1.9485,1.9183,1.8832,1.8204,1.7714,1.731,1.6948,0.0,0.0,1.6095,1.5336,1.4689,1.4462,1.3941,1.3584,0.0,1.3366,1.3198,1.3198,1.2438,1.1839,1.1615,1.0484,0.0,0.0,0.0,0.8831,0.9264,0.8964,0.0,0.0,0.0,0.0,0.0,0.0,0.0,0.0,0.6219,0.6583,0.0,0.0,0.0,0.0,0.0,0.0,0.0,0.0,0.0,0.0,0.0,0.0,0.0,0.0,0.0,0.0,2.0811,2.1968,2.3904,2.4463,2.482,2.5185,2.566,2.5943,2.5968,2.5711,2.5665,2.5961,2.5773,2.5798,2.6082,0.0,0.0,0.0,0.0,2.8315,2.8315,2.8252,2.8045,2.7678,2.7754,2.7597,2.7335,2.7469,2.749,2.749,2.749,2.749,2.749,2.749,2.749,2.749,2.749,2.7451,2.7268,2.6184,2.5114,0.0,0.0,0.0,0.0,2.4083,2.3731,2.3287,2.3287,2.291,2.2375,2.1838,2.1511,2.1199,2.0719,2.031,1.999,1.999,1.9535,1.907,1.9008,1.8204,1.7473,1.741,1.6911,1.65,1.65,1.6057,1.553,1.506,1.4525,0.0,1.4116,1.3622,1.3273,1.321,0.0,0.0,1.1741,1.1134,1.0595,1.0119,0.9579,0.9348,0.9485,0.9228,0.937,0.9998,0.9664,0.9227,0.872,0.8784,0.8231,0.7155,0.8252,0.802,0.0,0.0,0.0,0.0,0.0,0.0,0.0,0.0,0.0,0.0,0.0,0.0,0.0,0.0,0.0,2.1329,2.2372,2.3317,2.3966,2.4682,2.5366,2.5933,2.6193,2.6311,2.6289,2.5734,2.5682,2.6489,2.6226,2.6432,2.7383,2.7628,0.0,2.8295,2.8818,2.9097,2.9097,2.8616,2.8317,2.8235,0.0,0.0,2.7469,2.749,2.749,2.749,2.749,2.749,2.749,2.749,2.749,2.749,2.749,2.7249,2.6752,2.6073,2.5393,2.4769,2.4282,2.4083,2.4083,2.4083,2.4005,2.3913,2.3913,2.3496,0.0,2.2895,2.2122,2.1289,2.1173,2.0591,1.999,1.999,1.9812,1.9535,1.9096,1.8505,1.7915,1.7486,1.6911,1.65,1.65,1.6057,1.5655,1.5555,1.5085,1.4588,1.4166,1.3997,1.374,1.3248,1.2726,1.235,1.225,1.1738,1.1374,1.1289,1.0777,1.0365,1.0142,1.017,1.0153,1.0076,1.0067,0.9836,0.9409,0.9899,1.002,0.9735,0.8445,0.7439,0.0,0.0,0.0,0.0,0.0,0.0,0.0,0.0,0.0,0.0,0.0,1.8496,1.988,0.0,2.2274,2.2953,2.3314,2.3735,2.4425,2.4968,2.5523,2.6129,2.6496,2.6633,2.6414,2.6237,2.6343,2.6828,2.6918,2.7298,2.8059,2.8568,2.8977,2.9246,2.9835,3.0137,3.0137,2.9836,2.9392,2.8865,2.8543,2.8098,2.749,2.749,2.749,2.749,2.749,2.749,2.749,2.749,2.749,2.749,2.749,2.7183,2.6667,2.6347,2.5738,2.4966,2.4635,2.4347,2.4083,2.4083,2.4083,2.4083,2.4083,2.3874,2.3574,2.3274,2.2554,2.1784,2.1498,2.0836,2.0258,2.0258,2.0105,1.9927,1.9661,1.8964,1.8316,1.8037,1.7245,1.6599,1.6599,1.6317,1.6107,1.6107,1.563,1.511,1.4576,1.428,1.3871,1.3248,1.2947,1.2689,1.2413,1.1914,1.1462,1.1173,1.0929,1.0619,1.0224,1.0361,1.0473,1.0495,1.0599,1.0613,1.0544,1.0513,1.0502,1.0473,0.9193,0.8607,0.0,0.0,0.0,0.0,0.0,0.0,0.0,0.0,1.7666,1.9657,2.0263,2.0928,2.239,2.3147,2.3737,2.4294,2.4002,2.4038,2.4992,2.53,2.5629,2.6233,2.6769,2.6973,2.6598,2.6749,2.7005,2.7264,2.7652,2.8135,2.8766,2.947,2.9912,3.001,3.0664,3.0986,3.0986,3.0869,3.0294,2.931,2.9192,2.8556,2.749,2.749,2.749,2.749,2.749,2.749,2.749,2.749,2.749,2.749,2.749,2.7249,2.6831,2.6745,2.6052,2.5149,2.5044,2.4596,2.4083,2.4083,2.4083,2.4083,2.4083,2.4083,2.3992,2.3496,2.291,2.2296,2.1799,2.1095,2.0486,2.0486,2.0347,2.0207,2.0207,1.935,1.8605,1.8605,1.7572,1.6697,1.6697,1.6599,1.65,1.65,1.6132,1.5618,1.4972,1.4525,1.3979,1.3273,1.3198,1.304,1.2588,1.2165,1.1613,1.0921,1.0927,1.0693,1.0097,1.0249,1.051,1.0849,1.0991,1.1215,1.1489,1.1089,1.0864,1.0864,1.0504,1.033,1.3229,1.473,1.6873,1.7824,1.8608,1.9225,0.0,0.0,2.048,2.1154,2.2346,2.3313,2.3529,2.4429,2.5073,2.4791,2.481,2.498,2.5488,2.5699,2.6035,2.6577,2.7121,2.7403,2.7235,2.6764,2.6977,2.814,2.8119,2.8683,3.0112,3.058,3.0857,3.0882,3.0947,3.0986,3.0986,3.049,2.9915,2.931,2.8773,2.815,2.749,2.749,2.749,2.749,2.749,2.749,2.749,2.749,2.749,2.749,2.749,2.7451,2.7333,2.6902,2.6269,2.5654,2.5175,2.4596,2.4083,2.4083,2.4083,2.4083,2.4083,2.4083,2.4099,2.4005,2.3223,2.2375,2.231,2.1394,2.0486,2.0486,2.0347,2.0207,2.0207,1.935,1.8605,1.8605,1.7572,1.6697,1.6697,1.6599,1.65,1.65,1.645,1.6045,1.5022,1.4853,1.4406,1.3311,1.3198,1.3173,1.311,1.3048,1.2588,1.1563,1.1502,1.1025,0.9969,1.0059,1.0323,1.0705,1.0849,1.1108,1.1489,1.196,1.2195,1.2209,1.2727,1.1794,1.7328,1.7891,1.8927,2.0409,2.1208,2.1794,2.2322,2.2568,2.2942,2.3869,2.4507,2.4976,2.538,2.5741,2.5952,0.0,2.5401,2.5382,2.5886,2.6082,2.6346,2.6803,2.7255,2.7469,2.7302,2.7259,2.7434,2.801,2.8611,2.9258,2.9992,3.0641,3.0986,3.0986,3.0986,3.0986,3.0986,3.0751,3.0176,2.931,2.9026,2.8412,2.749,2.749,2.749,2.749,2.749,2.749,2.749,2.749,2.749,2.749,2.749,2.749,2.7464,2.7262,2.6595,2.5754,2.555,2.487,2.4083,2.4083,2.4083,2.4083,2.4083,2.4083,2.4083,2.4083,2.3263,2.2388,2.2388,2.1511,2.0612,2.0612,2.0549,2.0498,2.0498,1.9579,1.8776,1.8776,1.7746,1.6854,1.6854,1.6791,1.6727,1.6727,1.6607,1.612,1.5035,1.4896,1.4469,1.3323,1.3198,1.3198,1.3198,1.3198,1.2889,1.2115,1.2065,1.1713,1.091,1.1013,1.1291,1.1736,1.1881,1.2153,1.2621,1.2871,1.2989,1.2989,1.3278,1.2827,2.0022,2.0219,2.0665,2.2097,2.293,2.3542,2.4073,2.435,2.4708,2.5613,2.5764,2.5941,2.6544,2.6451,2.6285,2.6402,2.5943,2.5734,2.6267,2.6461,2.6701,2.704,2.7323,2.7469,2.7369,2.7575,2.7781,2.7945,2.873,2.9344,2.9658,3.0207,3.0516,3.0516,3.0516,3.0516,3.0516,3.0516,3.0019,2.9061,2.9061,2.8503,2.749,2.749,2.749,2.749,2.749,2.749,2.749,2.749,2.749,2.749,2.749,2.749,2.749,2.749,2.6876,2.6033,2.5845,2.5171,2.4321,2.4164,2.4083,2.4083,2.4083,2.4083,2.4083,2.4083,2.338,2.2584,2.2427,2.1655,2.087,2.0738,2.0699,2.0699,2.0699,1.9889,1.9107,1.8937,1.8004,1.7204,1.7028,1.6939,1.6897,1.6897,1.6735,1.6216,1.5112,1.4689,1.4166,1.3303,1.3198,1.3198,1.3198,1.3198,1.296,1.2425,1.24,1.2165,1.1628,1.1725,1.2022,1.2496,1.2636,1.2939,1.3394,1.3569,1.3569,1.3394,1.3569,1.3656,1.9346,2.0614,2.1962,2.2481,2.3396,2.4181,2.4194,2.4888,2.5565,2.5598,2.5777,2.6033,2.642,2.6181,2.6059,2.6433,2.6302,2.6302,2.6645,2.685,2.704,2.7268,2.739,2.749,0.0,2.7516,2.7751,2.8333,2.8412,2.8686,2.9274,2.9327,2.9362,2.9362,2.9362,2.9362,2.9362,2.9362,2.9048,2.8446,2.8446,2.8098,2.749,2.749,2.749,2.749,2.749,2.749,2.749,2.749,2.749,2.749,2.749,2.749,2.749,2.749,2.7157,2.6601,2.6007,2.5432,2.4887,2.4295,2.4083,2.4083,2.4083,2.4083,2.4083,2.4083,2.3639,2.3067,2.2532,2.1956,2.1342,2.0805,2.0699,2.0699,2.0699,2.0216,1.9603,1.9015,1.8338,1.7691,1.7093,1.6939,1.6897,1.6897,1.6876,1.6478,1.5331,1.4164,1.3378,1.3215,1.3198,1.3198,1.3198,1.3198,1.296,1.2425,1.24,1.2165,1.1628,1.1725,1.2022,1.2496,1.2636,1.2939,1.3394,1.3992,1.3963,1.3409,1.3992,1.4268,2.1915,2.2342,2.272,2.3627,2.3742,2.3813,2.4398,2.4972,2.5367,2.5305,2.5178,2.5187,2.5519,2.5327,2.5313,2.5979,2.6235,2.6461,2.6837,2.7154,2.7356,2.7423,2.7469,0.0,0.0,0.0,0.0,2.7798,2.8164,2.8499,2.8708,2.91,2.931,2.931,2.931,2.931,2.931,2.931,2.9009,2.842,2.7994,2.7686,2.749,2.749,2.749,2.749,2.749,2.749,2.749,2.749,2.749,2.749,2.749,2.749,2.749,2.749,2.7372,2.7105,2.6119,2.5445,2.49,2.4308,2.4083,2.4083,2.4083,2.4083,2.4083,2.4083,2.3652,2.3171,2.2975,2.223,2.1459,2.1263,2.0962,2.0699,2.0699,2.0242,1.963,1.9028,1.8444,1.7839,1.724,1.7115,1.6977,1.6614,1.6117,1.5613,1.512,1.409,1.334,1.3215,1.3198,1.3198,1.3198,1.3198,1.3123,1.2935,1.3011,1.2989,1.2877,1.3058,1.338,1.3818,1.4012,1.428,1.466,1.4848,1.4631,1.3992,1.421,1.4094,2.3128,2.3304,2.3397,2.4031,2.3898,2.3671,2.413,2.4555,2.4701,2.4188,2.4048,2.4035,2.4109,2.4223,2.4589,2.5523,2.6041,2.6473,2.7027,2.7323,2.749,2.749,2.749,2.749,0.0,0.0,0.0,2.749,2.7863,2.8072,2.8072,2.8451,2.866,2.866,2.866,2.866,2.866,2.866,2.8451,2.8072,2.7673,2.749,2.749,2.749,2.749,2.749,2.749,2.749,2.749,2.749,2.749,2.749,2.749,2.749,2.749,2.749,2.749,2.7333,2.6184,2.5576,2.5145,2.4374,2.4083,2.4083,2.4083,2.4083,2.4083,2.4083,2.3809,2.3456,2.3276,2.2504,2.1786,2.1538,2.1093,2.0699,2.0699,2.0399,1.9865,1.9054,1.8623,1.8127,1.7342,1.7199,1.7081,1.6728,1.6074,1.5441,1.4903,1.4213,1.3654,1.3296,1.3267,1.3267,1.3267,1.3267,1.3284,1.3306,1.3455,1.3577,1.3682,1.3911,1.4238,1.4643,1.478,1.498,1.5298,1.5298,1.495,1.4297,1.4297,1.4094,2.299,2.3474,2.4036,2.37,2.3761,2.3761,2.3417,2.363,2.3531,2.2344,2.239,2.2568,2.2347,0.0,2.3855,2.5063,2.5755,2.6411,2.7191,2.7436,2.7503,0.0,0.0,0.0,0.0,0.0,0.0,2.7581,0.0,2.7555,2.7581,2.7555,2.7542,2.7542,2.7516,2.749,2.749,2.749,2.749,2.749,2.749,2.749,2.749,2.749,2.749,2.749,2.749,2.749,2.749,2.749,2.749,2.749,2.749,2.749,2.749,2.749,2.749,2.7333,2.6224,2.5819,2.561,2.453,2.4122,2.4083,2.4083,2.4083,2.4083,2.4083,2.4083,2.3981,2.3378,2.2844,2.2269,2.1694,2.1119,2.0699,2.0699,2.0699,2.0334,1.9133,1.8858,1.8479,1.7382,1.7199,1.7199,1.7199,1.6767,1.5984,1.4759,1.4547,1.4217,1.3527,1.3421,1.3408,1.3408,1.3408,1.3442,1.3514,1.3708,1.3891,1.4019,1.4208,1.4513,1.4921,1.4921,1.5042,1.5298,1.5298,1.495,1.4297,1.4297,1.4283,2.3523,2.3943,2.408,2.3874,2.354,2.3103,2.2664,2.2373,2.1935,2.098,2.0559,2.0495,2.1034,2.1975,0.0,2.4832,2.5894,0.0,2.7345,2.7503,0.0,2.8111,0.0,2.8347,2.8791,2.883,0.0,0.0,2.8412,2.836,2.8817,2.8399,2.8164,2.8164,2.7745,2.749,2.749,2.749,2.749,2.749,2.749,2.749,2.749,2.749,2.749,2.749,2.749,2.749,2.749,2.749,2.749,2.749,2.749,2.749,2.749,2.749,2.749,2.7385,2.6713,2.6177,2.5707,2.4988,2.4465,2.4083,2.4083,2.4083,2.4083,2.4083,2.4083,2.4044,2.39,2.313,2.2361,2.2218,2.1407,2.0699,2.0699,2.0699,2.0334,1.9133,1.8218,1.7539,1.7251,1.7199,1.7199,1.7199,1.7081,1.6701,1.5873,1.5025,1.4372,1.4027,1.3684,1.3459,1.3408,1.348,1.3611,1.3708,1.3914,1.413,1.4358,1.4611,1.4873,1.5132,1.5163,1.5223,1.5298,1.5298,1.495,1.4297,1.4297,1.4065,2.3593,2.3895,2.3936,2.3703,2.3143,2.2521,2.1914,2.127,2.0486,1.9389,1.8893,1.8794,1.9258,2.0398,0.0,0.0,0.0,0.0,2.704,2.7589,2.802,0.0,2.8643,0.0,2.9284,2.931,2.9379,0.0,2.9104,2.8957,2.9297,2.8747,2.842,2.842,2.7824,2.749,2.749,2.749,2.749,2.749,2.749,2.749,2.749,2.749,2.749,2.749,0.0,2.749,2.749,2.749,2.749,2.749,2.749,2.749,2.749,2.749,2.749,2.7451,2.7157,2.6674,2.6059,2.5267,2.4783,2.4452,2.4191,2.4083,2.4083,2.4083,2.4083,2.4083,2.4083,2.3263,2.24,2.2401,2.1537,2.0699,2.0699,2.0699,2.0334,1.9133,1.8192,1.7512,1.7251,1.7199,1.7199,1.7199,1.7199,1.706,1.6686,1.588,1.5083,1.4403,1.4092,1.3814,1.3506,1.3644,1.3812,1.4007,1.4257,1.4547,1.483,1.5028,1.5209,1.5373,1.5344,1.5329,1.5329,1.5313,1.5109,1.4732,1.4732,1.4558,2.3347,2.3521,2.3714,2.3335,2.2772,2.2087,2.1217,2.0287,1.9235,1.781,0.0,1.7342,1.7381,1.8587,2.0139,2.1878,0.0,2.5293,2.6431,2.7648,2.8446,2.8525,2.9026,2.9454,2.9532,2.9545,2.9706,3.0179,2.9719,2.9431,2.9497,2.8935,2.8577,2.8386,2.7902,2.7568,2.749,2.749,2.749,2.749,2.749,2.749,2.749,2.749,2.749,2.749,0.0,0.0,2.749,2.749,2.749,2.749,2.749,2.749,2.749,2.749,2.749,2.749,2.749,2.721,2.6641,2.5568,2.5123,2.49,2.4387,2.4178,2.4083,2.4083,2.4083,2.4083,2.4083,2.3263,2.24,2.2401,2.1537,2.0699,2.0699,2.0646,2.0242,1.912,1.8466,1.7904,1.7303,1.7199,1.7199,1.7199,1.7199,1.7199,1.7199,1.6728,1.5958,1.485,1.4603,1.4288,1.3753,1.3847,1.4056,1.4303,1.4637,1.498,1.5314,1.5389,1.5522,1.5728,1.5522,1.5462,1.5535,1.5387,1.5313,1.5298,1.5298,1.5328,2.2956,2.3084,2.315,2.3075,2.2652,2.1988,2.0875,1.9622,0.0,0.0,1.6223,1.5944,1.623,1.7441,1.8973,2.0725,2.2818,2.4661,2.5811,2.7366,2.8603,0.0,0.0,0.0,0.0,0.0,0.0,0.0,0.0,0.0,3.066,3.015,2.9392,2.8446,2.8281,2.8007,2.749,2.749,2.749,2.749,2.749,2.749,2.749,2.749,2.749,2.749,0.0,0.0,2.749,2.749,2.749,2.749,2.749,2.749,2.749,2.749,2.749,2.749,2.749,2.7425,2.7275,2.6627,2.5777,2.4979,2.4887,2.4491,2.4083,2.4083,2.4083,2.4083,2.4083,2.3263,2.24,2.2401,2.1537,2.0699,2.0699,2.0308,1.9747,1.9041,1.8466,1.7904,1.7303,1.7199,1.7199,1.7199,1.7199,1.7199,1.7199,1.6728,1.627,1.5951,1.5112,1.4519,1.4365,1.4218,1.4238,1.4452,1.4782,1.5134,1.5448,1.5536,1.5847,1.6411,1.5862,1.5787,1.6238,1.5667,1.5344,1.5298,1.5298,1.5313,2.3058,2.3224,2.3243,2.2988,2.2369,2.1507,2.0272,0.0,0.0,0.0,1.5504,1.5018,1.555,1.6243,0.0,1.9064,2.1263,2.3234,2.4696,2.6674,0.0,0.0,0.0,0.0,0.0,0.0,0.0,0.0,0.0,0.0,3.096,3.0451,2.9565,2.8446,2.842,2.8111,2.7503,2.749,2.749,2.749,2.749,2.749,2.749,2.749,2.749,2.749,0.0,0.0,2.749,2.749,2.749,2.749,2.749,2.749,2.749,2.749,2.749,2.749,2.749,2.749,2.7451,2.721,2.6347,2.5354,2.5083,2.457,2.4083,2.4083,2.4083,2.4083,2.4083,2.3443,2.2753,2.2467,2.1537,2.0699,2.0699,2.0465,2.0098,1.9486,1.8911,1.8336,1.7761,1.7408,1.7199,1.7199,1.7199,1.7199,1.7199,1.7051,1.6756,1.6342,1.5846,1.5259,1.4623,1.4626,1.4664,1.4653,1.4966,1.5314,1.5639,1.5995,1.6323,1.665,1.6634,1.6765,1.7012,1.6669,1.6475,1.6427,1.6411,1.6411,2.3276,2.3519,2.3579,2.3084,2.224,2.1177,1.9808,1.8032,0.0,1.5937,1.4952,1.4341,1.4878,1.5151,1.584,1.7473,1.9656,2.1747,2.3498,2.5824,2.7732,0.0,0.0,0.0,0.0,0.0,0.0,0.0,0.0,0.0,0.0,3.0555,2.9784,2.8643,2.8603,2.8242,2.7503,2.749,2.749,2.749,2.749,2.749,2.749,2.749,2.749,2.749,0.0,0.0,0.0,2.749,2.749,2.749,2.749,2.749,2.749,2.749,2.749,2.749,2.749,2.749,2.749,2.749,2.672,2.5702,2.5288,2.4661,2.4083,2.4083,2.4083,2.4083,2.4083,2.3639,2.3041,2.2375,2.1511,2.0831,2.0725,2.0699,2.0504,1.9917,1.942,1.8885,1.8218,1.7708,1.7356,1.7212,1.7199,1.7199,1.7199,1.7316,1.724,1.6751,1.6573,1.6112,1.5188,1.529,1.5362,1.5264,1.555,1.5873,1.6189,1.6667,1.698,1.713,1.7455,1.7691,1.7809,1.7624,1.7515,1.7497,1.7464,1.7432,2.3334,2.3827,2.3969,2.3605,2.2741,2.1525,1.9859,0.0,1.5994,1.5093,1.4348,1.3862,1.3931,1.435,1.5082,1.6349,1.8466,2.0557,2.231,2.4992,2.6987,0.0,0.0,0.0,0.0,0.0,0.0,0.0,0.0,0.0,0.0,3.0934,3.0385,2.9235,2.9231,2.866,2.7503,2.749,2.749,2.749,2.749,2.749,2.749,2.749,2.749,2.749,0.0,0.0,0.0,2.749,2.749,2.749,2.749,2.749,2.749,2.749,2.749,2.749,2.749,2.749,2.749,2.749,2.672,2.578,2.5728,2.4944,2.4083,2.4083,2.4083,2.4083,2.4083,2.3639,2.2936,2.1851,2.1511,2.1289,2.0817,2.0699,2.0504,1.9917,1.976,1.9368,1.8283,1.8048,1.7826,1.7277,1.7199,1.7199,1.7199,1.7365,1.7544,1.7659,1.7128,1.6784,1.6778,1.6532,1.6473,1.6696,1.6965,1.7228,1.7518,1.7594,1.7893,1.8508,1.7966,1.7964,1.851,1.7898,1.7566,1.7497,1.7497,1.7464,2.358,2.4318,2.4626,2.3845,2.2906,2.1682,1.9749,1.7639,1.5874,1.5081,1.4323,1.3804,1.3804,1.3958,1.4393,1.5204,1.6963,1.8832,2.0595,2.3001,2.5197,0.0,0.0,0.0,0.0,0.0,0.0,0.0,0.0,0.0,0.0,3.0477,2.9941,2.8778,2.8773,2.8347,2.7503,2.749,2.749,2.749,2.749,2.749,2.749,2.749,2.749,2.749,0.0,0.0,0.0,2.749,2.749,2.749,2.749,2.749,2.749,2.749,2.749,2.749,2.749,2.749,2.749,2.749,2.672,2.5793,2.5793,2.4997,2.4083,2.4083,2.4083,2.4083,2.4083,2.3639,2.3014,2.2244,2.1839,2.1471,2.0992,2.0873,2.0807,2.0569,2.0204,1.9751,1.9235,1.8577,1.8105,1.7945,1.7686,1.7522,1.7604,1.7808,1.7996,1.8206,1.7875,1.7567,1.7385,1.7341,1.7277,1.7086,1.729,1.7487,1.7697,1.8087,1.8433,1.8702,1.8837,1.9014,1.925,1.8996,1.886,1.8825,1.8785,1.875,2.3501,2.4434,2.4852,2.3847,2.2824,2.1525,1.9445,1.7357,1.5652,1.4936,1.4261,1.3804,1.3804,1.3804,1.3988,1.4507,1.5918,1.7565,1.929,2.1368,0.0,0.0,0.0,0.0,0.0,0.0,0.0,0.0,0.0,0.0,0.0,2.9614,2.9235,2.8446,2.842,2.8111,2.7503,2.749,2.749,2.749,2.749,2.749,2.749,2.749,2.749,0.0,0.0,0.0,0.0,2.749,2.749,2.749,2.749,2.749,2.749,2.749,2.749,2.749,2.749,2.749,2.749,2.749,2.672,2.5793,2.5793,2.4997,2.4083,2.4083,2.4083,2.4083,2.4083,2.377,2.3302,2.2571,2.222,2.1875,2.1255,2.1106,2.1106,2.1106,2.0664,2.0188,1.985,1.9245,1.872,1.8527,1.8265,1.8113,1.8077,1.8248,1.845,1.8649,1.8606,1.8417,1.8077,1.82,1.8176,1.787,1.8027,1.8164,1.8296,1.8747,1.8897,1.8702,1.9151,1.9301,1.9106,1.9106,1.9106,1.9106,1.9051,1.9135,2.2899,2.3998,2.4467,2.3536,2.24,2.0972,1.8876,1.6886,1.5287,1.4465,1.4042,1.3804,1.3804,1.3804,1.3988,1.4507,1.5617,1.699,1.8675,2.0427,0.0,0.0,0.0,0.0,0.0,0.0,0.0,0.0,0.0,0.0,0.0,0.0,2.842,2.842,2.842,2.8111,2.7503,2.749,2.749,2.749,2.749,2.749,2.749,2.749,0.0,0.0,0.0,0.0,0.0,2.749,2.749,2.749,2.749,2.749,2.749,2.749,2.749,2.749,2.749,2.749,2.749,2.749,2.672,2.5793,2.5793,2.4997,2.4083,2.4083,2.4083,2.4083,2.4083,2.4112,2.3812,2.2663,2.259,2.2537,2.1583,2.1399,2.1399,2.1399,2.118,2.0737,1.9952,2.0001,1.9846,1.8857,1.8926,1.8947,1.8545,1.8669,1.886,1.9064,1.9265,1.9321,1.9087,1.9213,1.9306,1.938,1.949,1.9599,1.9693,1.9693,1.9393,1.8717,1.8717,1.8371,1.7712,1.7712,1.7712,1.7712,1.7712,1.8037,2.1325,2.2707,2.3517,2.2076,2.1482,2.0539,1.7903,1.6244,1.5088,1.456,1.3769,1.332,1.3726,1.3804,1.3857,1.4027,1.5034,1.6232,1.7552,0.0,0.0,0.0,0.0,0.0,0.0,0.0,0.0,0.0,0.0,0.0,0.0,0.0,2.8203,2.7811,2.7798,2.7673,2.749,2.749,2.749,2.749,2.749,2.749,2.749,2.749,0.0,0.0,0.0,0.0,0.0,2.749,2.749,2.749,2.749,2.749,2.749,2.749,2.749,2.749,2.749,2.749,2.749,2.749,2.672,2.5793,2.5793,2.4997,2.4141,2.4305,2.4405,2.4419,2.4392,2.4405,2.4156,2.2962,2.2951,2.2979,2.2118,2.1949,2.1949,2.1949,2.1722,2.1403,2.0963,2.0775,2.0635,2.0504,2.0323,2.0215,2.0269,1.9971,1.9812,1.9981,1.9716,1.9523,1.9508,1.9545,1.9581,1.9599,1.9636,1.9672,1.9708,1.9708,1.9603,1.9393,1.9375,1.9271,1.9061,1.9061,1.9061,1.9061,1.9061,1.9143,1.9365,2.0758,2.1466,2.0231,1.9766,1.899,1.6515,1.5254,1.4415,1.3709,1.322,1.3019,1.3399,1.3647,1.3804,1.3804,1.4773,1.597,0.0,0.0,0.0,0.0,0.0,0.0,0.0,0.0,0.0,0.0,0.0,0.0,0.0,0.0,2.7902,2.7503,2.749,2.749,2.749,2.749,2.749,2.749,2.749,2.749,2.749,0.0,0.0,0.0,0.0,0.0,0.0,2.749,2.749,2.749,2.749,2.749,2.749,2.759,2.7656,2.7736,2.7776,2.7855,2.7934,2.7934,2.7139,2.6131,2.5919,2.5101,2.4319,2.4622,2.4708,2.475,2.4708,2.4708,2.4426,2.3219,2.328,2.34,2.2625,2.2472,2.2472,2.2472,2.2249,2.1969,2.1708,2.1555,2.151,2.153,2.1399,2.132,2.1322,2.1005,2.069,2.0531,2.0202,1.9934,1.9705,1.9708,1.9708,1.9708,1.9708,1.9708,1.9708,1.9708,1.9588,1.9333,1.9316,1.9316,1.9316,1.9316,1.9181,1.8957,1.9468,1.9672,0.0,1.8244,1.861,1.81,1.7525,1.6624,1.4872,1.4049,0.0,1.2281,1.2479,1.2862,1.2954,1.3451,1.3857,1.3857,1.4851,1.6205,0.0,0.0,0.0,0.0,0.0,0.0,0.0,0.0,0.0,0.0,0.0,0.0,0.0,0.0,0.0,2.749,2.749,2.749,2.749,2.749,2.749,2.749,2.749,2.749,2.749,0.0,0.0,0.0,0.0,0.0,0.0,2.749,2.749,2.749,2.749,2.749,2.7523,2.7756,2.7954,2.8131,2.83,2.8495,2.867,2.8629,2.7853,2.6805,2.6165,2.5309,2.4624,2.4963,2.5061,2.5061,2.5061,2.5061,2.4762,2.3526,2.3658,2.384,2.3146,2.2963,2.2934,2.2934,2.2717,2.2466,2.2198,2.2374,2.2425,2.2048,2.2212,2.2253,2.1884,2.1799,2.153,2.0897,2.0793,2.0528,1.9902,1.9753,1.9708,1.9708,1.9753,1.9768,1.9768,1.9828,1.954,1.8927,1.8912,1.8912,1.8912,1.8912,1.858,1.8012,1.9256,1.9842,1.4245,0.0,1.695,1.682,1.6336,1.5434,0.0,1.2831,1.2479,1.2651,1.2427,1.2492,1.3409,1.404,1.4402,1.4402,1.5748,1.7251,0.0,0.0,0.0,0.0,0.0,0.0,0.0,0.0,0.0,0.0,0.0,0.0,0.0,0.0,0.0,2.749,2.749,2.749,2.749,2.749,2.749,2.749,2.749,2.749,2.749,0.0,0.0,0.0,0.0,0.0,0.0,2.749,2.749,2.749,2.749,2.749,2.7523,2.7901,2.8183,2.8463,2.8798,2.9089,2.923,2.8798,2.8479,2.8033,2.693,2.5938,2.5273,2.5578,2.5702,2.5702,2.5702,2.5702,2.5465,2.4659,2.4464,2.4373,2.4042,2.3561,2.3194,2.3194,2.3083,2.2912,2.274,2.2844,2.2958,2.2966,2.3119,2.319,2.3155,2.2742,2.2403,2.2254,2.1769,2.1395,2.1231,2.0292,1.9708,1.9708,2.0183,2.0449,2.0449,2.0961,2.1156,2.0991,2.0991,2.0991,2.0991,2.0991,2.0917,2.0767,2.1081,2.1216,1.3239,1.4681,1.563,1.5924,1.5526,1.4689,1.3229,1.2427,1.202,1.2103,1.2272,1.2703,1.3634,1.4472,1.5095,1.5369,1.6859,0.0,0.0,0.0,0.0,0.0,0.0,0.0,0.0,0.0,0.0,0.0,0.0,0.0,0.0,0.0,0.0,0.0,2.749,2.749,2.749,2.749,2.749,2.749,2.749,2.749,2.749,0.0,0.0,0.0,0.0,0.0,2.749,2.759,2.7703,2.7769,2.7855,2.7921,2.8066,2.8425,2.8734,2.9071,2.9418,2.9747,2.9952,2.9668,2.9354,2.8983,2.8283,2.7356,2.6518,2.6302,2.6258,2.6258,2.6258,2.6258,2.6087,2.5431,2.5301,2.517,2.4576,2.4141,2.3822,2.3495,2.337,2.3326,2.3224,2.329,2.3334,2.3436,2.3501,2.3545,2.361,2.331,2.3017,2.2733,2.2388,2.2024,2.1724,2.1021,2.0621,2.0621,2.0961,2.1171,2.1171,2.1515,2.1695,2.1695,2.1994,2.1994,2.1695,2.1994,2.1994,2.171,2.2029,2.2164,1.3291,1.4376,1.5003,1.5604,1.5191,1.438,1.3503,1.2703,1.2061,1.1776,1.2483,1.3373,1.4079,1.5139,1.6088,1.6676,0.0,0.0,0.0,0.0,0.0,0.0,0.0,0.0,0.0,0.0,0.0,0.0,0.0,0.0,0.0,0.0,0.0,0.0,2.749,2.749,2.749,2.749,2.749,2.749,2.749,2.749,2.749,2.749,0.0,0.0,0.0,0.0,2.7523,2.7756,2.7954,2.8164,2.8333,2.856,2.883,2.9149,2.9495,2.9837,3.0235,3.0538,3.0777,3.0777,3.0397,2.9915,2.9812,2.9049,2.8032,2.7281,2.6913,2.6788,2.6788,2.6788,2.6643,2.6076,2.6078,2.5987,2.5111,2.4754,2.4425,2.3864,2.367,2.3595,2.3595,2.3595,2.3595,2.3595,2.3595,2.3595,2.3595,2.3595,2.34,2.2897,2.2838,2.2613,2.2039,2.1979,2.1979,2.1979,2.1904,2.1889,2.1979,2.1979,2.1979,2.1979,2.2553,2.2568,2.1994,2.2568,2.2553,2.1994,2.2583,2.2838,1.387,1.5233,1.6179,1.6794,1.5748,1.4676,1.5016,1.3879,1.3004,1.3909,1.4223,1.4676,1.5787,1.6924,1.7878,0.0,0.0,0.0,0.0,0.0,0.0,0.0,0.0,0.0,0.0,0.0,0.0,0.0,0.0,0.0,0.0,0.0,0.0,0.0,0.0,2.749,2.749,2.749,2.749,2.749,2.749,2.749,2.749,2.749,2.749,0.0,0.0,0.0,2.7536,2.7901,2.8229,2.8463,2.883,2.9247,2.9642,2.9995,3.0343,3.0688,3.1322,3.1568,3.1612,3.1612,3.1537,3.1342,3.0786,3.0096,2.9402,2.8804,2.7906,2.7115,2.7115,2.7115,2.71,2.6983,2.6657,2.6362,2.6309,2.5397,2.4575,2.447,2.3999,2.3595,2.3595,2.3595,2.3595,2.3595,2.3595,2.3595,2.3595,2.3595,2.3565,2.3475,2.346,2.3415,2.331,2.331,2.331,2.331,2.2838,2.2778,2.3295,2.331,2.331,2.331,2.3415,2.3415,2.331,2.3415,2.34,2.331,2.3415,2.346,1.3892,1.5225,1.6225,1.7748,1.7303,1.648,1.6428,1.5565,1.4943,1.5461,1.58,1.6362,1.7539,0.0,1.9616,2.1433,0.0,0.0,0.0,0.0,0.0,0.0,0.0,0.0,0.0,0.0,0.0,0.0,0.0,0.0,0.0,0.0,0.0,0.0,0.0,0.0,2.749,2.7703,2.7802,2.7848,2.7888,2.7987,2.8085,2.8085,2.8085,0.0,0.0,2.8085,2.8131,2.8573,2.8881,2.9135,2.9654,3.004,3.0389,3.0718,3.1014,3.1321,3.1683,3.1841,3.1898,3.1813,3.1799,3.1739,3.1436,3.0609,2.975,2.9591,2.8615,2.763,2.7539,2.7539,2.7514,2.7423,2.7225,2.6962,2.6662,2.6123,2.548,2.4739,2.435,2.4044,2.367,2.3595,2.3595,2.3595,2.3595,2.3595,2.3595,2.3595,2.3595,2.3595,2.3595,2.3595,2.3595,2.3595,2.3595,2.3595,2.3325,2.3295,2.3595,2.3595,2.3595,2.3595,2.3595,2.3595,2.3595,2.3595,2.3595,2.3595,2.3595,2.3595,1.3918,1.5029,1.597,1.7996,1.8388,1.8231,1.8048,1.7473,1.7055,1.735,1.7721,1.8323,1.9329,2.0231,0.0,2.3942,0.0,0.0,0.0,0.0,0.0,0.0,0.0,0.0,0.0,0.0,0.0,0.0,0.0,0.0,0.0,0.0,0.0,0.0,0.0,0.0,2.7769,2.8164,2.836,2.8262,2.8463,2.8675,2.8926,2.8926,2.8926,2.8926,2.8926,2.8926,2.8944,2.9404,2.9716,2.9976,3.0524,3.0881,3.116,3.1423,3.1653,3.1824,3.1883,3.1968,3.201,3.1898,3.1841,3.1841,3.1841,3.1026,3.0087,3.0107,2.9235,2.8252,2.7886,2.779,2.7765,2.7625,2.76,2.7465,2.6956,2.6692,2.6303,2.5262,2.4933,2.4664,2.4163,2.4073,2.4073,2.4073,2.4073,2.4073,2.4073,2.4073,2.4073,2.4073,2.3939,2.3774,2.361,2.3595,2.3595,2.3595,2.3595,2.3595,2.3595,2.3595,2.3595,2.3595,2.3595,2.3595,2.3595,2.3595,2.3595,2.3595,2.3595,2.3684,1.4245,1.5029,1.5787,1.7016,1.8087,1.912,2.019,1.9562,1.9028,2.0151,2.0424,2.0622,2.1211,2.266,2.4047,0.0,0.0,0.0,0.0,0.0,0.0,0.0,0.0,0.0,0.0,0.0,0.0,0.0,0.0,0.0,0.0,0.0,0.0,0.0,0.0,0.0,2.8522,2.8976,2.9058,2.8771,2.9075,2.9453,2.9903,2.9903,2.9903,2.9903,2.9903,2.9903,2.9934,3.0269,3.0599,3.0925,3.1291,3.1695,3.2107,3.2135,3.2135,3.2163,3.2163,3.2163,3.2163,3.2025,3.1996,3.1996,3.1996,3.1496,3.0852,3.0466,2.9853,2.9072,2.8057,2.779,2.7765,2.7625,2.76,2.7585,2.754,2.7046,2.6557,2.6467,2.5959,2.5501,2.5457,2.5465,2.5465,2.5465,2.5465,2.5465,2.5465,2.5465,2.5465,2.5465,2.4889,2.4276,2.3655,2.3595,2.3595,2.3595,2.3595,2.3595,2.3595,2.3595,2.3595,2.3595,2.3595,2.3595,2.3595,2.3595,2.3595,2.3595,2.3595,2.3939,1.476,1.5317,1.5944,1.78,1.9156,2.0137,2.0607,2.0909,2.1302,2.2086,2.2544,2.2871,2.3093,0.0,2.5219,0.0,0.0,0.0,0.0,0.0,0.0,0.0,0.0,0.0,0.0,0.0,0.0,0.0,0.0,0.0,0.0,0.0,0.0,0.0,0.0,0.0,0.0,2.9532,2.9858,3.0163,3.0086,3.0253,3.0614,3.0614,3.0614,3.0614,3.0614,3.0614,3.0644,3.097,3.1219,3.1349,3.1781,3.2092,3.2315,3.2247,3.2247,3.2315,3.2219,3.2247,3.2302,3.2066,3.2053,3.2122,3.2025,3.1582,3.1124,3.1036,3.0243,2.9183,2.828,2.8039,2.7989,2.779,2.7715,2.77,2.7625,2.7405,2.7106,2.6686,2.6393,2.6093,2.5674,2.5615,2.5615,2.5615,2.5615,2.5615,2.5615,2.5615,2.5615,2.5615,2.5367,2.5113,2.4881,2.4852,2.4852,2.4852,2.4059,2.3595,2.3595,2.3595,2.3595,2.3595,2.4007,2.4216,2.4216,2.4642,2.4852,2.4852,2.4852,2.4986,1.5191,1.5649,1.6245,1.8166,1.9679,2.0843,2.1367,2.223,2.313,2.3861,2.4344,2.4631,2.4631,2.5445,0.0,0.0,0.0,0.0,0.0,0.0,0.0,0.0,0.0,0.0,0.0,0.0,0.0,0.0,0.0,0.0,0.0,0.0,0.0,0.0,0.0,0.0,0.0,3.0208,3.0659,3.116,3.1087,3.1175,3.1451,3.1451,3.1451,3.1451,3.1451,3.1451,3.1451,3.168,3.1794,3.1838,3.2148,3.2315,3.2398,3.2287,3.2315,3.2398,3.2287,3.2315,3.237,3.215,3.2122,3.2163,3.2094,3.1802,3.1484,3.1417,3.0735,2.9802,2.8836,2.8403,2.8137,2.7865,2.779,2.7765,2.7625,2.76,2.7465,2.7001,2.6926,2.6752,2.6303,2.6228,2.6228,2.6228,2.6228,2.6228,2.6228,2.6228,2.6153,2.5944,2.5854,2.5704,2.542,2.5659,2.5824,2.5824,2.4822,2.4238,2.4238,2.4029,2.4029,2.4223,2.447,2.4709,2.4918,2.5367,2.5615,2.5615,2.5615,2.5719,1.5513,1.5957,1.6689,1.7839,1.9431,2.1145,2.2844,2.3665,2.4422,2.5571,2.5806,2.5806,2.5806,2.6295,0.0,0.0,0.0,0.0,0.0,0.0,0.0,0.0,0.0,0.0,0.0,0.0,0.0,0.0,0.0,0.0,0.0,0.0,0.0,0.0,0.0,0.0,0.0,3.1073,3.1365,3.1508,3.1979,3.2259,3.2398,3.2398,3.2398,3.2398,3.2398,3.2398,3.2398,3.2398,3.2398,3.2398,3.2398,3.2398,3.2398,3.2398,3.2398,3.2398,3.2398,3.2398,3.237,3.2247,3.2191,3.2191,3.2191,3.2191,3.2081,3.1555,3.1409,3.1074,2.9766,2.882,2.8152,2.7865,2.779,2.7765,2.7625,2.76,2.76,2.76,2.76,2.76,2.76,2.76,2.76,2.76,2.76,2.76,2.76,2.76,2.7345,2.6686,2.6432,2.5976,2.5107,2.5826,2.6297,2.6297,2.5869,2.5615,2.5615,2.4963,2.4918,2.56,2.4948,2.4948,2.5615,2.563,2.563,2.563,2.563,2.5974,1.6584,1.7133,1.7957,1.9536,2.0923,2.2335,2.4089,2.4896,2.561,2.6759,2.67,2.6412,2.6412,2.6588,0.0,0.0,0.0,0.0,0.0,0.0,0.0,0.0,0.0,0.0,0.0,0.0,0.0,0.0,0.0,0.0,0.0,0.0,0.0,0.0,0.0,0.0,0.0,0.0,3.1769,3.1979,3.2135,3.2259,3.2398,3.2398,3.2398,3.2398,3.2398,3.2398,3.2398,3.2398,3.2398,3.2398,3.2398,3.2398,3.2398,3.2398,3.2398,3.2398,3.2398,3.2398,3.237,3.2247,3.2259,3.2315,3.2219,3.2274,3.2296,3.2151,3.1751,3.1316,3.0905,3.0279,2.948,2.8341,2.8088,2.8014,2.779,2.774,2.77,2.7625,2.76,2.76,2.76,2.76,2.76,2.76,2.76,2.76,2.76,2.76,2.7525,2.733,2.724,2.7106,2.6851,2.7061,2.721,2.721,2.7091,2.6572,2.5644,2.5397,2.5397,2.5615,2.5869,2.6093,2.6303,2.6791,2.7016,2.7016,2.7016,2.717,1.7055,1.8162,1.9496,2.0988,2.2414,2.3995,2.6222,2.6765,2.704,2.7732,2.7589,2.7386,2.7386,0.0,0.0,0.0,0.0,0.0,0.0,0.0,0.0,0.0,0.0,0.0,0.0,0.0,0.0,0.0,0.0,0.0,0.0,0.0,0.0,0.0,0.0,0.0,0.0,0.0,0.0,3.2191,3.2247,3.2315,3.2398,3.2398,3.2398,3.2398,3.2398,3.2398,3.2398,3.2398,3.2398,3.2398,3.2398,3.2398,3.2398,3.2398,3.2398,3.2398,3.2398,3.2398,3.2398,3.233,3.2342,3.2398,3.2287,3.2342,3.2398,3.2398,3.2105,3.1747,3.1459,3.1089,3.0509,2.9291,2.8981,2.8931,2.8651,2.86,2.8548,2.8419,2.8393,2.8393,2.8393,2.8184,2.8004,2.8004,2.7764,2.76,2.76,2.76,2.76,2.76,2.76,2.76,2.76,2.76,2.76,2.76,2.76,2.724,2.6422,2.6138,2.6123,2.6378,2.6512,2.6746,2.7001,2.7405,2.76,2.76,2.76,2.7675,1.7107,1.896,2.1,2.2166,2.3854,2.5934,2.8616,2.8856,2.8551,2.8499,0.0,2.8486,2.842,0.0,0.0,0.0,0.0,0.0,0.0,0.0,0.0,0.0,0.0,0.0,0.0,0.0,0.0,0.0,0.0,0.0,0.0,0.0,0.0,0.0,0.0,0.0,0.0,0.0,0.0,0.0,3.2342,3.2398,3.2398,3.2398,3.2398,3.2398,3.2398,3.2398,3.2398,3.2398,3.2398,3.2398,3.2398,3.2398,3.2398,3.2398,3.2398,3.2398,3.2398,3.2398,3.2398,3.2398,3.2398,3.2398,3.2398,3.2398,3.2398,3.2398,3.2398,3.2259,3.1643,3.1501,3.1309,3.0562,3.0306,3.0136,2.9898,2.9845,2.9807,2.966,2.9633,2.9633,2.9633,2.9082,2.8618,2.8517,2.8004,2.76,2.76,2.76,2.76,2.76,2.76,2.76,2.76,2.76,2.76,2.76,2.76,2.76,2.76,2.7016,2.6986,2.7585,2.7001,2.7001,2.76,2.76,2.76,2.76,2.76,2.7675,1.7499,1.9274,2.1066,2.2635,2.5027,2.7262,2.8333,2.9196,2.9627,2.917,2.9127,2.897,0.0,0.0,0.0,0.0,0.0,0.0,0.0,0.0,0.0,0.0,0.0,0.0,0.0,0.0,0.0,0.0,0.0,0.0,0.0,0.0,0.0,0.0,0.0,0.0,3.194,3.1996,3.2122,0.0,3.2398,3.2398,3.2398,3.2398,3.2398,3.2398,3.2398,3.2398,3.2398,3.2398,3.2398,3.2398,3.2398,3.2398,3.2398,3.2398,3.2398,3.2398,3.2398,3.2398,3.2398,3.2398,3.2398,3.2398,3.2398,3.2398,3.2398,3.2398,3.2398,3.2367,3.2213,3.2167,3.2136,3.197,3.1113,3.0308,3.0136,3.011,3.0083,2.9936,2.991,2.9883,2.978,2.9373,2.8789,2.7955,2.769,2.76,2.76,2.76,2.76,2.76,2.76,2.76,2.76,2.76,2.76,2.76,2.76,2.76,2.76,2.7465,2.745,2.76,2.7465,2.745,2.76,2.76,2.76,2.76,2.76,2.774,1.7199,1.9329,2.1708,2.423,2.6412,2.8085,2.8673,2.9287,2.964,2.9375,2.931,0.0,0.0,0.0,0.0,0.0,0.0,0.0,0.0,0.0,0.0,0.0,0.0,0.0,0.0,0.0,0.0,0.0,0.0,0.0,0.0,0.0,0.0,0.0,0.0,0.0,3.1996,3.1996,3.215,3.2398,3.2398,3.2398,3.2398,3.2398,3.2398,3.2398,3.2398,3.2398,3.2398,3.2398,3.2398,3.2398,3.2398,3.2398,3.2398,3.2398,3.2398,3.2398,3.2398,3.2398,3.2398,3.2398,3.2398,3.2398,3.2398,3.2398,3.2398,3.2398,3.2398,3.2398,3.2398,3.2398,3.2398,3.2398,3.1874,3.1313,3.1178,3.1151,3.1124,3.0989,3.0907,3.0837,3.0769,3.0506,2.9687,2.7854,2.76,2.8049,2.931,2.9475,2.8981,2.7735,2.76,2.76,2.76,2.76,2.76,2.76,2.76,2.76,2.76,2.8214,2.8259,2.76,2.76,2.76,2.76,2.76,2.76,2.76,2.76,2.774,1.6558,1.9381,2.257,2.5733,2.7379,2.8386,2.9022,2.9244,2.931,2.931,0.0,0.0,0.0,0.0,0.0,0.0,0.0,0.0,0.0,0.0,0.0,0.0,0.0,0.0,0.0,0.0,0.0,0.0,0.0,0.0,0.0,0.0,0.0,0.0,0.0,3.1655,3.1996,3.1996,3.215,3.2398,3.2398,3.2398,3.2398,3.2398,3.2398,3.2398,3.2398,3.2398,3.2398,3.2398,3.2398,3.2398,3.2398,3.2398,3.2398,3.2398,3.2398,3.2398,3.2398,3.2398,3.2398,3.2398,3.2398,3.2398,3.2398,3.2398,3.2398,3.2398,3.2398,3.2398,3.2398,3.2398,3.2398,3.2398,3.2398,3.237,3.2274,3.2247,3.2191,3.2094,3.1938,3.1853,3.191,3.1697,3.0763,2.8618,2.8274,2.9041,3.1227,3.1511,3.0658,2.8487,2.8274,2.8274,2.8274,2.8274,2.8274,2.8274,2.8274,2.8274,2.8274,2.9352,2.9427,2.8304,2.7989,2.775,2.76,2.76,2.761,2.7635,2.7625,2.7765,1.5814,1.9632,2.3459,2.5445,2.6772,2.7798,2.836,2.893,2.931,0.0,0.0,0.0,0.0,0.0,0.0,0.0,0.0,0.0,0.0,0.0,0.0,0.0,0.0,0.0,0.0,0.0,0.0,0.0,0.0,0.0,0.0,0.0,3.1511,3.1511,3.1511,0.0,3.1996,3.1996,3.215,3.2398,3.2398,3.2398,3.2398,3.2398,3.2398,3.2398,3.2398,3.2398,3.2398,3.2398,3.2398,3.2398,3.2398,3.2398,3.2398,3.2398,3.2398,3.2398,3.2398,3.2398,3.2398,3.2398,3.2398,3.2398,3.2398,3.2398,3.2398,3.2398,3.2398,3.2398,3.2398,3.2398,3.2398,3.2398,3.2398,3.2398,3.237,3.237,3.237,3.2342,3.2176,3.2135,3.2287,3.1853,3.1391,3.1032,3.0972,3.1107,3.1466,3.1511,3.1376,3.1017,3.0972,3.0972,3.0972,3.0972,3.0972,3.0972,3.0972,3.0972,3.0972,3.1152,3.1152,3.0972,2.949,2.8349,2.76,2.76,2.766,2.777,2.7775,2.789,1.6786,2.0205,2.3237,2.5271,2.6438,2.7196,2.7771,2.8111,2.8294,0.0,0.0,0.0,0.0,0.0,0.0,0.0,0.0,0.0,0.0,0.0,0.0,0.0,0.0,0.0,0.0,0.0,0.0,0.0,0.0,0.0,0.0,3.1511,3.1511,3.1511,3.1597,0.0,3.1996,3.2066,3.2219,3.2398,3.2398,3.2398,3.2398,3.2398,3.2398,3.2398,3.2398,3.2398,3.2398,3.2398,3.2398,3.2398,3.2398,3.2398,3.2398,3.2398,3.2398,3.2398,3.2398,3.2398,3.2398,3.2398,3.2398,3.2398,3.2398,3.2398,3.2398,3.2398,3.2398,3.2398,3.2398,3.2398,3.2398,3.2398,3.2398,3.2398,3.2398,3.2398,3.2398,3.2398,3.2342,3.2287,3.2398,3.2176,3.1994,3.1994,3.1994,3.1994,3.1994,3.1994,3.1994,3.1994,3.1994,3.1853,3.1524,3.1511,3.1511,3.1511,3.1511,3.1511,3.1511,3.1511,3.1511,3.1511,2.9789,2.8843,2.8723,2.7959,2.7635,2.771,2.814,2.8253,1.7212,1.998,2.2257,2.44,2.5484,2.6216,2.6902,0.0,0.0,0.0,0.0,0.0,0.0,0.0,0.0,0.0,0.0,0.0,0.0,0.0,0.0,0.0,0.0,0.0,0.0,0.0,0.0,0.0,0.0,0.0,3.1511,3.1511,3.1511,3.1568,3.1727,3.187,3.2053,3.2191,3.2287,3.2398,3.2398,3.2398,3.2398,3.2398,3.2398,3.2398,3.2398,3.2398,3.2398,3.2398,3.2398,3.2398,3.2398,3.2398,3.2398,3.2398,3.2398,3.2398,3.2398,3.2398,3.2398,3.2398,3.2398,3.2398,3.2398,3.2398,3.2398,3.2398,3.2398,3.2398,3.2398,3.2398,3.2398,3.2398,3.2398,3.2398,3.2398,3.2398,3.2398,3.2398,3.2398,3.2398,3.2398,3.2398,3.2398,3.2398,3.2398,3.2398,3.2398,3.2398,3.2398,3.2398,3.2398,3.2163,3.1553,3.1511,3.1511,3.1511,3.1511,3.1511,3.1511,3.1511,3.1511,3.1511,3.0223,2.9729,3.0073,2.9071,2.8259,2.7625,2.8286,2.8414,1.6029,1.8192,2.0361,2.2126,2.3406,2.4543,0.0,0.0,0.0,0.0,0.0,0.0,0.0,0.0,0.0,0.0,0.0,0.0,0.0,0.0,0.0,0.0,0.0,0.0,0.0,0.0,0.0,0.0,0.0,0.0,3.1511,3.1511,3.1597,3.1784,3.1799,3.1927,3.2191,3.2315,3.2398,3.2398,3.2398,3.2398,3.2398,3.2398,3.2398,3.2398,3.2398,3.2398,3.2398,3.2398,3.2398,3.2398,3.2398,3.2398,3.2398,3.2398,3.2398,3.2398,3.2398,3.2398,3.2398,3.2398,3.2398,3.2398,3.2398,3.2398,3.2398,3.2398,3.2398,3.2398,3.2398,3.2398,3.2398,3.2398,3.2398,3.2398,3.2398,3.2398,3.2398,3.2398,3.2398,3.2398,3.2398,3.2398,3.2398,3.2398,3.2398,3.2398,3.2398,3.2398,3.2398,3.2398,3.2398,3.2163,3.1553,3.1511,3.1511,3.1511,3.1511,3.1511,3.1511,3.1511,3.1511,3.1511,3.1406,3.1376,3.1406,3.1331,3.0028,2.7625,2.789,2.8152,1.435,1.614,1.8114,2.0205,2.159,2.2817,2.4344,0.0,0.0,0.0,0.0,0.0,0.0,0.0,0.0,0.0,0.0,0.0,0.0,0.0,0.0,0.0,0.0,0.0,0.0,0.0,0.0,0.0,0.0,0.0,3.1511,3.1511,3.1597,3.1799,3.1898,3.2066,3.2315,3.237,3.2398,3.2398,3.2398,3.2398,3.2398,3.2398,3.2398,3.2398,3.2398,3.2398,3.2398,3.2398,3.2398,3.2398,3.2398,3.2398,3.2398,3.2398,3.2398,3.2398,3.2398,3.2398,3.2398,3.2398,3.2398,3.2398,3.2398,3.2398,3.2398,3.2398,3.2398,3.2398,3.2398,3.2398,3.2398,3.2398,3.2398,3.2398,3.2398,3.2398,3.2398,3.2398,3.2398,3.2398,3.2398,3.2398,3.2398,3.2398,3.2398,3.2398,3.2398,3.2398,3.2398,3.2398,3.2398,3.2315,3.2107,3.2079,3.2079,3.2079,3.2079,3.191,3.1511,3.1511,3.1511,3.1511,3.1511,3.1511,3.1511,3.1881,3.1604,3.0712,3.1532,3.2149,1.3332,1.4783,1.6415,1.8354,1.9845,2.1244,2.2814,0.0,0.0,0.0,0.0,0.0,0.0,0.0,0.0,0.0,0.0,0.0,0.0,0.0,0.0,0.0,0.0,0.0,0.0,0.0,0.0,0.0,0.0,0.0,3.1511,3.1511,3.1597,3.187,3.2038,3.2219,3.2398,3.2398,3.2398,3.2398,3.2398,3.2398,3.2398,3.2398,3.2398,3.2398,3.2398,3.2398,3.2398,3.2398,3.2398,3.2398,3.2398,3.2398,3.2398,3.2398,3.2398,3.2398,3.2398,3.2398,3.2398,3.2398,3.2398,3.2398,3.2398,3.2398,3.2398,3.2398,3.2398,3.2398,3.2398,3.2398,3.2398,3.2398,3.2398,3.2398,3.2398,3.2398,3.2398,3.2398,3.2398,3.2398,3.2398,3.2398,3.2398,3.2398,3.2398,3.2398,3.2398,3.2398,3.2398,3.2398,3.2398,3.2398,3.2398,3.2398,3.2398,3.2398,3.2398,3.212,3.1524,3.1511,3.1511,3.1511,3.1511,3.1511,3.1511,3.2092,3.2683,3.3256,3.4034,3.4546,0.0,0.0,0.0,1.6518,0.0,0.0,0.0,0.0,0.0,0.0,0.0,0.0,0.0,0.0,0.0,0.0,0.0,0.0,0.0,0.0,0.0,0.0,0.0,0.0,0.0,0.0,0.0,0.0,0.0,3.1511,3.1511,3.1511,3.1683,3.1996,3.2274,3.2398,3.2398,3.2398,3.2398,3.2398,3.2398,3.2398,3.2398,3.2398,3.2398,3.2398,3.2398,3.2398,3.2398,3.2398,3.2398,3.2398,3.2398,3.2398,3.2398,3.2398,3.2398,3.2398,3.2398,3.2398,3.2398,3.2398,3.2398,3.2398,3.2398,3.2398,3.2398,3.2398,3.2398,3.2398,3.2398,3.2398,3.2398,3.2398,3.2398,3.2398,3.2398,3.2398,3.2398,3.2398,3.2398,3.2398,3.2398,3.2398,3.2398,3.2398,3.2398,3.2398,3.2398,3.2398,3.2398,3.2398,3.2398,3.2398,3.2398,3.2398,3.2398,3.2398,3.2398,3.2148,3.1553,3.1524,3.1511,3.1511,3.1511,3.1511,3.1511,3.2092,3.3256,3.4851,3.4899,3.4899,1.3011,0.0,0.0,0.0,0.0,0.0,0.0,0.0,0.0,0.0,0.0,0.0,0.0,0.0,0.0,0.0,0.0,0.0,0.0,0.0,0.0,0.0,0.0,0.0,0.0,0.0,0.0,0.0,0.0,3.1511,3.1511,3.1726,3.1953,3.215,3.2315,3.2398,3.2398,3.2398,3.2398,3.2398,3.2398,3.2398,3.2398,3.2398,3.2398,3.2398,3.2398,3.2398,3.2398,3.2398,3.2398,3.2398,3.2398,3.2398,3.2398,3.2398,3.2398,3.2398,3.2398,3.2398,3.2398,3.2398,3.2398,3.2398,3.2398,3.2398,3.2398,3.2398,3.2398,3.2398,3.2398,3.2398,3.2398,3.2398,3.2398,3.2398,3.2398,3.2398,3.2398,3.2398,3.2398,3.2398,3.2398,3.2398,3.2398,3.2398,3.2398,3.2398,3.2398,3.2398,3.2398,3.2398,3.2398,3.2398,3.2398,3.2398,3.2398,3.2398,3.2398,3.2342,3.2148,3.2148,3.1938,3.1511,3.1511,3.1511,3.1511,3.2092,3.2846,3.3745,3.4546,3.4899,1.4314,1.4428,1.4542,0.0,0.0,0.0,0.0,0.0,0.0,0.0,0.0,0.0,0.0,0.0,0.0,0.0,0.0,0.0,0.0,0.0,0.0,0.0,0.0,0.0,0.0,0.0,0.0,0.0,3.1511,3.1539,3.1626,3.194,3.2122,3.2191,3.2342,3.2398,3.2398,3.2398,3.2398,3.2398,3.2398,3.2398,3.2398,3.2398,3.2398,3.2398,3.2398,3.2398,3.2398,3.2398,3.2398,3.2398,3.2398,3.2398,3.2398,3.2398,3.2398,3.2398,3.2398,3.2398,3.2398,3.2398,3.2398,3.2398,3.2398,3.2398,3.2398,3.2398,3.2398,3.2398,3.2398,3.2398,3.2398,3.2398,3.2398,3.2398,3.2398,3.2398,3.2398,3.2398,3.2398,3.2398,3.2398,3.3336,3.4106,3.4106,3.4106,3.369,3.2552,3.2398,3.2398,3.2398,3.2398,3.2398,3.2398,3.2398,3.2398,3.2398,3.2398,3.2398,3.2398,3.2398,3.2135,3.1496,3.1511,3.1611,3.1881,3.1966,3.2315,3.2958,3.4284,3.4899,1.6531,1.6193,1.5782,1.6219,0.0,0.0,1.6853,1.848,0.0,0.0,0.0,0.0,0.0,0.0,0.0,0.0,0.0,0.0,0.0,0.0,0.0,0.0,0.0,0.0,0.0,0.0,0.0,3.1511,3.1511,3.1626,3.1841,3.2066,3.2219,3.2219,3.2342,3.2398,3.2398,3.2398,3.2398,3.2398,3.2398,3.2398,3.2398,3.2398,3.2398,3.2398,3.2398,3.2398,3.2398,3.2398,3.2398,3.2398,3.2398,3.2398,3.2398,3.2398,3.2398,3.2398,3.2398,3.2398,3.2398,3.2398,3.2398,3.2398,3.2398,3.2398,3.2398,3.2398,3.2398,3.2398,3.2398,3.2398,3.2398,3.2398,3.2398,3.2475,3.2782,3.2859,3.2859,3.2859,3.2859,3.2859,3.2859,3.4876,3.6492,3.6492,3.6492,3.5491,3.2752,3.2398,3.2398,3.2398,3.2398,3.2398,3.2398,3.2398,3.2398,3.2398,3.2398,3.2398,3.2398,3.2398,3.2148,3.1611,3.1582,3.191,3.2508,3.1881,3.1938,3.2629,3.4193,3.4899,1.8991,1.8559,1.7796,1.6872,0.0,0.0,0.0,1.7171,0.0,0.0,0.0,0.0,0.0,0.0,0.0,0.0,0.0,0.0,0.0,0.0,0.0,0.0,0.0,0.0,0.0,0.0,3.1511,3.1511,3.167,3.1855,3.2122,3.2163,3.2247,3.237,3.2398,3.2398,3.2398,3.2398,3.2398,3.2398,3.2398,3.2398,3.2398,3.2398,3.2398,3.2398,3.2398,3.2398,3.2398,3.2398,3.2398,3.2398,3.2398,3.2398,3.2398,3.2398,3.2398,3.2398,3.2398,3.2398,3.2398,3.2398,3.2398,3.2398,3.2398,3.2398,3.2398,3.2398,3.2398,3.2398,3.2398,3.2398,3.2398,3.2398,3.2398,3.2998,3.5214,3.5691,3.5691,3.5691,3.5691,3.5691,3.5691,3.6138,3.6492,3.6492,3.6492,3.5491,3.2752,3.2398,3.2398,3.2398,3.2398,3.2398,3.2398,3.2398,3.2398,3.2398,3.2398,3.2398,3.2398,3.2398,3.2342,3.2231,3.2231,3.2508,3.3134,3.2508,3.2765,3.3781,3.4546,3.4899,2.1565,2.0932,1.9959,1.8954,0.0,0.0,0.0,0.0,0.0,0.0,0.0,0.0,0.0,0.0,0.0,0.0,0.0,0.0,0.0,0.0,0.0,0.0,0.0,0.0,0.0,0.0,3.1194,3.1611,3.1855,3.2066,3.2191,3.2259,3.2342,3.2398,3.2398,3.2398,3.2398,3.2398,3.2398,3.2398,3.2398,3.2398,3.2398,3.2398,3.2398,3.2398,3.2398,3.2398,3.2398,3.2398,3.2398,3.2398,3.2398,3.2398,3.2398,3.2398,3.2398,3.2398,3.2398,3.2398,3.2398,3.2398,3.2398,3.2398,3.2398,3.2398,3.2398,3.2398,3.2398,3.2398,3.2398,3.2398,3.2398,3.2398,3.3444,3.4814,3.6199,3.6492,3.6492,3.6492,3.6492,3.6492,3.6492,3.6492,3.6492,3.6492,3.6492,3.5999,3.4614,3.4429,3.3921,3.2536,3.2398,3.2398,3.2398,3.2398,3.2398,3.2398,3.2398,3.2398,3.2398,3.2398,3.2535,3.285,3.3129,3.3533,3.4101,3.379,3.3942,3.4497,3.4763,3.4899,0.0,0.0,0.0,0.0,0.0,1.7878,0.0,0.0,0.0,1.8281,0.0,0.0,0.0,0.0,0.0,0.0,0.0,0.0,0.0,0.0,0.0,0.0,0.0,0.0,0.0,0.0,3.0528,3.1432,3.1564,3.176,3.2032,3.2143,3.2259,3.2398,3.2398,3.2398,3.2398,3.2398,3.2398,3.2398,3.2398,3.2398,3.2398,3.2398,3.2398,3.2398,3.2398,3.2425,3.2425,3.248,3.2508,3.2523,3.2425,3.2398,3.2398,3.2398,3.2398,3.2398,3.2398,3.2398,3.2398,3.2398,3.2398,3.2398,3.2398,3.2398,3.2398,3.2398,3.2398,3.2398,3.2398,3.2398,3.2521,3.3059,3.4876,3.6492,3.6492,3.6492,3.6492,3.6492,3.6492,3.6492,3.6492,3.6492,3.6492,3.6492,3.6492,3.6492,3.6492,3.6492,3.5445,3.269,3.2398,3.2398,3.2398,3.2398,3.2398,3.2398,3.2398,3.2398,3.2398,3.2398,3.2726,3.345,3.4075,3.4602,3.5024,3.5024,3.4994,3.4899,3.4899,3.4899,0.0,0.0,0.0,0.0,2.0513,0.0,0.0,0.0,1.7639,1.7772,0.0,0.0,0.0,0.0,0.0,0.0,0.0,0.0,0.0,0.0,0.0,0.0,0.0,0.0,0.0,0.0,0.0,3.0319,2.9867,3.0114,3.1401,3.1505,3.1782,3.2367,3.2398,3.2398,3.2398,3.2398,3.2398,3.2398,3.2398,3.2398,3.2398,3.2398,3.2398,3.2398,3.2398,3.2453,3.2578,3.2773,3.2908,3.2989,3.2563,3.2398,3.2398,3.2398,3.2398,3.2398,3.2398,3.2398,3.2398,3.2398,3.2398,3.2398,3.2398,3.2398,3.2398,3.2398,3.2398,3.2398,3.2398,3.2398,3.2998,3.5445,3.6261,3.6492,3.6492,3.6492,3.6492,3.6492,3.6492,3.6492,3.6492,3.6492,3.6492,3.6492,3.6492,3.6492,3.6492,3.6492,3.5445,3.269,3.2398,3.2398,3.2398,3.2398,3.2398,3.2398,3.2398,3.2398,3.2398,3.2398,3.29,3.4,3.4937,3.5464,3.5532,3.5532,3.5304,3.4899,3.4899,3.4899,0.0,0.0,0.0,0.0,0.0,0.0,0.0,0.0,1.7923,0.0,0.0,0.0,0.0,0.0,0.0,0.0,0.0,0.0,0.0,0.0,0.0,0.0,0.0,0.0,0.0,0.0,0.0,0.0,0.0,2.8778,3.0166,3.0966,3.1547,3.1797,3.2198,3.2398,3.2398,3.2398,3.2398,3.2398,3.2398,3.2398,3.2398,3.2398,3.2398,3.2398,3.2398,3.2551,3.28,3.2996,3.3208,3.345,3.3361,3.315,3.2931,3.2931,3.2931,3.2931,3.2931,3.2931,3.2931,3.2931,3.2931,3.2931,3.2931,3.2931,3.2904,3.2839,3.2757,3.2772,3.3131,3.3398,3.412,3.603,3.6492,3.6492,3.6492,3.6492,3.6492,3.6492,3.6492,3.6492,3.6492,3.6492,3.6492,3.6492,3.6492,3.6492,3.6492,3.6831,3.6113,3.3652,3.3377,3.3377,3.3377,3.3377,3.3377,3.3377,3.3377,3.3377,3.3377,3.3377,3.3764,3.4546,3.5258,3.56,3.56,3.56,3.5509,3.5304,3.5304,3.5304,2.8472,0.0,0.0,0.0,0.0,0.0,0.0,0.0,0.0,0.0,0.0,0.0,0.0,0.0,0.0,0.0,0.0,0.0,0.0,0.0,0.0,0.0,0.0,0.0,0.0,0.0,0.0,0.0,0.0,0.0,2.9033,3.0397,3.1197,3.1382,3.2044,3.2425,3.2453,3.2523,3.2551,3.2605,3.2617,3.2645,3.2645,3.2645,3.2645,3.2645,3.2645,3.2839,3.3123,3.3377,3.362,3.3949,3.4168,3.4043,3.372,3.3565,3.3487,3.3487,3.3487,3.3487,3.3487,3.3487,3.3487,3.3487,3.3487,3.3487,3.3461,3.3293,3.3134,3.3111,3.3666,3.4214,3.4982,3.6199,3.6492,3.6492,3.6492,3.6492,3.6492,3.6492,3.6492,3.6492,3.6492,3.6492,3.6492,3.6492,3.6492,3.6492,3.6492,3.7225,3.693,3.4742,3.4505,3.4505,3.4505,3.4505,3.4505,3.4505,3.4505,3.4505,3.4505,3.4505,3.4699,3.5071,3.5418,3.56,3.56,3.56,3.56,3.56,3.56,3.56,0.0,0.0,0.0,2.3924,0.0,0.0,0.0,0.0,2.0835,0.0,0.0,0.0,0.0,0.0,2.057,1.9318,0.0,0.0,0.0,0.0,0.0,0.0,0.0,0.0,0.0,0.0,0.0,0.0,0.0,0.0,2.8319,2.9694,3.0735,3.1366,3.2044,3.2453,3.2578,3.2773,3.2951,3.3069,3.3203,3.3282,3.3282,3.3282,3.3282,3.3282,3.3282,3.3424,3.3694,3.3975,3.4226,3.4497,3.478,3.4859,3.4787,3.4202,3.3986,3.3986,3.3986,3.3986,3.3986,3.3986,3.3986,3.3986,3.3986,3.3986,3.3951,3.3745,3.3455,3.3286,3.3679,3.4429,3.5306,3.6261,3.6492,3.6492,3.6492,3.6492,3.6492,3.6492,3.6492,3.6492,3.6492,3.6492,3.6492,3.6492,3.6492,3.6492,3.6492,3.7596,3.7654,3.5744,3.5554,3.5554,3.5554,3.5554,3.5554,3.5554,3.5554,3.5554,3.5554,3.5554,3.5577,3.5577,3.56,3.56,3.56,3.56,3.56,3.56,3.56,3.56,0.0,0.0,2.6716,2.5794,0.0,0.0,0.0,0.0,0.0,0.0,0.0,0.0,0.0,0.0,2.2541,2.0709,1.9739,0.0,0.0,0.0,0.0,0.0,0.0,0.0,0.0,0.0,0.0,0.0,0.0,0.0,0.0,2.8781,3.0033,3.0735,3.1382,3.2087,3.28,3.2996,3.3219,3.3503,3.3678,3.3748,3.3748,3.3748,3.3748,3.3748,3.3748,3.3942,3.425,3.4464,3.4747,3.5041,3.5281,3.5373,3.5304,3.4794,3.4602,3.4602,3.4602,3.4602,3.4602,3.4602,3.4602,3.4602,3.4602,3.4955,3.5284,3.5042,3.5095,3.5337,3.5756,3.5718,3.58,3.6674,3.7013,3.6983,3.6585,3.6492,3.6492,3.6492,3.6492,3.6492,3.6492,3.6492,3.6492,3.6492,3.6892,3.7315,3.7714,3.8488,3.8874,3.861,3.8565,3.8565,3.8565,3.8565,3.8565,3.8565,3.8565,3.7686,3.5684,3.56,3.56,3.56,3.56,3.56,3.56,3.56,3.56,3.56,3.56,3.56,3.0507,2.925,0.0,0.0,2.577,0.0,2.3479,0.0,0.0,0.0,0.0,0.0,0.0,0.0,2.3999,2.2175,2.0437,1.8732,0.0,0.0,0.0,0.0,0.0,0.0,0.0,0.0,2.2012,2.2871,0.0,0.0,0.0,0.0,2.9366,3.0079,3.1051,3.2042,3.3096,3.3377,3.3688,3.4,3.4218,3.4325,3.4325,3.4325,3.4325,3.4325,3.4325,3.4464,3.4715,3.4913,3.5142,3.54,3.5549,3.56,3.5577,3.5258,3.5142,3.5142,3.5142,3.5142,3.5142,3.5142,3.5142,3.5142,3.5142,3.5682,3.6219,3.5951,3.6213,3.6676,3.7085,3.6762,3.6546,3.7343,3.7621,3.7592,3.7222,3.7133,3.7193,3.7431,3.7314,3.718,3.718,3.718,3.7029,3.6585,3.724,3.8091,3.8887,3.9335,3.9729,4.0045,4.0096,4.0096,4.0096,4.0096,4.0096,4.0096,4.0096,3.9249,3.728,3.6157,3.56,3.56,3.56,3.56,3.56,3.56,3.56,3.56,3.56,3.56]}]]